[[{"header":{"parameterUnit":"m.s-1","parameterCategory":1,"la1":30.6,"la2":28.766,"lo1":-90.7593,"lo2":-88.6598,"dy":0.0162,"dx":0.0183,"nx":116,"ny":114,"refTime":"2024-06-13T06:00:00:Z","depth":0,"parameterNumber":2,"parameterNumberName":"U-component_of_WINDS"},"data":[0.0,0.0,0.0,0.0,0.0,0.0,0.0,0.0,0.0,0.0,0.0,0.0,0.0,0.0,0.0,0.0,0.0,0.0,0.0,0.0,0.0,0.0,0.0,0.0,0.0,0.0,0.0,0.0,0.0,0.0,0.0,0.0,0.0,0.0,0.0,0.0,0.0,0.0,0.0,0.0,0.0,0.0,0.0,0.0,0.0,0.0,0.0,0.0,0.0,0.0,0.0,0.0,0.0,0.0,0.0,0.0,0.0,0.0,0.0,0.0,0.0,0.0,0.0,0.0,0.0,0.0,0.0,0.0,0.0,0.0,0.0,0.0,0.0,0.0,0.0,0.0,0.0,0.0,0.0,0.0,0.0,0.0,0.0,0.0,0.0,0.0,0.0,0.0,0.0,0.0,0.0,0.0,0.0,0.0,0.0,0.0,0.0,0.0,0.0,0.0,0.0,0.0,0.0,0.0,0.0,0.0,0.0,0.0,0.0,0.0,0.0,0.0,0.0,0.0,0.0,0.0,0.0,0.0,0.0,0.0,0.0,0.0,0.0,0.0,0.0,0.0,0.0,0.0,0.0,0.0,0.0,0.0,0.0,0.0,0.0,0.0,0.0,0.0,0.0,0.0,0.0,0.0,0.0,0.0,0.0,0.0,0.0,0.0,0.0,0.0,0.0,0.0,0.0,0.0,0.0,0.0,0.0,0.0,0.0,0.0,0.0,0.0,0.0,0.0,0.0,0.0,0.0,0.0,0.0,0.0,0.0,0.0,0.0,0.0,0.0,0.0,0.0,0.0,0.0,0.0,0.0,0.0,0.0,0.0,0.0,0.0,0.0,0.0,0.0,0.0,0.0,0.0,0.0,0.0,0.0,0.0,0.0,0.0,0.0,0.0,0.0,0.0,0.0,0.0,0.0,0.0,0.0,0.0,0.0,0.0,0.0,0.0,0.0,0.0,0.0,0.0,0.0,0.0,0.0,0.0,0.0,0.0,0.0,0.0,0.0,0.0,0.0,0.0,0.0,0.0,0.0,0.0,0.0,0.0,0.0,0.0,0.0,0.0,0.0,0.0,0.0,0.0,0.0,0.0,0.0,0.0,0.0,0.0,0.0,0.0,0.0,0.0,0.0,0.0,0.0,0.0,0.0,0.0,0.0,0.0,0.0,0.0,0.0,0.0,0.0,0.0,0.0,0.0,0.0,0.0,0.0,0.0,0.0,0.0,0.0,0.0,0.0,0.0,0.0,0.0,0.0,0.0,0.0,0.0,0.0,0.0,0.0,0.0,0.0,0.0,0.0,0.0,0.0,0.0,0.0,0.0,0.0,0.0,0.0,0.0,0.0,0.0,0.0,0.0,0.0,0.0,0.0,0.0,0.0,0.0,0.0,0.0,0.0,0.0,0.0,0.0,0.0,0.0,0.0,0.0,0.0,0.0,0.0,0.0,0.0,0.0,0.0,0.0,0.0,0.0,0.0,0.0,0.0,0.0,0.0,0.0,0.0,0.0,0.0,0.0,0.0,0.0,0.0,0.0,0.0,0.0,0.0,0.0,0.0,0.0,0.0,0.0,0.0,0.0,0.0,0.0,0.0,0.0,0.0,0.0,0.0,0.0,0.0,0.0,0.0,0.0,0.0,0.0,0.0,0.0,0.0,0.0,0.0,0.0,0.0,0.0,0.0,0.0,0.0,0.0,0.0,0.0,0.0,0.0,0.0,0.0,0.0,0.0,0.0,0.0,0.0,0.0,0.0,0.0,0.0,0.0,0.0,0.0,0.0,0.0,0.0,0.0,0.0,0.0,0.0,0.0,0.0,0.0,0.0,0.0,0.0,0.0,0.0,0.0,0.0,0.0,0.0,0.0,0.0,0.0,0.0,0.0,0.0,0.0,0.0,0.0,0.0,0.0,0.0,0.0,0.0,0.0,0.0,0.0,0.0,0.0,0.0,0.0,0.0,0.0,0.0,0.0,0.0,0.0,0.0,0.0,0.0,0.0,0.0,0.0,0.0,0.0,0.0,0.0,0.0,0.0,0.0,0.0,0.0,0.0,0.0,0.0,0.0,0.0,0.0,0.0,0.0,0.0,0.0,0.0,0.0,0.0,0.0,0.0,0.0,0.0,0.0,0.0,0.0,0.0,0.0,0.0,0.0,0.0,0.0,0.0,0.0,0.0,0.0,0.0,0.0,0.0,0.0,0.0,0.0,0.0,0.0,0.0,0.0,0.0,0.0,0.0,0.0,0.0,0.0,0.0,0.0,0.0,0.0,0.0,0.0,0.0,0.0,0.0,0.0,0.0,0.0,0.0,0.0,0.0,0.0,0.0,0.0,0.0,0.0,0.0,0.0,0.0,0.0,0.0,0.0,0.0,0.0,0.0,0.0,0.0,0.0,0.0,0.0,0.0,0.0,0.0,0.0,0.0,0.0,0.0,0.0,0.0,0.0,0.0,0.0,0.0,0.0,0.0,0.0,0.0,0.0,0.0,0.0,0.0,0.0,0.0,0.0,0.0,0.0,0.0,0.0,0.0,0.0,0.0,0.0,0.0,0.0,0.0,0.0,0.0,0.0,0.0,0.0,0.0,0.0,0.0,0.0,0.0,0.0,0.0,0.0,0.0,0.0,0.0,0.0,0.0,0.0,0.0,0.0,0.0,0.0,0.0,0.0,0.0,0.0,0.0,0.0,0.0,0.0,0.0,0.0,0.0,0.0,0.0,0.0,0.0,0.0,0.0,0.0,0.0,0.0,0.0,0.0,0.0,0.0,0.0,0.0,0.0,0.0,0.0,0.0,0.0,0.0,0.0,0.0,0.0,0.0,0.0,0.0,0.0,0.0,0.0,0.0,0.0,0.0,0.0,0.0,0.0,0.0,0.0,0.0,0.0,0.0,0.0,0.0,0.0,0.0,0.0,0.0,0.0,0.0,0.0,0.0,0.0,0.0,0.0,0.0,0.0,0.0,0.0,0.0,0.0,0.0,0.0,0.0,0.0,0.0,0.0,0.0,0.0,0.0,0.0,0.0,0.0,0.0,0.0,0.0,0.0,0.0,0.0,0.0,0.0,0.0,0.0,0.0,0.0,0.0,0.0,0.0,0.0,0.0,0.0,0.0,0.0,0.0,0.0,0.0,0.0,0.0,0.0,0.0,0.0,0.0,0.0,0.0,0.0,0.0,0.0,0.0,0.0,0.0,0.0,0.0,0.0,0.0,0.0,0.0,0.0,0.0,0.0,0.0,0.0,0.0,0.0,0.0,0.0,0.0,0.0,0.0,0.0,0.0,0.0,0.0,0.0,0.0,0.0,0.0,0.0,0.0,0.0,0.0,0.0,0.0,0.0,0.0,0.0,0.0,0.0,0.0,0.0,0.0,0.0,0.0,0.0,0.0,0.0,0.0,0.0,0.0,0.0,0.0,0.0,0.0,0.0,0.0,0.0,0.0,0.0,0.0,0.0,0.0,0.0,0.0,0.0,0.0,0.0,0.0,0.0,0.0,0.0,0.0,0.0,0.0,0.0,0.0,0.0,0.0,0.0,0.0,0.0,0.0,0.0,0.0,0.0,0.0,0.0,0.0,0.0,0.0,0.0,0.0,0.0,0.0,0.0,0.0,0.0,0.0,0.0,0.0,0.0,0.0,0.0,0.0,0.0,0.0,0.0,0.0,0.0,0.0,0.0,0.0,0.0,0.0,0.0,0.0,0.0,0.0,0.0,0.0,0.0,0.0,0.0,0.0,0.0,0.0,0.0,0.0,0.0,0.0,0.0,0.0,0.0,0.0,0.0,0.0,0.0,0.0,0.0,0.0,0.0,0.0,0.0,0.0,0.0,0.0,0.0,0.0,0.0,0.0,0.0,0.0,0.0,0.0,0.0,0.0,0.0,0.0,0.0,0.0,0.0,0.0,0.0,0.0,0.0,0.0,0.0,0.0,0.0,0.0,0.0,0.0,0.0,0.0,0.0,0.0,0.0,0.0,0.0,0.0,0.0,0.0,0.0,0.0,0.0,0.0,0.0,0.0,0.0,0.0,0.0,0.0,0.0,0.0,0.0,0.0,0.0,0.0,0.0,0.0,0.0,0.0,0.0,0.0,0.0,0.0,0.0,0.0,0.0,0.0,0.0,0.0,0.0,0.0,0.0,0.0,0.0,0.0,0.0,0.0,0.0,0.0,0.0,0.0,0.0,0.0,0.0,0.0,0.0,0.0,0.0,0.0,0.0,0.0,0.0,0.0,0.0,0.0,0.0,0.0,0.0,0.0,0.0,0.0,0.0,0.0,0.0,0.0,0.0,0.0,0.0,0.0,0.0,0.0,0.0,0.0,0.0,0.0,0.0,0.0,0.0,0.0,0.0,0.0,0.0,0.0,0.0,0.0,0.0,0.0,0.0,0.0,0.0,0.0,0.0,0.0,0.0,0.0,0.0,0.0,0.0,0.0,0.0,0.0,0.0,0.0,0.0,0.0,0.0,0.0,0.0,0.0,0.0,0.0,0.0,0.0,0.0,0.0,0.0,0.0,0.0,0.0,0.0,0.0,0.0,0.0,0.0,0.0,0.0,0.0,0.0,0.0,0.0,0.0,0.0,0.0,0.0,0.0,0.0,0.0,0.0,0.0,0.0,0.0,0.0,0.0,0.0,0.0,0.0,0.0,0.0,0.0,0.0,0.0,0.0,0.0,0.0,0.0,0.0,0.0,0.0,0.0,0.0,0.0,0.0,0.0,0.0,0.0,0.0,0.0,0.0,0.0,0.0,0.0,0.0,0.0,0.0,0.0,0.0,0.0,0.0,0.0,0.0,0.0,0.0,0.0,0.0,0.0,0.0,0.0,0.0,0.0,0.0,0.0,0.0,0.0,0.0,0.0,0.0,0.0,0.0,0.0,0.0,0.0,0.0,0.0,0.0,0.0,0.0,0.0,0.0,0.0,0.0,0.0,0.0,0.0,0.0,0.0,0.0,0.0,0.0,0.0,0.0,0.0,0.0,0.0,0.0,0.0,0.0,0.0,0.0,0.0,0.0,0.0,0.0,0.0,0.0,0.0,0.0,0.0,0.0,0.0,0.0,0.0,0.0,0.0,0.0,0.0,0.0,0.0,0.0,0.0,0.0,0.0,0.0,0.0,0.0,0.0,0.0,0.0,0.0,0.0,0.0,0.0,0.0,0.0,0.0,0.0,0.0,0.0,0.0,0.0,0.0,0.0,0.0,0.0,0.0,0.0,0.0,0.0,0.0,0.0,0.0,0.0,0.0,0.0,0.0,0.0,0.0,0.0,0.0,0.0,0.0,0.0,0.0,0.0,0.0,0.0,0.0,0.0,0.0,0.0,0.0,0.0,0.0,0.0,0.0,0.0,0.0,0.0,0.0,0.0,0.0,0.0,0.0,0.0,0.0,0.0,0.0,0.0,0.0,0.0,0.0,0.0,0.0,0.0,0.0,0.0,0.0,0.0,0.0,0.0,0.0,0.0,0.0,0.0,0.0,0.0,0.0,0.0,0.0,0.0,0.0,0.0,0.0,0.0,0.0,0.0,0.0,0.0,0.0,0.0,0.0,0.0,0.0,0.0,0.0,0.0,0.0,0.0,0.0,0.0,0.0,0.0,0.0,0.0,0.0,0.0,0.0,0.0,0.0,0.0,0.0,0.0,0.0,0.0,0.0,0.0,0.0,0.0,0.0,0.0,0.0,0.0,0.0,0.0,0.0,0.0,0.0,0.0,0.0,0.0,0.0,0.0,0.0,0.0,0.0,0.0,0.0,0.0,0.0,0.0,0.0,0.0,0.0,0.0,0.0,0.0,0.0,0.0,0.0,0.0,0.0,0.0,0.0,0.0,0.0,0.0,0.0,0.0,0.0,0.0,0.0,0.0,0.0,0.0,0.0,0.0,0.0,0.0,0.0,0.0,0.0,0.0,0.0,0.0,0.0,0.0,0.0,0.0,0.0,0.0,0.0,0.0,0.0,0.0,0.0,0.0,0.0,0.0,0.0,0.0,0.0,0.0,0.0,0.0,0.0,0.0,0.0,0.0,0.0,0.0,0.0,0.0,0.0,0.0,0.0,0.0,0.0,0.0,0.0,0.0,0.0,0.0,0.0,0.0,0.0,0.0,0.0,0.0,0.0,0.0,0.0,0.0,0.0,-4.0411,0.0,0.0,0.0,0.0,0.0,0.0,0.0,0.0,0.0,0.0,0.0,0.0,0.0,0.0,0.0,0.0,0.0,0.0,0.0,0.0,0.0,0.0,0.0,0.0,-3.0131,-3.1276,-3.289,-3.3034,-3.3732,-3.5346,0.0,0.0,0.0,0.0,0.0,-3.3283,-3.4054,-3.4075,-3.319,-3.2778,-3.2858,-3.3336,-3.2981,-3.2698,-3.2527,0.0,0.0,0.0,0.0,0.0,0.0,0.0,0.0,0.0,0.0,0.0,0.0,0.0,0.0,0.0,0.0,0.0,0.0,0.0,0.0,0.0,0.0,0.0,0.0,0.0,0.0,0.0,0.0,0.0,0.0,0.0,0.0,0.0,0.0,0.0,0.0,0.0,0.0,0.0,0.0,0.0,0.0,0.0,0.0,0.0,0.0,0.0,0.0,0.0,0.0,0.0,0.0,0.0,0.0,0.0,0.0,0.0,0.0,0.0,0.0,0.0,0.0,0.0,0.0,0.0,0.0,0.0,0.0,0.0,0.0,0.0,-4.0187,0.0,0.0,0.0,0.0,0.0,0.0,0.0,0.0,0.0,0.0,0.0,0.0,0.0,0.0,0.0,0.0,0.0,0.0,0.0,0.0,0.0,-2.7695,-2.8762,-2.9891,-3.1009,-3.1989,-3.2064,-3.2708,-3.4162,-3.4271,0.0,0.0,0.0,-3.458,-3.3201,-3.3431,-3.3027,-3.1917,-3.1702,-3.165,-3.185,-3.185,-3.1977,-3.2194,-3.2526,0.0,0.0,0.0,0.0,0.0,0.0,0.0,0.0,0.0,0.0,0.0,0.0,0.0,0.0,0.0,0.0,0.0,0.0,0.0,0.0,0.0,0.0,0.0,0.0,0.0,0.0,0.0,0.0,0.0,0.0,0.0,0.0,0.0,0.0,0.0,0.0,0.0,0.0,0.0,0.0,0.0,0.0,0.0,0.0,0.0,0.0,0.0,0.0,0.0,0.0,0.0,0.0,0.0,0.0,0.0,0.0,0.0,0.0,0.0,0.0,0.0,0.0,0.0,-4.1893,-4.1893,-4.1893,-4.1773,-4.1713,-4.1713,-4.1713,-4.1294,-4.0576,-4.0457,0.0,0.0,0.0,0.0,0.0,0.0,0.0,0.0,0.0,0.0,0.0,0.0,0.0,0.0,0.0,0.0,0.0,0.0,0.0,-2.7695,-2.8762,-2.9891,-3.0859,-3.1436,-3.1486,-3.182,-3.2474,-3.2525,0.0,0.0,-3.3994,-3.3953,-3.2216,-3.3554,-3.3698,-3.2483,-3.1888,-3.1309,-3.0798,-3.0798,-3.0837,-3.0921,-3.2625,-3.3335,-3.3215,0.0,0.0,0.0,0.0,0.0,0.0,0.0,0.0,0.0,0.0,0.0,0.0,0.0,0.0,0.0,0.0,0.0,0.0,0.0,0.0,0.0,0.0,0.0,0.0,0.0,0.0,0.0,0.0,0.0,0.0,0.0,0.0,0.0,0.0,0.0,0.0,0.0,0.0,0.0,0.0,0.0,-3.7234,-3.7799,0.0,0.0,0.0,0.0,0.0,0.0,0.0,0.0,0.0,0.0,0.0,0.0,0.0,-4.2491,-4.3021,-4.3658,-4.3928,-4.3928,-4.3928,-4.3928,-4.3898,-4.329,-4.305,-4.305,-4.305,0.0,-4.1205,-4.0636,0.0,0.0,0.0,0.0,0.0,0.0,0.0,0.0,0.0,0.0,0.0,0.0,0.0,0.0,0.0,0.0,0.0,0.0,0.0,0.0,0.0,-2.9478,-3.0382,-3.0909,-3.121,-3.1486,-3.1738,-3.2039,-3.2215,-3.2215,-3.325,-3.3142,-3.1689,-3.2345,-3.2161,-3.1033,-3.0393,-3.0385,-3.094,-3.094,-3.1224,-3.1785,-3.2608,-3.2573,-3.1825,-3.1257,0.0,0.0,0.0,0.0,0.0,0.0,0.0,0.0,0.0,0.0,0.0,0.0,0.0,0.0,0.0,0.0,0.0,0.0,0.0,0.0,0.0,0.0,0.0,0.0,0.0,0.0,0.0,0.0,0.0,0.0,0.0,0.0,0.0,0.0,0.0,0.0,0.0,0.0,0.0,-3.6469,-3.8076,-3.7979,-3.9291,-4.0209,0.0,0.0,0.0,0.0,0.0,0.0,0.0,0.0,0.0,-4.3449,-4.3449,-4.3778,-4.4436,-4.4736,-4.4855,-4.4855,-4.4855,-4.4676,-4.4317,-4.4018,-4.3648,-4.329,-4.329,-4.2961,-4.2432,-4.1773,-4.1055,-4.0367,0.0,0.0,0.0,0.0,-3.9373,-3.9379,0.0,0.0,0.0,0.0,0.0,0.0,0.0,0.0,0.0,0.0,0.0,0.0,-2.7237,-2.8313,-2.9239,-2.9896,-3.0065,-3.0441,0.0,-3.1315,-3.1547,-3.1989,-3.2416,-3.219,-3.121,-3.106,-3.0583,-2.9804,-2.9352,-2.9707,-3.082,-3.082,-3.123,-3.1865,-3.1865,-3.1594,-3.1076,-3.0504,-3.0569,0.0,0.0,0.0,0.0,0.0,0.0,0.0,0.0,0.0,0.0,0.0,0.0,0.0,0.0,0.0,0.0,0.0,0.0,0.0,0.0,0.0,0.0,0.0,0.0,0.0,0.0,0.0,0.0,0.0,0.0,0.0,0.0,0.0,0.0,0.0,0.0,0.0,0.0,-3.6498,-3.8081,-3.7623,-3.9443,-4.0675,0.0,0.0,0.0,0.0,0.0,0.0,-4.2663,-4.3379,-4.4137,-4.4796,-4.4825,-4.5155,-4.5813,-4.5813,-4.5813,-4.5813,-4.5633,-4.5304,-4.4825,-4.4466,-4.4047,-4.3529,-4.3349,-4.329,-4.323,-4.2641,-4.1811,-4.0876,-4.0726,-4.0247,-3.9679,-3.9679,-3.9559,-3.9373,0.0,0.0,0.0,0.0,0.0,0.0,0.0,0.0,0.0,0.0,0.0,-2.5092,-2.5137,-2.6039,-2.7098,-2.8131,-2.7307,-2.7825,0.0,0.0,-2.9755,-3.137,-3.1461,-3.121,-3.0658,-3.0131,-2.9854,-2.9804,-2.9754,-2.9793,-2.9856,-2.9856,-2.9895,-2.9934,-2.9934,-3.0895,-3.2483,-3.1805,-3.1233,-3.0821,0.0,0.0,0.0,0.0,0.0,0.0,0.0,0.0,0.0,0.0,0.0,0.0,0.0,0.0,0.0,0.0,0.0,0.0,0.0,0.0,0.0,0.0,0.0,0.0,0.0,0.0,0.0,0.0,0.0,0.0,0.0,0.0,0.0,0.0,0.0,0.0,0.0,0.0,0.0,-3.6492,-3.7935,0.0,0.0,0.0,0.0,-4.0487,-4.1709,-4.2681,-4.3329,-4.4541,-4.5514,-4.616,-4.619,-4.6531,-4.7189,-4.7189,-4.7189,-4.7189,-4.6561,-4.6219,-4.613,-4.4885,-4.4287,-4.4227,-4.3559,-4.329,-4.323,-4.2641,-4.2351,-4.2231,-4.1602,-4.0935,-4.0337,-4.0337,-3.9948,-3.9373,0.0,0.0,0.0,0.0,0.0,-2.3636,-2.3547,-2.3747,-2.3837,-2.3787,-2.3912,-2.4041,-2.4041,-2.4646,-2.5379,-2.605,-2.6052,-2.658,-2.7883,0.0,-2.8467,-2.9731,-2.9445,-2.9332,-2.9488,-2.9702,-2.9804,-2.9804,-2.9804,-2.9804,-2.9804,-2.9804,-2.9804,-2.9804,-2.9804,-3.0177,-3.0745,-3.011,-3.0073,-3.0413,-3.0133,-3.019,0.0,0.0,0.0,0.0,0.0,0.0,0.0,0.0,0.0,0.0,0.0,0.0,0.0,0.0,0.0,0.0,0.0,0.0,0.0,0.0,0.0,0.0,0.0,0.0,0.0,0.0,0.0,0.0,0.0,0.0,0.0,0.0,0.0,0.0,0.0,0.0,0.0,-3.8441,-3.939,0.0,-4.024,-4.0568,-4.0876,-4.1141,-4.2268,-4.31,-4.3296,-4.4527,-4.5127,-4.5004,-4.5813,-4.5772,-4.4886,-4.5689,-4.5689,-4.4858,-4.4613,-4.43,-4.3828,-4.3373,-4.2719,-4.1995,-4.1725,-4.1454,-4.1085,-4.0857,-4.1436,-4.2381,-4.2141,-4.1354,-4.0397,-4.0397,-3.9978,-3.9373,0.0,0.0,0.0,0.0,-2.3325,-2.3465,-2.3295,-2.3236,-2.3144,-2.3018,-2.2956,-2.2917,-2.2746,-2.3281,-2.3928,-2.4434,-2.4613,-2.5147,-2.6192,-2.6393,-2.6954,-2.8034,-2.7733,-2.7713,-2.8075,-2.8458,-2.887,-2.9248,-2.9248,-2.9404,-2.9804,-2.9804,-2.9804,-2.9804,-2.9804,-2.9804,-2.9779,-2.9578,-2.9694,-3.0088,-3.042,-3.0627,-3.0721,0.0,0.0,0.0,0.0,0.0,0.0,0.0,0.0,0.0,0.0,0.0,0.0,0.0,0.0,0.0,0.0,0.0,0.0,0.0,0.0,0.0,0.0,0.0,0.0,0.0,0.0,0.0,0.0,0.0,0.0,0.0,0.0,0.0,0.0,-3.7209,-3.8208,-3.9346,-4.0143,-4.0726,-4.1133,-4.1176,-4.1208,-4.1421,-4.2393,-4.309,-4.3259,-4.4414,-4.4936,-4.4572,-4.522,-4.4987,-4.376,-4.4415,-4.4349,-4.3504,-4.3504,-4.3283,-4.2849,-4.2609,-4.2058,-4.1259,-4.089,-4.0504,-4.0161,-3.9968,-4.0562,-4.154,-4.154,-4.0752,-3.9644,-3.9614,-3.906,-3.8331,0.0,0.0,0.0,-2.3095,-2.2802,-2.2698,-2.3162,-2.2086,-2.1444,-2.1899,-2.191,-2.1719,-2.1229,-2.1973,-2.2747,-2.3363,-2.2833,-2.3388,-2.5561,-2.512,-2.5252,-2.6359,-2.6483,-2.6483,-2.6442,-2.6483,-2.6994,-2.8044,-2.8044,-2.8609,-2.9702,-2.9702,-2.9702,-2.9702,-2.9702,-2.974,-2.979,-3.0342,-3.0306,-3.0007,-3.198,-3.2056,-3.1134,0.0,0.0,0.0,0.0,0.0,0.0,0.0,0.0,0.0,0.0,0.0,0.0,0.0,0.0,0.0,0.0,0.0,0.0,0.0,0.0,0.0,0.0,0.0,0.0,0.0,0.0,0.0,0.0,0.0,0.0,0.0,0.0,0.0,-3.648,-3.7888,-3.8894,-3.8969,-3.9873,-4.0526,-4.0551,-4.0551,-4.0752,-4.125,-4.1983,-4.2599,-4.3126,-4.4354,-4.5056,-4.5029,-4.4529,-4.4248,-4.4145,-4.3712,-4.3436,-4.3361,-4.3361,-4.3361,-4.3333,-4.2708,-4.2387,-4.2304,-4.1141,-4.0591,-4.058,-4.0002,-3.9782,-3.9826,-3.9869,-3.9167,-3.809,-3.8104,-3.7302,-3.6212,0.0,0.0,-2.2644,-2.3045,-2.3094,-2.2901,-2.2366,-2.228,-2.1983,-2.1108,-2.1529,-2.1602,-2.084,-2.125,-2.1605,-2.183,-2.1961,-2.246,-2.3346,0.0,-2.3714,-2.4016,-2.561,-2.6088,-2.5294,-2.6088,-2.6648,-2.6912,-2.6912,-2.7098,-2.7383,-2.7383,-2.7383,-2.7424,-2.8227,-2.8569,-2.8673,-3.004,-3.0758,-3.1025,-3.1584,-3.1589,-3.1309,0.0,0.0,0.0,0.0,0.0,0.0,0.0,0.0,0.0,0.0,0.0,0.0,0.0,0.0,0.0,0.0,0.0,0.0,0.0,0.0,0.0,0.0,0.0,0.0,0.0,0.0,0.0,0.0,0.0,0.0,0.0,-3.6935,-3.7688,-3.8165,-3.8617,-3.917,-3.9973,-4.0325,-4.0676,-4.1025,-4.1075,-4.1125,-4.1275,-4.1853,-4.2325,-4.2477,-4.3185,-4.3426,-4.3014,-4.3729,-4.3306,-4.1544,-4.2303,-4.2063,-4.0743,-4.0743,-4.0743,-4.0743,-4.0538,-4.0255,-3.9866,-3.9068,-3.8501,-3.8136,-3.7568,-3.7335,-3.752,-3.9254,-3.9167,-3.809,-3.8104,-3.7302,-3.6212,0.0,-2.2121,-2.2794,-2.3371,-2.3038,-2.2594,-2.2303,-2.2125,-2.1768,-2.0958,-2.1445,-2.1621,-2.0918,-2.1074,-2.1112,-2.0977,-2.1523,-2.1992,-2.2227,-2.2988,-2.3496,-2.3627,-2.473,-2.5059,-2.441,-2.4828,-2.5316,-2.5797,-2.5797,-2.6005,-2.6524,-2.6524,-2.6524,-2.6524,-2.7157,-2.7441,-2.7528,-2.9165,-3.0212,-3.077,-3.1472,-3.1888,-3.2064,-3.1838,-3.1738,-3.1662,-3.1135,-3.1135,-3.1336,-3.1035,0.0,0.0,0.0,0.0,0.0,0.0,0.0,0.0,0.0,0.0,0.0,0.0,0.0,0.0,0.0,0.0,0.0,0.0,0.0,0.0,0.0,0.0,0.0,0.0,-3.814,-3.8994,-3.9798,-3.9697,-3.9973,-4.1078,-4.1204,-4.143,-4.1982,-4.1806,-4.1781,-4.2007,-4.2108,-4.2313,-4.2539,-4.2811,-4.2891,-4.2564,-4.3051,-4.2616,-4.1204,-4.149,-4.108,-4.0049,-3.9798,-3.9697,-3.9697,-3.9697,-3.9521,-3.917,-3.8366,-3.7814,-3.7462,-3.6732,-3.6405,0.0,0.0,0.0,0.0,0.0,-3.5565,-3.4911,0.0,-2.2531,-2.3371,-2.3904,-2.2973,-2.2293,-2.2648,-2.1977,-2.1369,-2.123,0.0,-2.1777,-2.1249,-2.119,-2.1055,-2.0644,-2.1426,-2.2012,0.0,0.0,-2.4023,-2.4394,-2.4004,-2.3789,-2.3789,-2.3315,-2.3584,-2.4617,-2.4617,-2.5126,-2.611,-2.611,-2.611,-2.611,-2.6254,-2.634,-2.6471,-2.8063,-2.9077,-2.9796,-3.1234,-3.2329,-3.3018,-3.2516,-3.2315,-3.224,-3.1763,-3.1587,-3.1587,-3.1587,0.0,0.0,0.0,0.0,0.0,0.0,0.0,0.0,0.0,0.0,0.0,0.0,0.0,0.0,0.0,0.0,0.0,0.0,0.0,0.0,0.0,0.0,0.0,0.0,-3.9521,-4.0249,-4.1279,-4.1003,-4.1053,-4.2087,-4.2213,-4.2414,-4.2911,-4.259,-4.2514,-4.2936,-4.259,-4.2514,-4.2961,0.0,0.0,0.0,0.0,-4.2263,-4.2213,-4.1128,-4.0576,-4.0501,-3.9948,-3.9697,-3.9697,-3.9697,-3.9697,-3.9647,-3.8492,-3.8015,-3.7914,-3.6857,-3.638,-3.6254,-3.5633,-3.5107,-3.46,-3.3495,-3.3111,-3.3111,0.0,-2.3441,-2.3879,-2.3979,-2.3869,-2.3503,-2.2799,-2.2819,-2.2493,-2.135,-2.1914,-2.209,-2.1288,-2.119,-2.1055,-2.0644,-2.168,-2.2832,0.0,0.0,-2.4336,-2.4414,-2.4004,-2.3789,-2.3789,-2.3315,-2.3212,-2.343,-2.343,-2.356,-2.3777,-2.3777,-2.3777,-2.38,-2.4723,-2.5296,-2.5678,-2.6943,-2.7974,-2.8855,-2.9167,-3.0815,-3.3111,-3.2943,-3.2918,-3.2893,-3.2792,-3.2784,-3.2784,-3.2784,-3.2441,-3.2064,-3.2064,0.0,0.0,0.0,0.0,0.0,0.0,0.0,0.0,0.0,0.0,0.0,0.0,0.0,0.0,0.0,0.0,0.0,0.0,0.0,0.0,-3.9998,-4.0651,-4.1254,-4.1907,-4.1961,-4.1961,-4.2187,-4.2213,-4.2414,-4.2911,-4.2942,-4.2861,-4.2961,-4.2886,-4.2861,-4.2961,-4.2986,-4.2986,-4.2986,-4.2861,-4.2665,-4.2213,-4.1505,-4.0899,-4.0501,0.0,0.0,-3.9697,-3.9697,-3.9697,-3.9647,-3.8492,-3.8015,-3.7914,-3.6857,-3.6107,-3.5608,-3.5056,-3.4781,-3.46,-3.3495,-3.3111,-3.3111,-2.5374,-2.481,-2.4481,-2.4757,-2.4044,-2.3372,-2.3158,-2.2843,-2.2331,-2.1623,-2.2109,-2.2344,-2.1873,-2.1444,-2.1112,-2.0918,-2.1894,0.0,0.0,-2.4629,-2.4844,-2.5011,-2.4668,-2.4434,-2.4434,-2.3789,-2.3457,-2.3457,-2.3457,-2.3457,-2.3477,-2.3672,-2.3725,-2.3769,-2.4331,-2.4719,-2.4966,-2.6101,-2.7039,-2.7778,-2.8365,-2.9643,-3.1335,-3.1909,-3.2568,-3.3111,-3.3111,-3.3111,-3.3111,-3.3111,-3.2893,-3.2641,-3.2641,-3.2641,-3.2641,0.0,0.0,0.0,0.0,0.0,0.0,0.0,0.0,0.0,0.0,0.0,0.0,0.0,0.0,-3.7613,-3.8994,0.0,-4.0049,-4.1153,-4.158,-4.1932,-4.2539,-4.2615,-4.2615,-4.2615,-4.2615,-4.274,-4.2961,-4.2986,-4.2986,-4.2986,-4.2986,-4.2986,-4.2986,-4.2986,-4.2986,-4.2986,-4.2986,-4.2836,-4.2615,-4.2032,-4.148,-4.0874,-4.0375,-3.9948,-3.9697,-3.9697,-3.9697,-3.9647,-3.8492,-3.8015,-3.7914,-3.6857,-3.6207,-3.5881,-3.5052,-3.455,-3.4198,-3.3395,-3.3111,-3.3111,-2.7131,-2.6179,-2.5431,-2.5569,-2.4382,-2.3448,-2.3495,-2.285,-2.2228,-2.1958,-2.2187,-2.2422,-2.25,-2.1775,-2.1385,0.0,0.0,0.0,0.0,-2.4961,-2.5352,-2.5674,-2.5312,-2.5106,-2.5106,-2.4316,-2.3906,-2.3906,-2.3906,-2.3906,-2.3926,-2.4258,-2.4414,-2.4414,-2.4414,-2.4473,-2.4578,-2.5523,-2.6202,-2.6755,-2.7656,-2.8422,-2.9189,-3.0395,-3.1645,-3.2742,-3.3025,-3.3111,-3.3111,-3.3111,-3.3111,-3.3111,-3.3111,-3.3111,-3.3111,-3.3111,-3.3111,0.0,0.0,0.0,0.0,0.0,0.0,0.0,0.0,-3.6235,-3.6611,-3.8316,-3.8642,-3.9094,-4.0576,-4.0827,-4.1153,-4.2213,-4.2363,-4.2514,-4.2911,-4.2986,-4.2986,-4.2986,-4.2986,-4.2986,-4.2986,-4.2986,-4.2986,-4.2986,-4.2986,-4.2986,-4.2986,-4.2986,-4.2986,-4.2986,-4.2986,-4.2986,-4.2986,-4.2333,-4.1781,-4.1275,-4.0676,-4.0124,-3.9697,-3.9697,-3.9697,-3.9647,-3.8492,-3.7889,-3.7613,-3.6782,-3.6405,-3.6304,-3.5152,-3.4449,-3.3972,-3.3319,-3.3111,-3.3111,0.0,-2.7225,-2.7025,-2.5794,-2.5877,-2.5508,-2.3759,-2.3771,-2.3431,-2.2063,-2.1934,-2.209,-2.248,-2.209,-2.2109,-2.2934,0.0,0.0,-2.4941,-2.541,-2.5635,-2.5693,-2.5312,-2.5106,-2.5106,-2.459,-2.4355,-2.4355,-2.4355,-2.4355,-2.4355,-2.4394,-2.4414,-2.4414,-2.4414,-2.4629,-2.5047,-2.5189,-2.5444,-2.5838,-2.5983,-2.6751,-2.7908,-2.9143,-3.035,-3.1533,-3.2698,-3.3111,-3.3111,-3.3111,-3.3111,-3.3111,-3.3111,-3.3111,-3.3111,-3.3111,-3.3111,-3.3111,-3.3111,-3.3111,-3.3445,-3.4931,-3.4981,-3.5504,0.0,-3.8843,-3.8969,-4.0573,-4.0924,-4.1178,-4.1911,-4.2037,-4.2238,-4.2785,-4.2886,-4.2911,-4.2961,-4.2986,-4.2986,-4.2986,-4.2986,-4.2986,-4.2986,-4.2986,-4.2986,-4.2986,-4.2986,-4.2986,-4.2986,-4.2986,-4.2986,-4.2986,-4.2986,-4.2986,-4.2986,-4.1957,-4.1351,-4.1275,-4.0275,-3.9747,-3.9697,-3.9697,-3.9697,-3.9647,-3.8492,-3.7437,-3.6581,-3.6455,-3.6405,-3.6304,-3.5152,-3.4675,-3.45,-3.347,-3.3111,-3.3111,0.0,-2.8395,-2.8088,-2.7025,-2.6136,-2.5335,-2.4492,-2.3802,-2.3105,-2.2469,-2.2286,-2.2324,-2.25,-2.2363,-2.25,-2.3149,-2.3599,-2.416,-2.5047,-2.5488,-2.5693,-2.5693,-2.5566,-2.5449,-2.5449,-2.5019,-2.4805,-2.4805,-2.4805,-2.4805,-2.4805,-2.5059,-2.5148,-2.5148,-2.5148,-2.5293,-2.5449,-2.5449,-2.5566,-2.5693,-2.5693,-2.6014,-2.6716,-2.868,-2.9715,-3.0418,-3.237,-3.3111,0.0,0.0,-3.3111,-3.3111,-3.3111,-3.3111,-3.3111,-3.3111,-3.3111,-3.3144,-3.347,-3.3796,-3.4349,-3.568,-3.6081,-3.6784,-3.9145,-3.9521,-3.9823,-4.148,-4.1806,-4.1982,-4.259,-4.269,-4.2766,-4.2936,-4.2986,-4.2986,-4.2986,-4.2986,-4.2986,-4.2986,-4.2986,-4.2986,-4.2986,-4.2986,-4.2986,-4.2986,-4.2986,-4.2986,-4.2986,-4.2986,-4.2986,-4.2986,-4.2986,-4.2986,-4.2986,-4.2208,-4.1656,-4.1275,-4.0551,-3.9998,-3.9697,-3.9697,-3.9346,-3.8668,-3.7864,-3.7086,-3.6405,-3.6405,-3.6405,-3.6304,-3.5152,-3.468,-3.46,-3.3495,-3.3111,-3.3111,0.0,-2.9041,-2.8809,-2.7874,-2.6603,-2.5592,-2.5087,-2.4062,-2.3318,-2.3345,-2.3002,-2.2698,-2.2656,-2.2676,-2.2812,-2.3125,-2.3652,-2.4219,-2.4844,-2.541,-2.5693,-2.5693,-2.5693,-2.5693,-2.5693,-2.541,-2.5254,-2.5254,-2.5254,-2.5254,-2.5254,-2.5538,-2.5693,-2.5693,-2.5693,-2.5693,-2.5693,-2.5693,-2.5693,-2.5693,-2.5693,-2.5693,-2.5965,-2.8448,-2.9396,-2.9715,-3.2196,-3.3111,0.0,0.0,-3.3111,-3.3111,-3.3111,-3.3111,-3.3111,-3.3111,-3.3111,-3.3194,-3.3746,-3.4198,-3.4826,-3.6232,-3.6885,-3.7663,-3.9496,-4.0049,-4.0526,-4.1936,-4.2338,-4.2564,-4.2911,-4.2986,-4.2986,-4.2986,-4.2986,-4.2986,-4.2986,-4.2986,-4.2986,-4.2986,-4.2986,-4.2986,-4.2986,-4.2986,-4.2986,-4.2986,-4.2986,-4.2986,-4.2986,-4.2986,-4.2986,-4.2986,-4.2986,-4.2986,-4.2986,-4.2283,-4.1731,-4.1275,-4.0626,-4.0074,-3.9697,-3.9546,-3.8944,-3.7965,-3.7412,-3.6933,-3.6405,-3.6405,-3.6405,-3.6304,-3.5152,-3.468,-3.46,-3.3495,-3.3111,-3.3111,0.0,0.0,-2.8953,-2.7893,-2.767,-2.701,-2.5276,-2.4945,-2.4938,-2.4925,-2.396,-2.3207,-2.3114,-2.3081,-2.3081,-2.3101,-2.3906,-2.4414,-2.4434,-2.5206,-2.5693,-2.5693,-2.5693,-2.5693,-2.5693,-2.5674,-2.5674,-2.5674,-2.5674,-2.5674,-2.5674,-2.5674,-2.5693,-2.5693,-2.5693,-2.5693,-2.5693,-2.5693,-2.5693,-2.5693,-2.5693,-2.5693,-2.5965,-2.8448,-2.9396,-2.9715,-3.2196,0.0,0.0,-3.3111,-3.3111,-3.3111,-3.3111,-3.3111,-3.3111,-3.3111,-3.3111,-3.3194,-3.3746,-3.3897,-3.4449,-3.6609,-3.7161,-3.7764,-3.9973,-4.0902,-4.1455,-4.2087,-4.264,-4.2961,-4.2986,-4.2986,-4.2986,-4.2986,-4.2986,-4.2986,-4.2986,-4.2986,-4.2986,-4.2986,-4.2986,-4.2986,-4.2986,-4.2986,-4.2986,-4.2986,-4.2986,-4.2986,-4.2986,-4.2986,-4.2986,-4.2986,-4.2986,-4.2986,-4.2986,-4.1907,-4.13,-4.1275,-4.0249,-3.9722,-3.9672,-3.9145,-3.8567,-3.7965,-3.7412,-3.6933,-3.6405,-3.6405,-3.6405,-3.6304,-3.5152,-3.468,-3.46,-3.3495,-3.3111,-3.3111,0.0,0.0,0.0,-2.9392,-2.846,-2.7504,-2.6875,-2.5767,-2.5146,-2.5475,-2.5189,0.0,0.0,0.0,0.0,0.0,-2.3828,-2.4238,-2.4805,-2.5137,-2.543,-2.5674,-2.5693,-2.5693,-2.5693,-2.5693,-2.5693,-2.5693,-2.5693,-2.5693,-2.5693,-2.5693,-2.5693,-2.5693,-2.5693,-2.5693,-2.5693,-2.5693,-2.5898,-2.6182,-2.6742,-2.7119,-2.7614,-2.976,-3.0574,-3.0822,0.0,0.0,0.0,-3.3111,-3.3111,-3.3111,-3.3111,-3.3111,-3.3111,-3.3111,-3.3345,-3.3746,-3.4299,-3.468,-3.5382,-3.7262,-3.7739,-3.8216,-4.0099,-4.0651,-4.0953,-4.1505,-4.1756,-4.2007,-4.2414,-4.2489,-4.2615,-4.2911,-4.2986,-4.2986,-4.2986,-4.2986,-4.2986,-4.2986,-4.2986,-4.2986,-4.2986,-4.2986,0.0,-4.2986,-4.2986,-4.2986,-4.2986,-4.2986,-4.2986,-4.2986,-4.2986,-4.2986,-4.2986,-4.1882,-4.1275,-4.1275,-4.0224,-3.9697,-3.9672,-3.8718,-3.8191,-3.7965,-3.7036,-3.6581,-3.6405,-3.6405,-3.6405,-3.6304,-3.5152,-3.468,-3.46,-3.3495,-3.3111,-3.3111,0.0,0.0,0.0,0.0,0.0,0.0,0.0,0.0,0.0,0.0,0.0,0.0,0.0,0.0,0.0,0.0,0.0,-2.4023,-2.4617,-2.4949,-2.5195,-2.5488,-2.5596,-2.5693,-2.5693,-2.5693,-2.5693,-2.5693,-2.5693,-2.5693,-2.5693,-2.5693,-2.5693,-2.5693,-2.5693,-2.5693,-2.5693,-2.5693,-2.6123,-2.6878,-2.7392,-2.7984,-2.8812,-3.0534,-3.1223,0.0,0.0,0.0,0.0,-3.3111,-3.3111,-3.3111,-3.3111,-3.3111,-3.3162,-3.3319,-3.3621,-3.4073,-3.4781,-3.5232,-3.5884,-3.7588,-3.8015,-3.8391,-3.9898,-4.0375,-4.0626,-4.0924,-4.115,-4.1401,-4.1806,-4.2062,-4.2313,-4.269,-4.2836,-4.2986,-4.2986,-4.2986,-4.2986,-4.2986,-4.2986,-4.2986,-4.2986,-4.2986,-4.2986,-4.2986,-4.2986,-4.2986,-4.2986,-4.2986,-4.2986,-4.2986,-4.2986,-4.2942,-4.274,-4.1781,-4.11,-4.0752,-4.0023,-3.9697,-3.9647,-3.8517,-3.8015,-3.7939,-3.6883,-3.6405,-3.6405,-3.6405,-3.6405,-3.6304,-3.5152,-3.468,-3.46,-3.3495,-3.3111,-3.3111,0.0,0.0,0.0,0.0,0.0,0.0,0.0,0.0,0.0,0.0,0.0,0.0,0.0,0.0,0.0,0.0,0.0,0.0,-2.3879,-2.4597,0.0,-2.5106,-2.5469,-2.5674,-2.5693,-2.5693,-2.5693,-2.5693,-2.5693,-2.5693,-2.5693,-2.5693,-2.5693,-2.5693,-2.5693,-2.5742,-2.5771,-2.5771,-2.6544,-2.7715,-2.7788,-2.847,-2.9669,-3.0866,0.0,0.0,0.0,0.0,-3.3111,-3.3111,-3.3111,-3.3111,-3.3111,-3.3136,-3.3219,-3.3746,-3.3947,-3.4198,-3.5207,-3.5508,-3.5934,-3.7563,-3.799,-3.8291,-3.9396,-4.0074,-4.0475,-4.0475,-4.0824,-4.12,-4.1225,-4.1731,-4.2162,-4.2213,-4.2665,-4.2986,-4.2986,-4.2986,-4.2986,-4.2986,-4.2986,-4.2986,-4.2986,-4.2986,-4.2986,-4.2986,0.0,-4.2986,-4.2986,-4.2986,-4.2986,-4.2986,-4.2986,-4.271,-4.2213,-4.158,-4.0752,-3.9697,-3.9697,-3.9697,-3.9647,-3.8517,-3.8015,-3.7939,-3.6883,-3.6405,-3.6405,-3.6405,-3.6405,-3.6304,-3.5152,-3.468,-3.46,-3.3495,-3.3111,-3.3111,0.0,0.0,0.0,0.0,0.0,0.0,0.0,0.0,0.0,0.0,0.0,0.0,0.0,0.0,0.0,0.0,0.0,0.0,-2.4975,-2.4481,0.0,-2.5086,-2.5176,-2.5391,-2.5674,-2.5693,-2.5693,-2.5693,-2.5693,-2.5693,-2.5693,-2.5693,-2.5693,-2.5693,-2.5693,-2.6255,-2.7125,-2.7125,-2.8005,-2.9443,0.0,-3.0672,-3.1362,0.0,0.0,0.0,0.0,0.0,-3.3111,-3.3111,-3.3111,-3.3111,-3.3111,-3.3345,-3.3721,-3.3847,-3.4474,-3.5132,-3.5433,-3.5855,-3.6358,-3.7186,-3.7688,-3.8191,-3.8919,-3.9496,-3.9898,-3.9898,-4.0023,-4.0249,-4.0651,-4.1178,-4.1681,-4.2137,-4.2665,-4.2986,-4.2986,-4.2986,-4.2986,-4.2986,-4.2986,-4.2986,-4.2986,-4.2986,-4.2986,0.0,-4.2986,-4.2986,-4.2986,-4.2986,-4.2986,-4.2986,-4.2986,-4.271,-4.2213,-4.1204,-4.0375,-3.9697,-3.9697,-3.9697,-3.9647,-3.8517,-3.8015,-3.7939,-3.6883,-3.6405,-3.6405,-3.6405,-3.6405,-3.6304,-3.5152,-3.468,-3.46,-3.3495,-3.3111,-3.3111,0.0,0.0,0.0,0.0,0.0,0.0,0.0,0.0,0.0,0.0,0.0,0.0,0.0,0.0,0.0,0.0,0.0,0.0,0.0,-2.5695,-2.5599,-2.5537,-2.5987,-2.6024,-2.5723,-2.5693,-2.5693,-2.5693,0.0,0.0,-2.5693,-2.6304,-2.6524,-2.6572,-2.7078,-2.772,-2.8402,-2.8402,0.0,0.0,0.0,0.0,0.0,0.0,0.0,0.0,0.0,-3.3244,-3.3445,-3.3445,-3.3445,-3.347,-3.3721,-3.4022,-3.4299,-3.455,-3.5006,-3.5558,-3.583,-3.6132,-3.6531,-3.7036,-3.7412,-3.7789,-3.8366,-3.8919,-3.932,-3.932,-3.9521,-3.9798,-4.0099,-4.0802,-4.1376,-4.1756,-4.2459,-4.2986,-4.2986,-4.2986,-4.2986,-4.2986,-4.2986,-4.2986,-4.2986,-4.2986,-4.2986,-4.2986,-4.2986,-4.2986,-4.2986,-4.2986,-4.2986,-4.2986,-4.2986,-4.261,-4.1806,-4.0701,-3.9998,-3.9697,-3.9697,-3.9697,-3.9647,-3.8517,-3.8015,-3.7939,0.0,-3.6405,-3.6405,-3.6405,-3.6405,-3.6329,-3.5403,-3.4881,-3.4625,-3.3746,-3.3294,-3.3111,0.0,0.0,0.0,0.0,0.0,0.0,0.0,0.0,0.0,0.0,0.0,0.0,0.0,0.0,0.0,0.0,0.0,0.0,0.0,0.0,0.0,-2.6502,-2.7285,-2.7253,-2.6187,-2.6187,-2.6187,-2.6187,0.0,0.0,0.0,0.0,0.0,0.0,0.0,0.0,0.0,0.0,0.0,0.0,0.0,0.0,0.0,0.0,0.0,0.0,-3.3111,-3.3395,-3.3822,-3.3947,-3.3997,-3.4098,-3.4575,-3.4731,-3.4881,-3.5357,-3.5558,-3.5708,-3.6279,-3.6405,-3.6531,-3.7008,-3.7136,-3.7312,-3.7789,-3.8341,-3.8768,-3.8894,-3.9245,-3.9597,-3.9672,-4.0526,-4.12,-4.1275,-4.2208,-4.2886,-4.2961,-4.2986,-4.2986,-4.2986,-4.2986,-4.2986,-4.2986,-4.2986,-4.2986,-4.2986,-4.2986,-4.2986,-4.2986,-4.2986,-4.2936,-4.2861,-4.2811,-4.2258,-4.1175,-4.0199,-3.9697,-3.9697,-3.9697,-3.9647,-3.9546,-3.8492,-3.7965,-3.7839,-3.6857,-3.6405,-3.6405,-3.6405,-3.6405,-3.6355,-3.5755,-3.5207,-3.4705,-3.4123,-3.3596,-3.3212,0.0,0.0,0.0,0.0,0.0,0.0,0.0,0.0,0.0,0.0,-3.2013,0.0,0.0,0.0,0.0,0.0,0.0,0.0,0.0,0.0,0.0,-2.8322,-2.8499,-2.863,-2.8751,-2.8773,-2.8773,-2.8773,-2.8773,0.0,0.0,0.0,0.0,0.0,0.0,0.0,0.0,0.0,0.0,0.0,0.0,0.0,0.0,0.0,0.0,0.0,-3.3111,-3.3187,-3.3345,-3.4274,-3.4575,-3.46,-3.47,-3.4981,-3.5382,-3.5483,-3.5855,-3.6279,-3.638,-3.6405,-3.643,-3.6531,-3.6883,-3.7211,-3.7312,-3.7764,-3.8291,-3.8768,-3.8994,-3.9145,-3.9622,-4.0224,-4.0802,-4.12,-4.1882,-4.2514,-4.2911,-4.2986,-4.2986,-4.2986,-4.2986,-4.2986,-4.2986,-4.2986,-4.2986,0.0,-4.2986,-4.2986,-4.2986,-4.2986,-4.2816,-4.2363,-4.1856,-4.1304,-4.0676,-4.0023,-3.9697,-3.9697,-3.9697,-3.9446,-3.9045,-3.8316,-3.7764,-3.7287,-3.6681,0.0,-3.6405,-3.6405,-3.6405,-3.6355,-3.5755,-3.5433,-3.5232,-3.4274,-3.3847,-3.3696,0.0,0.0,0.0,0.0,0.0,0.0,0.0,0.0,0.0,0.0,-3.3773,-3.3482,0.0,0.0,0.0,0.0,0.0,0.0,0.0,0.0,0.0,0.0,0.0,-2.9849,-2.9396,-2.9396,-2.9396,-2.9396,0.0,-2.9396,-2.9396,-3.0033,-3.035,-3.035,-3.1045,-3.1645,0.0,0.0,0.0,0.0,0.0,0.0,0.0,0.0,0.0,0.0,0.0,-3.3445,-3.3972,-3.4198,-3.4474,-3.4781,-3.5403,-3.5755,-3.5981,-3.5981,-3.6157,-3.6405,-3.6405,-3.6405,-3.6405,-3.6405,-3.6606,-3.6807,-3.6807,-3.7186,-3.7739,-3.8291,-3.8668,-3.9044,-3.9597,-4.0149,-4.0601,-4.0824,-4.1379,-4.1932,-4.2514,-4.2615,-4.2715,-4.2936,-4.2986,-4.2986,-4.2986,-4.2986,-4.2986,-4.2986,-4.2986,-4.2986,-4.2986,-4.2766,-4.2489,-4.2213,-4.1354,-4.0724,-4.0526,-3.9973,-3.9697,-3.9697,-3.9697,-3.9396,-3.8894,-3.8266,-3.7713,-3.7161,-3.6656,-3.6405,-3.6405,-3.6405,-3.6405,-3.638,-3.6081,-3.5805,-3.5433,-3.4906,-3.4399,-3.3847,0.0,0.0,0.0,0.0,0.0,0.0,0.0,-3.3155,-3.3784,-3.4592,-3.54,-3.5524,-3.4512,-3.3916,-3.3584,0.0,0.0,0.0,0.0,0.0,0.0,0.0,0.0,-3.1178,-3.0237,0.0,0.0,-3.0192,-3.0192,0.0,0.0,0.0,0.0,0.0,-3.3122,-3.3615,-3.3471,0.0,0.0,0.0,0.0,-3.3376,0.0,0.0,0.0,0.0,0.0,-3.3897,-3.45,-3.4173,-3.4349,-3.4876,-3.573,-3.6081,-3.6182,-3.6182,-3.6329,-3.6405,-3.6405,-3.6405,-3.6405,-3.6405,-3.6405,-3.6405,-3.6405,-3.6757,-3.7186,-3.7864,-3.8366,-3.8894,-3.9572,-4.0049,-4.0375,-4.0501,-4.0924,-4.153,-4.2137,-4.2313,-4.2539,-4.2936,-4.2986,-4.2986,-4.2986,-4.2986,-4.2986,-4.2986,-4.2986,-4.2936,-4.2811,-4.2439,-4.2112,-4.1861,-4.0978,-4.045,-4.035,-3.9898,-3.9697,-3.9697,-3.9697,-3.9346,-3.8668,-3.8216,-3.7638,-3.6985,-3.6606,-3.6405,0.0,-3.6405,-3.6405,-3.6405,-3.6405,-3.6107,-3.5658,-3.5533,-3.4881,-3.4048,0.0,0.0,0.0,0.0,0.0,0.0,0.0,-3.3455,-3.3963,-3.525,-3.6477,-3.7187,-3.7045,-3.6199,-3.5515,0.0,0.0,0.0,0.0,0.0,0.0,0.0,0.0,0.0,0.0,0.0,0.0,-3.2742,-3.2742,0.0,0.0,0.0,0.0,0.0,0.0,-3.54,-3.4635,-3.5561,0.0,0.0,0.0,0.0,0.0,0.0,0.0,0.0,0.0,-3.4299,-3.4048,-3.45,-3.4675,-3.4751,-3.4851,-3.5182,-3.5583,-3.5583,-3.5981,-3.6405,-3.6405,-3.6405,-3.6405,-3.6405,-3.6405,-3.6405,-3.6405,-3.6455,-3.6782,-3.7789,-3.804,-3.8417,-3.9496,-3.9747,-3.9923,-4.0425,-4.0924,-4.153,-4.2137,-4.264,-4.2911,-4.2961,-4.2986,-4.2986,-4.2986,-4.2986,-4.2986,-4.2986,-4.2986,-4.2816,-4.2313,-4.2238,-4.176,-4.0701,-4.0576,-4.0275,-3.9772,-3.9722,-3.9697,-3.9697,-3.9697,-3.912,-3.809,-3.804,-3.7437,-3.648,-3.643,-3.6405,0.0,-3.6405,-3.6405,-3.6405,-3.6405,-3.638,-3.6279,-3.5683,-3.5132,-3.4575,0.0,0.0,0.0,0.0,0.0,0.0,0.0,-3.3759,-3.4113,-3.5878,-3.6537,-3.7135,-3.7913,-3.7623,-3.7252,0.0,0.0,0.0,0.0,0.0,0.0,0.0,0.0,0.0,0.0,0.0,-3.4692,-3.4079,-3.4692,0.0,0.0,0.0,0.0,0.0,0.0,-3.5974,-3.5614,-3.6053,0.0,0.0,0.0,0.0,0.0,0.0,0.0,0.0,0.0,0.0,-3.4374,-3.4274,-3.4223,-3.4173,-3.3847,-3.4123,-3.4675,-3.5307,-3.5658,-3.5956,-3.6329,-3.6405,-3.6405,-3.6405,-3.6405,-3.6405,-3.6405,-3.6405,-3.6732,-3.7789,-3.8015,-3.8341,-3.9496,-3.9697,-3.9772,-3.9973,-4.0199,-4.0651,-4.153,-4.1856,-4.2233,-4.2911,-4.2986,-4.2986,-4.2986,-4.2986,-4.2986,-4.2986,-4.2715,-4.2233,-4.1681,-4.1656,-4.1304,-4.0551,-4.0199,-3.9923,-3.9697,-3.9697,-3.9697,-3.9697,-3.9697,-3.9094,-3.8015,-3.8015,-3.7412,-3.6405,-3.6405,-3.6405,0.0,-3.6405,-3.6405,-3.6405,-3.6405,-3.6405,-3.638,-3.6107,-3.5479,-3.47,0.0,0.0,0.0,0.0,0.0,0.0,-3.4713,-3.4654,-3.5065,-3.6635,-3.6995,-3.7469,-3.8307,-3.8571,-3.8585,-3.8302,0.0,0.0,0.0,0.0,0.0,0.0,0.0,0.0,0.0,0.0,-3.5854,-3.5116,-3.5854,-3.6212,0.0,0.0,-3.6487,-3.6251,0.0,0.0,0.0,0.0,0.0,0.0,0.0,0.0,0.0,0.0,0.0,0.0,0.0,0.0,0.0,0.0,0.0,-3.4463,-3.3626,-3.4023,-3.4899,-3.5183,-3.5382,-3.5608,-3.6254,-3.6405,-3.6405,-3.6405,-3.6405,-3.6405,-3.6405,-3.6405,-3.6732,-3.7789,-3.8015,-3.8341,-3.9496,-3.9697,-3.9697,-3.9697,-3.9973,-4.045,-4.1175,-4.1551,-4.2108,-4.2886,-4.2891,-4.2866,-4.2961,-4.2986,-4.2986,-4.2986,-4.2514,-4.1907,-4.13,-4.1125,-4.0852,-4.03,-3.9898,-3.9697,-3.9697,-3.9697,-3.9697,-3.9697,-3.9521,-3.8944,-3.799,-3.7839,-3.7236,-3.6405,-3.6405,-3.6405,0.0,-3.6405,-3.6405,-3.6405,-3.6405,-3.6405,-3.6405,-3.6405,-3.5655,-3.468,0.0,0.0,0.0,0.0,0.0,0.0,0.0,-3.6313,-3.6956,-3.7499,-3.8178,-3.8527,-3.8407,-3.899,-3.9373,-3.9373,0.0,0.0,0.0,0.0,0.0,0.0,0.0,0.0,0.0,0.0,-3.6212,-3.6172,-3.6212,-3.6212,-3.6251,-3.7291,-3.7214,-3.629,0.0,0.0,0.0,0.0,0.0,0.0,0.0,0.0,0.0,0.0,0.0,0.0,0.0,0.0,0.0,0.0,0.0,0.0,0.0,-3.5352,-3.6729,-3.5193,-3.5082,-3.5608,-3.6254,-3.6405,-3.6405,-3.6405,-3.6405,-3.6405,-3.6405,-3.6405,-3.6732,-3.7789,-3.8015,-3.8341,-3.9496,-3.9697,-3.9697,-3.9697,-4.0601,-4.1275,-4.1275,-4.2283,-4.2961,-4.2986,-4.2539,-4.2439,-4.2936,-4.2986,-4.2986,-4.2986,-4.2514,0.0,-4.13,-4.0827,-4.0275,-3.9722,-3.9697,-3.9697,-3.9697,-3.9697,-3.9697,-3.9697,-3.9145,-3.8567,-3.799,-3.7437,-3.6885,-3.6405,-3.6405,-3.6405,0.0,-3.6405,-3.6405,-3.6405,-3.6405,-3.6405,-3.6405,-3.6405,-3.5655,-3.468,0.0,0.0,0.0,0.0,0.0,0.0,0.0,-3.6933,-3.7377,-3.8961,-3.9343,-3.9628,-3.9951,-4.0186,-4.006,-3.9445,0.0,0.0,0.0,0.0,0.0,0.0,0.0,0.0,0.0,0.0,-3.8003,-3.7291,-3.8003,-3.8368,-3.8405,-3.873,-3.8694,-3.8405,-3.909,-3.9228,0.0,0.0,0.0,0.0,0.0,0.0,0.0,0.0,0.0,0.0,0.0,0.0,0.0,0.0,0.0,0.0,0.0,0.0,0.0,-3.6356,-3.6807,-3.7397,-3.796,-3.8416,-3.8559,-3.7769,-3.754,-3.7381,-3.6593,-3.6405,-3.6732,-3.7789,-3.8015,-3.8341,-3.9496,-3.9697,-3.9823,-4.0199,-4.0551,-4.1053,-4.1781,-4.2263,-4.2615,-4.2936,-4.2866,-4.2785,-4.2961,0.0,-4.2866,-4.2489,-4.1907,-4.1354,-4.0802,-4.0249,-3.9873,-3.9697,-3.9697,-3.9697,-3.9697,-3.9697,-3.9496,-3.912,-3.8994,-3.8366,-3.7437,-3.7262,-3.6933,-3.6405,-3.6405,-3.6405,0.0,-3.6405,-3.6405,-3.6405,-3.6405,-3.6405,-3.6405,-3.6405,-3.5655,-3.468,0.0,0.0,0.0,0.0,0.0,0.0,0.0,-3.8137,-3.858,-4.0124,-4.0324,-4.0537,-4.1138,-4.1164,-4.0961,-4.0413,0.0,0.0,0.0,0.0,0.0,0.0,0.0,0.0,0.0,-3.9053,-3.9053,-3.8397,-3.9053,-3.9373,-3.9373,-3.9373,-3.9373,-3.9373,-3.9373,-3.9373,0.0,0.0,0.0,0.0,0.0,0.0,0.0,0.0,0.0,0.0,0.0,0.0,0.0,0.0,0.0,0.0,0.0,0.0,0.0,0.0,-3.8145,-3.8944,-3.8894,-3.9373,-3.9711,-3.8961,-3.8783,-3.8469,-3.7335,-3.701,-3.7202,-3.7862,-3.8015,-3.8341,-3.9496,-3.9697,-3.9798,-4.0149,-4.0375,-4.0827,-4.1731,-4.2087,-4.2338,-4.269,-4.2861,-4.2811,0.0,-4.2534,-4.2434,-4.1882,-4.1329,-4.0824,-4.0526,-3.9998,-3.9697,-3.9697,-3.9697,-3.9697,-3.9697,-3.9496,-3.922,-3.8919,-3.8442,-3.7864,-3.7186,-3.696,-3.6732,-3.6405,-3.6405,-3.6405,0.0,-3.6405,-3.6405,-3.6405,-3.6405,-3.6405,-3.6405,-3.6405,-3.5655,-3.468,0.0,0.0,0.0,0.0,0.0,0.0,0.0,0.0,0.0,0.0,-4.1082,-4.135,-4.2044,-4.2077,-4.2078,0.0,0.0,0.0,0.0,0.0,0.0,0.0,0.0,0.0,0.0,-3.9373,-3.9373,-3.9373,-3.9373,-3.9373,-3.9373,-3.9373,-3.9373,-3.9373,-3.9373,-3.9373,0.0,0.0,0.0,0.0,0.0,0.0,0.0,0.0,0.0,0.0,0.0,0.0,0.0,0.0,0.0,0.0,0.0,0.0,0.0,0.0,0.0,0.0,0.0,-3.9574,-4.0074,-4.0015,-4.0015,-3.9711,-3.8514,-3.8243,0.0,-3.8104,-3.8038,-3.839,-3.9421,-3.9647,-3.9672,-3.9747,-4.0174,-4.0701,-4.12,-4.1806,-4.2213,-4.2213,-4.2665,-4.2509,-4.1401,-4.1806,-4.1856,-4.1275,-4.0802,-4.0501,-4.045,-3.9973,-3.9672,-3.9647,-3.9647,-3.9647,-3.9647,-3.9094,-3.8844,-3.8793,-3.7688,-3.7161,-3.7111,-3.6631,-3.6405,0.0,-3.6405,0.0,0.0,-3.6405,-3.6405,-3.6405,-3.6405,-3.6405,-3.6405,-3.6405,-3.568,-3.4731,0.0,0.0,0.0,0.0,0.0,0.0,0.0,0.0,0.0,0.0,-4.1984,-4.2245,-4.2914,-4.2986,0.0,0.0,0.0,0.0,0.0,0.0,0.0,0.0,0.0,0.0,0.0,-3.9373,-3.9373,-3.9373,-3.9373,-3.9373,-3.9373,-3.9373,-3.9373,-3.9373,-3.9373,-3.9373,0.0,0.0,0.0,0.0,0.0,0.0,0.0,0.0,0.0,0.0,-3.9254,-3.9077,0.0,0.0,0.0,0.0,0.0,0.0,0.0,0.0,-3.9675,-4.0465,-4.0713,0.0,-4.173,-4.1306,-4.1211,-4.0916,0.0,-3.9492,-3.9356,-3.8798,-3.8673,-3.8777,-3.9045,-3.9069,-3.9346,-4.0199,-4.0425,-4.0701,-4.12,-4.1806,-4.2213,-4.2213,-4.2313,-4.2082,-4.1351,-4.1401,-4.1304,-4.0752,-4.0601,-4.0325,-3.9898,-3.9772,-3.9496,-3.9069,-3.9069,-3.9069,-3.9069,-3.8492,-3.799,-3.7588,-3.7312,-3.7008,-3.6606,-3.6455,-3.6405,-3.6405,-3.6405,0.0,-3.6405,-3.6405,-3.6405,-3.6405,-3.6405,-3.6405,-3.6405,-3.6405,-3.5931,-3.5232,0.0,0.0,0.0,0.0,0.0,0.0,0.0,0.0,0.0,0.0,0.0,0.0,0.0,0.0,0.0,0.0,0.0,0.0,0.0,0.0,0.0,0.0,0.0,0.0,-3.9409,-3.9373,-3.9373,-3.9373,-3.9373,-3.9373,-3.9373,-3.9373,-3.9373,-3.9373,-3.9373,-3.9373,0.0,0.0,0.0,0.0,0.0,0.0,0.0,0.0,0.0,0.0,-3.9373,-3.9373,0.0,-3.9373,-3.9373,-3.9373,0.0,0.0,0.0,0.0,-3.9679,-4.0157,-4.1115,-4.2073,-4.2822,-4.2813,-4.2867,-4.2548,-4.1383,-4.09,-4.0356,-3.9169,-3.8885,-3.8799,-3.8539,-3.8693,-3.9069,-3.9672,-3.9973,-4.0325,-4.0824,-4.143,-4.1781,-4.1781,-4.1781,-4.1555,0.0,-4.0899,-4.0727,-4.0174,-4.0149,-3.9998,-3.9722,-3.9446,-3.917,-3.8919,-3.8416,-3.8216,-3.8467,-3.7914,-3.7487,-3.7186,-3.6935,-3.6707,-3.6405,-3.6405,-3.6405,-3.6405,0.0,0.0,-3.6405,-3.6405,-3.6405,-3.6405,-3.6405,-3.6405,-3.6405,-3.6405,-3.5855,-3.5082,0.0,0.0,0.0,0.0,0.0,0.0,0.0,0.0,0.0,0.0,0.0,0.0,0.0,0.0,0.0,0.0,0.0,0.0,0.0,0.0,0.0,0.0,0.0,-4.0274,-3.9409,-3.9373,-3.9373,-3.9373,-3.9373,-3.9373,-3.9373,-3.9373,-3.9373,-3.9373,-3.9373,-3.9433,0.0,0.0,0.0,0.0,0.0,0.0,0.0,0.0,0.0,0.0,0.0,0.0,0.0,-3.9373,-3.9373,-3.9373,-3.9373,0.0,0.0,0.0,0.0,0.0,-4.1025,-4.2342,-4.3439,-4.4018,-4.4227,-4.4013,-4.2956,-4.2283,-4.1311,-3.9446,-3.9077,-3.8824,-3.811,-3.8417,-3.8844,-3.8969,-3.9396,-3.9898,-4.045,-4.0874,-4.1175,-4.1175,-4.1175,0.0,-4.045,-4.04,-4.0199,-3.9722,-3.9697,-3.9647,-3.9572,-3.912,-3.8844,-3.8668,-3.7688,-3.7362,-3.7739,-3.7287,-3.7061,-3.7061,-3.6631,-3.6405,-3.6405,-3.6405,-3.6405,-3.6405,0.0,0.0,-3.6405,-3.6405,-3.6405,-3.6405,-3.6405,-3.6405,-3.6405,-3.6405,-3.573,-3.4781,0.0,0.0,0.0,0.0,0.0,0.0,0.0,0.0,0.0,0.0,0.0,0.0,0.0,0.0,0.0,0.0,0.0,0.0,0.0,0.0,0.0,0.0,-4.1462,-4.0274,-3.9409,-3.9373,-3.9373,-3.9373,-3.9373,-3.9373,-3.9373,-3.9373,-3.9373,-3.9373,-3.9373,-3.9738,-4.0247,0.0,0.0,0.0,0.0,0.0,0.0,0.0,0.0,0.0,0.0,0.0,0.0,-3.9373,-3.9373,-3.9373,-3.9373,0.0,0.0,0.0,0.0,0.0,-4.1025,-4.2342,-4.3319,-4.3409,-4.3898,-4.4127,-4.3358,-4.311,-4.2415,-4.017,-3.976,-3.9402,-3.8229,-3.809,-3.8442,-3.9421,-3.9647,-3.9898,-4.045,-4.0601,-4.0651,-4.0651,0.0,-4.0425,-3.9873,-3.9823,-3.9798,-3.9697,-3.9697,-3.9496,-3.907,-3.8919,-3.8492,-3.7462,-3.7287,-3.701,-3.6656,-3.6581,-3.6531,-3.6531,-3.6455,-3.6405,-3.6405,-3.6405,-3.6405,-3.6405,0.0,-3.6405,-3.6405,-3.6405,-3.6405,-3.6405,-3.6405,-3.6405,-3.6405,-3.6405,-3.5956,-3.5232,0.0,0.0,0.0,0.0,0.0,0.0,0.0,0.0,0.0,0.0,0.0,0.0,0.0,0.0,0.0,0.0,0.0,0.0,0.0,0.0,0.0,-4.3353,-4.2908,-4.1874,-4.013,-4.01,-3.9849,-3.9373,-3.9373,-3.9373,-3.9373,-3.9373,-3.9373,-3.9439,-3.9798,-4.0127,-4.0457,-4.1145,0.0,0.0,0.0,0.0,0.0,0.0,0.0,0.0,0.0,0.0,0.0,0.0,-3.9373,-3.9373,-3.9373,0.0,0.0,0.0,0.0,0.0,-4.0576,-4.1803,-4.2791,-4.2791,-4.4107,-4.5214,-4.4556,-4.4107,-4.316,-4.0836,-4.0106,-3.941,-3.7871,-3.7814,-3.8366,-3.9496,-3.9697,-3.9798,-4.0049,-4.0074,-4.0074,0.0,0.0,-3.9973,-3.9722,-3.9697,-3.9572,-3.927,-3.9245,-3.8994,-3.8442,-3.8115,-3.7713,-3.7211,-3.6933,-3.6656,-3.6405,-3.6405,-3.6405,-3.6405,-3.6405,-3.6405,-3.6405,-3.6405,-3.6405,-3.6405,0.0,-3.6405,-3.6405,-3.6405,-3.6405,-3.6405,-3.6405,-3.6405,-3.638,-3.6031,-3.5579,-3.4931,0.0,0.0,0.0,0.0,0.0,0.0,0.0,0.0,0.0,0.0,0.0,0.0,0.0,0.0,0.0,0.0,0.0,0.0,0.0,0.0,-4.4904,-4.3654,-4.4152,-4.3354,-4.1062,-4.0826,-4.0378,-3.9702,-3.9517,-3.9499,-3.9649,-3.9649,-3.9738,-3.9888,-4.0397,-4.0726,-4.0935,-4.1961,-4.25,0.0,0.0,0.0,0.0,0.0,0.0,0.0,0.0,0.0,0.0,0.0,0.0,0.0,0.0,0.0,0.0,-3.9373,-3.9373,-3.9559,-4.0217,-4.1235,-4.2171,-4.2171,-4.3898,-4.5472,-4.5155,-4.4556,-4.3466,-4.1243,-4.0454,-3.9536,-3.7566,-3.7739,-3.8492,-3.9371,-3.9622,-3.9697,-3.9697,-3.9697,-3.9697,-3.9697,-3.9697,-3.9697,-3.9697,-3.9572,-3.932,-3.8944,-3.8793,-3.8417,-3.7839,-3.7412,-3.7136,-3.6985,-3.6631,-3.6405,-3.6405,-3.6405,-3.6405,-3.6405,-3.6405,-3.6405,-3.6405,-3.6405,-3.6405,-3.6405,-3.6405,-3.6405,-3.6405,-3.6405,-3.6405,-3.6405,-3.6405,-3.6405,-3.6355,-3.5708,-3.5157,-3.465,0.0,0.0,0.0,0.0,0.0,0.0,0.0,0.0,0.0,0.0,0.0,0.0,0.0,0.0,0.0,0.0,0.0,0.0,0.0,0.0,-4.4621,-4.4497,-4.4564,-4.3743,-4.1949,-4.1098,-4.069,-4.0588,-3.9809,-3.9738,-4.0337,-4.0337,-4.0666,-4.1235,-4.1294,-4.1692,-4.2261,-4.2351,-4.2701,-4.317,0.0,0.0,0.0,0.0,0.0,0.0,0.0,0.0,0.0,0.0,0.0,0.0,0.0,0.0,-3.9373,-3.9373,-3.9373,-3.9559,-4.0217,-4.0905,-4.1444,-4.1444,-4.2521,-4.3648,-4.4257,-4.3828,-4.2865,-4.1159,-4.0758,-3.9997,-3.7617,-3.8065,-3.8894,-3.8919,-3.9371,-3.9697,-3.9697,0.0,-3.9697,-3.9697,-3.9697,-3.9697,-3.9697,-3.922,-3.8969,-3.8919,-3.8366,-3.7839,-3.7287,-3.7211,-3.6983,-3.648,-3.643,-3.6405,-3.6405,-3.6405,-3.6405,-3.6405,-3.6405,-3.6405,-3.6405,-3.6405,-3.6405,-3.6405,-3.6405,-3.6405,-3.6405,-3.6405,-3.6405,-3.6405,-3.6405,-3.6405,-3.6355,-3.5708,-3.5157,-3.465,0.0,0.0,0.0,0.0,0.0,0.0,0.0,0.0,0.0,0.0,0.0,0.0,0.0,0.0,0.0,0.0,0.0,0.0,0.0,0.0,-4.506,-4.4615,-4.5026,-4.4503,-4.2863,-4.1949,-4.1231,-4.069,-4.0238,-4.0456,-4.1281,-4.1679,-4.1801,-4.1648,-4.2077,-4.1869,-4.1205,-4.2051,-4.253,-4.2731,-4.291,0.0,0.0,0.0,0.0,0.0,0.0,0.0,0.0,0.0,-3.9373,-3.9373,-3.9373,-3.9373,-3.9373,-3.9373,-3.9373,-3.9469,-3.9738,-4.0576,-4.1294,-4.0876,-4.1773,-4.3,-4.4077,-4.4436,-4.4086,-4.2334,-4.1339,-4.0051,-3.7642,-3.7814,-3.8341,-3.8341,-3.8818,-3.917,-3.917,-3.9471,-3.9697,-3.9697,-3.9396,-3.917,-3.917,-3.8668,-3.8191,-3.7839,-3.7613,-3.7262,-3.6757,-3.6732,-3.6631,-3.6405,-3.6405,-3.6405,-3.6405,-3.6405,-3.6405,-3.6405,-3.6405,-3.6405,-3.6405,-3.6405,-3.6405,-3.6405,-3.6405,-3.6405,-3.6405,-3.6405,-3.6405,-3.6405,-3.6405,-3.6405,-3.638,-3.6132,-3.5705,-3.5157,0.0,0.0,0.0,0.0,0.0,0.0,0.0,0.0,0.0,0.0,0.0,0.0,0.0,0.0,0.0,0.0,0.0,0.0,-4.4615,-4.506,-4.5128,-4.4615,-4.506,-4.4865,-4.3743,-4.2583,-4.156,-4.069,-4.0298,-4.0667,-4.1779,-4.196,-4.1909,-4.1694,-4.2155,-4.1754,-4.0756,-4.1722,-4.2081,-4.2141,-4.2761,-4.2252,0.0,0.0,0.0,0.0,0.0,0.0,0.0,0.0,-3.9373,-3.9373,-3.9373,-3.9373,-3.9373,-3.9373,-3.9559,-3.9738,-3.9738,-4.0397,-4.0995,-4.0756,-4.1422,-4.244,-4.3718,-4.4377,-4.4204,-4.2446,-4.0641,-3.8918,-3.7245,-3.7387,-3.7739,-3.7739,-3.8241,-3.8592,-3.8592,-3.8919,-3.917,-3.917,-3.8818,-3.8592,-3.8592,-3.809,-3.7588,-3.7211,-3.701,-3.6807,-3.643,-3.6405,-3.6405,-3.6405,-3.6405,-3.6405,-3.6405,-3.6405,-3.6405,-3.6405,-3.6405,-3.6405,-3.6405,-3.6405,-3.6405,-3.6405,-3.6405,-3.6405,-3.6405,-3.6405,-3.6405,-3.6405,-3.6405,-3.6405,-3.6405,-3.6405,-3.6006,-3.5508,0.0,0.0,0.0,0.0,0.0,0.0,0.0,0.0,0.0,0.0,0.0,0.0,0.0,0.0,0.0,0.0,0.0,0.0,-4.4615,-4.4615,-4.4615,-4.4615,-4.4615,-4.4615,-4.4587,-4.2862,-4.1559,-4.069,-3.9844,-4.0207,-4.1674,-4.0807,-4.0793,-4.1392,-4.1392,-4.1392,-4.1392,-4.1422,-4.1422,-4.1452,-4.2111,-4.1602,0.0,0.0,0.0,0.0,0.0,0.0,0.0,0.0,-3.9373,-3.9373,-3.9373,-3.9373,-3.9403,-3.9373,-3.9888,-4.0397,-4.0397,-4.0397,-4.0546,-4.1205,-4.1384,-4.1705,-4.2991,-4.3319,-4.2906,-4.1159,-3.8438,-3.6405,-3.6405,-3.6857,-3.7186,-3.7186,-3.7638,-3.799,-3.799,-3.8015,-3.8015,-3.8015,-3.799,-3.799,-3.799,-3.7487,-3.7186,-3.7186,-3.6732,-3.6405,-3.6405,-3.6405,-3.6405,-3.6405,-3.6405,-3.6405,-3.6405,-3.6405,-3.6405,-3.6405,-3.6405,-3.6405,-3.6405,-3.6405,-3.6405,-3.6405,-3.6405,-3.6405,-3.6405,-3.6405,-3.6405,-3.6405,-3.6405,-3.6405,-3.6405,-3.6405,-3.6006,-3.5508,0.0,0.0,0.0,0.0,0.0,0.0,0.0,0.0,0.0,0.0,0.0,0.0,0.0,0.0,0.0,0.0,0.0,0.0,-4.4615,-4.4615,-4.4615,-4.4615,-4.4615,-4.4035,-4.28,-4.1531,-4.0761,-4.0504,-4.0244,-4.091,-4.2492,-4.2207,-4.1945,-4.1699,-4.1699,-4.1387,-4.0887,-4.0751,-4.1073,-4.1648,-4.1686,-4.1175,0.0,0.0,0.0,0.0,0.0,0.0,0.0,0.0,0.0,0.0,-3.9373,-3.9738,-4.0008,-3.9559,-3.9888,-4.0307,-3.9828,-3.949,-3.9284,-3.9421,-3.9567,-3.9782,-4.0109,-4.1574,-4.2222,-4.0042,-3.822,-3.6883,-3.648,-3.6531,-3.6656,-3.6656,-3.7061,-3.7437,-3.7437,-3.7764,-3.8015,-3.8015,-3.7663,-3.7437,-3.7437,-3.6935,-3.6656,-3.6656,-3.6505,-3.6405,-3.6405,-3.6405,-3.6405,-3.6405,-3.6405,-3.6405,-3.6405,-3.6405,-3.6405,-3.6405,-3.6405,-3.6405,-3.6405,-3.6405,-3.6405,-3.6405,-3.6405,-3.6405,-3.6405,-3.6405,-3.6405,-3.6405,-3.6405,-3.6405,-3.6405,-3.6405,-3.6304,-3.6056,0.0,0.0,0.0,0.0,0.0,0.0,0.0,0.0,0.0,0.0,-4.4615,-4.4615,0.0,0.0,0.0,0.0,0.0,0.0,0.0,0.0,-4.4615,-4.4615,-4.4615,-4.3948,-4.2552,-4.1818,-4.125,-4.0916,-4.0581,-4.1061,-4.2333,-4.173,-4.1214,-4.0852,-4.1206,-4.1096,-4.0721,-4.0948,-4.131,-4.1784,-4.1617,-4.1134,-4.0521,0.0,0.0,0.0,0.0,0.0,0.0,0.0,0.0,0.0,-3.9373,-3.9679,-3.9978,-3.9858,-4.0098,-4.0315,-3.9993,-3.9508,-3.9136,-3.9143,-3.9047,-3.8873,-3.8646,-3.9727,-4.0382,-3.8975,-3.7732,-3.6807,-3.6455,-3.6405,-3.6405,-3.6405,-3.6681,-3.6908,-3.6908,-3.7136,-3.7362,-3.7362,-3.7061,-3.6908,-3.6908,-3.6606,-3.6405,-3.6405,-3.6405,-3.6405,-3.6405,-3.6405,-3.6405,-3.6405,-3.6405,-3.6405,-3.6405,-3.6405,-3.6405,-3.6405,-3.6405,-3.6405,-3.6405,-3.6405,-3.6405,-3.6405,-3.6405,-3.6405,-3.6405,-3.6405,-3.6405,-3.6405,-3.6405,-3.6405,-3.6405,-3.6405,-3.6405,-3.6329,0.0,0.0,0.0,0.0,0.0,0.0,0.0,0.0,0.0,0.0,-4.4615,-4.4615,0.0,0.0,0.0,0.0,0.0,0.0,0.0,0.0,-4.4615,-4.4615,-4.4497,-4.4093,-4.3323,-4.3009,-4.2503,-4.1709,-4.0843,-4.0807,-4.1569,-4.0075,-3.9445,-3.9553,-4.0343,-4.0792,-4.0995,-4.1691,-4.1981,-4.1981,-4.1716,-4.121,-4.0547,-4.0366,0.0,0.0,0.0,0.0,0.0,0.0,0.0,0.0,-3.9373,-3.9469,-3.9619,-4.0157,-4.0337,-4.0412,-4.0416,-3.99,-3.9434,-3.9585,-3.9157,-3.8521,-3.8066,-3.7926,-3.7926,-3.7926,-3.7103,-3.6405,-3.6405,-3.6405,-3.6405,-3.6405,-3.6405,-3.6405,-3.6405,-3.6405,-3.6405,-3.6405,-3.6405,-3.6405,-3.6405,-3.6405,-3.6405,-3.6405,-3.6405,-3.6405,-3.6405,-3.6405,-3.6405,-3.6405,-3.6405,-3.6405,-3.6405,-3.6405,-3.6405,-3.6405,-3.6405,-3.6405,-3.6405,-3.6405,-3.6405,-3.6405,-3.6405,-3.6405,-3.6405,-3.6405,-3.6405,-3.6405,-3.6405,-3.6405,-3.6405,-3.6405,-3.638,-3.6207,0.0,0.0,0.0,0.0,0.0,0.0,0.0,0.0,0.0,0.0,0.0,0.0,0.0,0.0,0.0,0.0,0.0,0.0,0.0,0.0,-4.4615,-4.4615,-4.3948,-4.3502,-4.329,-4.2455,-4.1883,-4.1709,-4.0843,-4.0507,-4.0661,-3.9781,-3.9773,-4.0447,-4.0622,-4.1462,-4.2707,-4.2237,-4.1981,-4.1949,-4.1218,-4.0397,-3.9696,-3.9631,-3.9559,0.0,0.0,0.0,0.0,0.0,0.0,0.0,-3.9373,-3.9768,-4.0127,-3.9738,-4.0008,-4.0204,-3.9344,-3.8382,-3.7648,-3.7702,-3.7306,-3.6903,-3.6777,-3.6756,-3.6756,-3.6756,-3.6593,-3.6405,-3.6405,-3.6405,-3.6405,-3.6405,-3.6405,-3.6405,-3.6405,-3.6405,-3.6405,-3.6405,-3.6405,-3.6405,-3.6405,-3.6405,-3.6405,-3.6405,-3.6405,-3.6405,-3.6405,-3.6405,-3.6405,-3.6405,-3.6405,-3.6405,-3.6405,-3.6405,-3.6405,0.0,-3.6405,-3.6405,-3.6405,-3.6405,-3.6405,-3.6405,-3.6405,-3.6405,-3.6405,-3.6405,-3.6405,-3.6405,-3.6405,-3.6405,-3.6405,-3.6405,-3.6081,-3.5583,0.0,0.0,0.0,0.0,0.0,0.0,0.0,0.0,0.0,0.0,0.0,0.0,0.0,0.0,0.0,0.0,0.0,0.0,0.0,0.0,-4.4615,-4.4615,-4.415,-4.371,-4.3323,-4.2685,-4.1972,-4.1214,-4.0692,-4.0397,-4.0397,-4.0038,-4.0112,-4.0588,-4.1429,-4.2298,-4.3164,-4.3209,-4.3259,-4.3169,-4.23,-4.169,-4.1162,-4.0343,-4.0025,-3.9955,-3.9553,0.0,0.0,0.0,0.0,0.0,0.0,0.0,-3.9918,-3.9888,-3.9918,-3.9706,-3.866,-3.796,-3.737,-3.6903,-3.6574,-3.6329,-3.6031,-3.5981,-3.5981,-3.5981,-3.6182,-3.6405,-3.6405,-3.6405,-3.6405,-3.6405,-3.6405,-3.6405,-3.6405,-3.6405,-3.6405,-3.6405,-3.6405,-3.6405,-3.6405,-3.6405,-3.6405,-3.6405,-3.6405,-3.6405,-3.6405,-3.6405,-3.6405,-3.6405,-3.6405,-3.6405,-3.6405,-3.6405,-3.6405,-3.6405,-3.6405,-3.6405,-3.6405,-3.6405,-3.6405,-3.6405,-3.6405,-3.6405,-3.6405,-3.6405,-3.6405,-3.6405,-3.6405,-3.6207,-3.5981,-3.5981,-3.5629,-3.5031,0.0,0.0,0.0,0.0,0.0,0.0,0.0,0.0,0.0,0.0,0.0,0.0,0.0,0.0,0.0,0.0,0.0,0.0,0.0,-4.4615,-4.4615,-4.4615,-4.444,-4.3977,-4.3108,-4.2784,-4.1929,-4.0481,-4.0317,-4.0277,-4.0397,-4.0397,-4.0471,-4.0697,-4.2128,-4.2776,-4.2879,-4.3946,-4.4298,-4.4093,-4.3532,-4.3199,-4.2925,-4.1462,-4.0826,-4.0588,-3.9884,-3.9553,-3.9373,-3.9373,0.0,0.0,0.0,0.0,-3.9493,-4.0068,-3.9858,-3.921,-3.8323,-3.7979,-3.7515,-3.6514,-3.6329,-3.6254,-3.5633,-3.5508,-3.5483,-3.5382,-3.583,-3.6304,-3.638,-3.6405,-3.6405,-3.6405,-3.6405,-3.6405,-3.6405,-3.6405,-3.6405,-3.6405,-3.6405,-3.6405,-3.6405,-3.6405,-3.6405,-3.6405,-3.6405,-3.6405,-3.6405,-3.6405,-3.6405,-3.6405,-3.6405,-3.6405,-3.6405,-3.6405,-3.6405,-3.6405,-3.6405,-3.6405,-3.6405,-3.6405,-3.6405,-3.6405,-3.6405,-3.6355,-3.6254,-3.6254,-3.6204,-3.6128,-3.6128,-3.5805,-3.5357,-3.5357,-3.5006,-3.4525,0.0,0.0,0.0,0.0,0.0,0.0,0.0,0.0,0.0,0.0,-4.4615,-4.4615,-4.4615,-4.3978,0.0,0.0,0.0,0.0,-4.4547,0.0,0.0,-4.4615,-4.3889,-4.3078,-4.2173,-4.1392,-4.0539,-3.9589,-3.9535,-3.9828,-4.0397,-4.0397,-4.0807,-4.1564,-4.1779,-4.1954,-4.2206,-4.308,-4.3047,-4.2426,-4.3047,-4.2863,-4.2173,-4.1949,-4.1363,-4.069,-4.0554,-4.006,-3.9373,-3.9373,-3.9373,0.0,0.0,0.0,-3.9439,-3.9493,-3.9463,-3.9304,-3.8746,-3.791,-3.6962,-3.5881,-3.6006,-3.6254,-3.5633,-3.5508,-3.5357,-3.4881,-3.5232,-3.5805,-3.6329,-3.6405,-3.6405,-3.6405,-3.6405,-3.6405,-3.6405,-3.6405,-3.6405,-3.6405,-3.6405,-3.6405,-3.6405,-3.6405,-3.6405,-3.6405,-3.6405,-3.6405,-3.6405,-3.6405,-3.6405,-3.6405,-3.6405,-3.6405,-3.6405,-3.6405,-3.6405,-3.6405,-3.6405,-3.6405,-3.6405,-3.6405,-3.6405,-3.6405,-3.6405,-3.6081,-3.5608,-3.5608,-3.5332,-3.4951,-3.4951,-3.4901,-3.4826,-3.4826,-3.4474,-3.3997,0.0,0.0,0.0,0.0,0.0,0.0,0.0,0.0,0.0,0.0,0.0,-4.4615,-4.4615,-4.4282,0.0,0.0,0.0,0.0,-4.4581,-4.4615,0.0,0.0,-4.3768,-4.2862,-4.2013,-4.1131,-4.0274,-3.9373,-3.9373,-3.9948,-4.0935,-4.0935,-4.137,-4.2119,-4.2202,-4.2323,-4.2396,-4.2527,-4.2363,-4.2109,-4.2956,-4.3307,-4.3292,-4.2901,-4.2747,-4.2655,-4.1752,-4.086,-4.013,-4.013,-3.9809,-3.9373,-3.9373,0.0,0.0,0.0,-3.9373,-3.9275,-3.8851,-3.7496,-3.6227,-3.6373,-3.6141,-3.5855,-3.5558,-3.5257,-3.4981,-3.4731,-3.4675,-3.4876,-3.5755,-3.6157,-3.6405,-3.6405,-3.6405,-3.6405,-3.6405,-3.6405,-3.6405,-3.6405,-3.6405,-3.6405,-3.6405,-3.6405,-3.6405,-3.6405,-3.6405,-3.6405,-3.6405,-3.6405,-3.6405,-3.6405,-3.6405,-3.6405,-3.6405,-3.6405,-3.6405,-3.6405,-3.6405,-3.6207,-3.5906,-3.5906,-3.5906,-3.5906,-3.5906,-3.5579,-3.5031,-3.5031,-3.4906,-3.468,-3.468,-3.4525,-3.4248,-3.4248,-3.3922,-3.3445,0.0,0.0,0.0,0.0,0.0,0.0,0.0,0.0,0.0,0.0,0.0,0.0,-4.4615,0.0,0.0,0.0,0.0,0.0,-4.4282,0.0,0.0,0.0,0.0,-4.2645,-4.2013,-4.0927,-4.006,-3.9373,-3.9373,-4.0098,-4.1422,-4.1422,-4.1833,-4.262,-4.2619,-4.2462,-4.2099,-4.1954,-4.2042,-4.2334,-4.3217,-4.3935,-4.4414,-4.4281,-4.4131,-4.3986,-4.2972,-4.1784,-4.069,-4.069,-4.013,-3.9373,-3.9373,-3.9373,0.0,0.0,0.0,-3.9245,-3.8649,-3.7442,-3.6434,-3.6788,-3.638,-3.5851,-3.5529,-3.5082,-3.4675,-3.455,-3.4198,-3.4198,-3.5107,-3.578,-3.6207,-3.638,-3.6405,-3.6405,-3.6405,-3.6405,-3.6405,-3.6405,-3.6405,-3.6405,-3.6405,-3.6405,-3.6405,-3.6405,-3.6405,-3.6405,-3.6405,-3.6405,-3.6405,-3.6405,-3.6405,-3.6405,-3.6405,-3.6405,-3.6405,-3.6405,-3.6405,-3.6081,-3.5508,-3.5508,-3.5332,-3.5082,-3.5232,-3.4981,-3.4525,-3.4525,-3.4424,-3.4299,-3.4299,-3.4048,-3.3696,-3.3696,-3.342,-3.3111,0.0,0.0,0.0,0.0,0.0,0.0,0.0,0.0,0.0,0.0,0.0,0.0,-4.4615,-4.391,-4.3443,-4.3375,0.0,0.0,0.0,0.0,0.0,0.0,0.0,0.0,-4.1981,-4.0339,-3.9445,-3.9373,-3.9373,-4.0098,-4.1422,-4.1422,-4.2073,-4.32,-4.2689,-4.1738,-4.0574,-4.1392,-4.2168,-4.3006,-4.3968,-4.443,-4.4761,-4.6085,-4.5273,-4.3454,-4.405,-4.2752,-4.069,-4.069,-4.013,-3.9373,-3.9373,-3.9373,-3.9373,0.0,0.0,0.0,-3.8127,-3.8189,-3.8201,-3.669,-3.6665,-3.6727,-3.5713,-3.5082,-3.4575,-3.4048,-3.3922,-3.4073,-3.465,-3.5182,-3.5708,-3.6329,-3.6405,-3.6405,-3.6405,-3.6405,-3.6405,-3.6405,-3.6405,-3.6405,-3.6405,-3.6405,-3.6405,-3.6405,-3.6405,-3.6405,-3.6405,-3.6405,-3.6405,-3.6405,-3.6405,-3.6405,-3.6405,-3.6405,-3.6405,-3.6405,-3.6405,-3.6081,-3.5508,-3.5508,-3.4931,-3.4022,-3.455,-3.4449,-3.3947,-3.3947,-3.3646,-3.3169,-3.3169,-3.3187,-3.3162,-3.3162,-3.3093,-3.3111,0.0,0.0,0.0,0.0,0.0,0.0,0.0,0.0,0.0,0.0,0.0,0.0,0.0,-4.4316,-4.3944,-4.3443,-4.3139,0.0,0.0,0.0,0.0,0.0,0.0,0.0,-4.2013,-4.0826,-3.9955,-3.9373,-3.9373,-3.9888,-4.0756,-4.0756,-4.0995,-4.1474,-4.1654,-4.1512,-4.1003,-4.0462,-4.0712,-4.1541,-4.1907,-4.3006,-4.4467,-4.4534,-4.4653,-4.4825,-4.4591,-4.3611,-4.23,-4.1723,-4.0961,-4.0135,-3.9589,-3.9373,-3.9373,-3.9373,-3.9373,-3.9301,-3.8943,-3.8468,-3.7919,-3.703,-3.6438,-3.587,-3.5153,-3.4831,-3.4575,-3.4022,-3.3897,-3.4073,-3.4625,-3.5132,-3.5683,-3.6329,-3.6405,-3.6405,-3.6405,-3.6405,-3.6405,-3.6405,-3.6405,-3.6405,-3.6405,-3.6405,-3.6405,-3.6405,-3.6405,-3.6405,-3.6405,-3.6405,-3.6405,-3.6405,-3.6405,-3.6405,-3.6405,-3.6405,-3.6405,-3.6405,-3.6405,-3.5881,-3.4981,-3.4981,-3.4424,-3.3395,-3.3571,-3.3545,-3.337,-3.337,-3.3244,-3.3111,-3.3111,-3.3111,-3.3111,-3.3111,-3.3111,-3.3111,0.0,0.0,0.0,0.0,0.0,0.0,0.0,0.0,0.0,-4.4615,0.0,0.0,0.0,0.0,-4.4282,-4.3477,-4.3375,-4.3639,-4.4147,0.0,0.0,0.0,0.0,0.0,-4.2458,-4.1329,-4.0447,-3.9844,-3.9553,-3.9738,-4.0397,-4.0397,-4.0516,-4.0756,-4.0965,-4.1055,-4.0995,-4.0127,-4.0248,-4.1031,-4.1065,-4.2233,-4.4045,-4.4045,-4.456,-4.5297,-4.506,-4.4236,-4.3199,-4.2614,-4.1658,-4.0588,-4.0025,-3.9631,-3.9373,-3.9373,-3.9373,-3.9373,-3.9373,-3.887,-3.8214,-3.7772,-3.6825,-3.5891,-3.5352,-3.4819,-3.4399,-3.4198,-3.4022,-3.4123,-3.4831,-3.5257,-3.5683,-3.6329,-3.6405,-3.6405,-3.6405,-3.6405,-3.6405,-3.6405,-3.6405,-3.6405,-3.6405,-3.6405,-3.6405,-3.6405,-3.6405,0.0,-3.6405,-3.6405,-3.6405,-3.6405,-3.6405,-3.6405,-3.6405,-3.6405,-3.6405,-3.6405,-3.6182,-3.5604,-3.468,-3.4525,-3.3947,-3.3111,-3.3111,-3.3111,-3.3111,-3.3111,-3.3111,-3.3111,-3.3111,-3.3111,-3.3111,-3.3111,-3.3111,-3.3111,0.0,0.0,0.0,0.0,0.0,0.0,0.0,0.0,-4.4615,-4.4615,0.0,0.0,0.0,0.0,0.0,-4.3477,-4.3443,-4.3443,-4.3443,-4.4147,0.0,0.0,0.0,0.0,-4.3323,-4.1593,-4.0724,-4.069,-3.9844,-3.9738,-4.0367,-4.0367,-4.0696,-4.1294,-4.0666,-4.0367,-4.0367,-4.0367,-4.0885,-4.1678,-4.1682,-4.2359,-4.3424,-4.4869,-4.506,-4.4654,-4.5399,-4.4637,-4.332,-4.3323,-4.2173,-4.0724,-4.069,-4.0095,-3.9373,-3.9373,-3.9373,-3.9373,0.0,0.0,0.0,-3.8784,-3.7884,-3.7003,-3.6422,-3.5105,-3.4092,-3.462,-3.4299,-3.4248,-3.5307,-3.5508,-3.5683,-3.6329,-3.6405,-3.6405,-3.6405,-3.643,-3.643,-3.643,-3.6455,-3.6455,-3.643,-3.643,-3.643,-3.6405,-3.6405,-3.6405,-3.6405,-3.6405,-3.6405,-3.6405,-3.6405,-3.6405,-3.6405,-3.6405,-3.6405,-3.6405,-3.5805,-3.5207,-3.4655,-3.4148,-3.3596,-3.3111,-3.3111,-3.3111,-3.3111,-3.3111,-3.3111,-3.3111,-3.3111,-3.3111,-3.3111,-3.3111,-3.3111,-3.3111,0.0,0.0,0.0,0.0,0.0,-4.4615,-4.4615,-4.4615,-4.4615,0.0,0.0,0.0,-4.4615,-4.4615,-4.4513,-4.4282,-4.4248,-4.4248,-4.4248,-4.4479,-4.4615,-4.4615,-4.4355,-4.3948,-4.329,-4.2237,-4.133,-4.069,-3.9844,-3.9463,-3.9679,-3.9679,-3.9798,-3.9948,-3.9768,-3.9679,-3.9679,-3.9679,-4.0188,-4.09,-4.0299,-4.0979,-4.2396,-4.2815,-4.3252,-4.3772,-4.4591,-4.4643,-4.4121,-4.3502,-4.2552,-4.1396,-4.0165,-3.9559,-3.9373,-3.9373,-3.9373,-3.9373,-3.9373,0.0,0.0,0.0,0.0,0.0,-3.644,-3.5603,-3.5089,-3.5245,-3.4849,-3.47,-3.5357,-3.5508,-3.5683,-3.6329,-3.6405,-3.6405,-3.6405,-3.6757,-3.7008,-3.7008,-3.7312,-3.7387,-3.6985,-3.7008,-3.6832,0.0,-3.6405,-3.6405,-3.6405,-3.6405,-3.6405,-3.6405,-3.6405,-3.6405,-3.6405,-3.6405,-3.6405,-3.6405,-3.5805,-3.5207,-3.4655,-3.4148,-3.3596,-3.3111,-3.3111,-3.3111,-3.3111,-3.3111,-3.3111,-3.3111,-3.3111,-3.3111,-3.3111,-3.3111,-3.3111,-3.3111,0.0,0.0,0.0,0.0,0.0,-4.4615,-4.4615,-4.4615,-4.4615,0.0,0.0,0.0,-4.4615,-4.4886,-4.4953,-4.4649,-4.4615,-4.4615,-4.4615,-4.4615,-4.4615,-4.4615,-4.4615,-4.4355,-4.3827,-4.2986,-4.2141,-4.1231,-4.0378,-3.9773,-3.9373,-3.9373,-3.9373,-3.9373,-3.9373,-3.9373,-3.9373,-3.9373,-3.9702,-4.013,-3.9595,-4.0235,-4.1495,-4.1853,-4.2552,-4.3413,-4.4298,-4.4615,-4.4497,-4.4006,-4.3259,-4.2237,-4.0481,-3.992,-3.9849,-3.9517,-3.9373,-3.9373,-3.9373,-3.9373,-3.9265,-3.862,0.0,0.0,-3.7021,-3.5994,-3.5231,-3.5426,-3.4889,-3.4625,-3.5357,-3.5508,-3.5683,-3.6329,-3.6405,-3.648,-3.6732,-3.6985,-3.7262,-3.7487,-3.7814,-3.7889,-3.7563,-3.7312,-3.7061,-3.6782,-3.6531,-3.6405,-3.6405,-3.6405,-3.6405,-3.6405,-3.6405,-3.6405,-3.6405,-3.6405,-3.6279,-3.6006,-3.5454,-3.4881,-3.4349,-3.3796,-3.3395,-3.3111,-3.3111,-3.3111,-3.3111,-3.3111,-3.3111,-3.3111,-3.3111,-3.3111,-3.3111,-3.3111,-3.3111,-3.3111,0.0,0.0,-4.638,-4.5805,-4.5094,-4.4615,-4.4615,-4.4615,-4.4615,0.0,-4.4682,-4.475,-4.4852,-4.5365,-4.5432,-4.4784,-4.4649,-4.4615,-4.4615,-4.4615,-4.4615,-4.4615,-4.4615,-4.4615,-4.4615,-4.3739,-4.2862,-4.1981,-4.1129,-4.0239,-3.9373,-3.9373,-3.9373,-3.9373,-3.9373,-3.9373,-3.9373,-3.9373,-3.9373,-3.9373,-3.9373,-3.9849,-4.0656,-4.1528,-4.2395,-4.3259,-4.4121,-4.453,-4.4587,-4.4468,-4.3948,-4.3017,-4.1231,-4.069,-4.0519,-3.9631,-3.9373,-3.9373,-3.9373,-3.9373,-3.9373,-3.9373,-3.8657,0.0,-3.7994,-3.6436,-3.518,-3.5725,-3.4994,-3.4553,-3.5593,-3.5709,-3.5865,-3.6341,-3.6424,-3.6606,-3.7111,-3.7236,-3.7487,-3.804,-3.8165,-3.8165,-3.8115,-3.7663,-3.7312,-3.7186,-3.6732,-3.6405,-3.6405,-3.6405,-3.6405,-3.6405,-3.6405,-3.6405,-3.6405,-3.6405,-3.6081,-3.5483,-3.4931,-3.4424,-3.3872,-3.3319,-3.3111,-3.3111,-3.3111,-3.3111,-3.3111,-3.3111,-3.3111,-3.3111,-3.3111,-3.3111,-3.3111,-3.3111,-3.3111,-3.3111,0.0,-4.5331,-4.5162,-4.5635,-4.5094,-4.4615,-4.4615,-4.4615,-4.4615,-4.4615,-4.5128,-4.5703,-4.6312,-4.5974,-4.5635,-4.55,-4.4925,-4.4615,-4.4615,-4.4615,-4.4615,-4.4615,-4.4615,-4.4615,-4.4615,-4.3739,-4.2862,-4.1981,-4.1129,-4.0239,-3.9373,-3.9373,-3.9373,-3.9373,-3.9373,-3.9373,-3.9373,-3.9373,-3.9373,-3.9373,-3.9373,-3.9517,-3.9737,-4.0622,-4.1495,-4.2363,-4.3229,-4.4006,-4.4468,-4.3768,-4.3443,-4.3017,-4.1231,-4.069,-4.0519,-3.9631,-3.9373,-3.9373,-3.9373,-3.9373,-3.9373,-3.9373,-3.9228,0.0,-3.909,-3.8107,-3.7374,-3.7958,-3.7232,-3.6672,-3.7292,-3.7052,-3.6713,-3.6348,-3.633,-3.6606,-3.7111,-3.7563,-3.8065,-3.8642,-3.9094,-3.9195,-3.8743,-3.8617,-3.8215,-3.7262,-3.6732,-3.6405,-3.6405,-3.6405,-3.6405,-3.6405,-3.6405,-3.6405,-3.6405,-3.6405,-3.6081,-3.5483,-3.4931,-3.4424,-3.3872,-3.3319,-3.3111,-3.3111,-3.3111,-3.3111,-3.3111,-3.3111,-3.3111,-3.3111,-3.3111,-3.3111,-3.3111,-3.3111,-3.3111,-3.3111,-4.5635,-4.5399,-4.5263,-4.5635,-4.5094,-4.4615,-4.4615,-4.4615,-4.475,-4.5094,-4.6109,-4.6684,-4.6278,-4.6244,-4.6109,-4.5737,-4.5026,-4.4615,-4.4615,-4.4615,-4.4615,-4.4615,-4.4615,-4.4615,-4.4615,-4.3739,-4.2862,-4.1981,-4.1129,-4.0239,-3.9373,-3.9373,-3.9373,-3.9373,-3.9373,-3.9373,-3.9373,-3.9373,-3.9373,-3.9373,-3.9373,-3.9373,-3.9517,-4.0378,-4.1231,-4.2109,-4.2986,-4.386,-4.4525,-4.4093,-4.3948,-4.371,-4.2426,-4.1691,-4.1196,-4.0309,-3.9737,-3.9373,-3.9373,-3.9373,-3.9373,-3.9373,-3.9373,0.0,0.0,-3.8583,-3.7891,-3.8208,-3.7422,-3.6834,-3.74,-3.7259,-3.7203,-3.7515,-3.7138,-3.7149,-3.8293,-3.821,-3.8316,-3.917,-3.9521,-3.9597,-3.932,-3.9044,-3.8441,-3.7262,-3.6732,-3.6405,-3.6405,-3.6405,-3.6405,-3.6405,-3.6405,-3.6405,-3.6405,-3.6081,-3.568,-3.5082,-3.4575,-3.4022,-3.347,-3.3194,-3.3111,-3.3111,-3.3111,-3.3111,-3.3111,-3.3111,-3.3111,-3.3111,-3.3111,-3.3111,-3.3111,-3.3111,-3.3111,-3.3111,-4.55,-4.5602,-4.5703,-4.5703,-4.5297,-4.5021,-4.5021,-4.5021,-4.5263,-4.6041,-4.7158,-4.75,-4.6447,-4.6752,-4.6819,-4.638,-4.5534,-4.5021,-4.5021,-4.4886,-4.4818,-4.4818,-4.4682,-4.4682,-4.4818,-4.3839,-4.2862,-4.1981,-4.1129,-4.0239,-3.9373,-3.9373,-3.9373,-3.9373,-3.9373,-3.9373,-3.9373,-3.9373,-3.9373,-3.9373,-3.9373,-3.9373,-3.9481,-4.017,-4.0995,-4.1917,-4.2925,-4.386,-4.4615,-4.4615,-4.4615,-4.444,-4.3562,-4.2707,-4.182,-4.0961,-4.0095,-3.9373,-3.9373,-3.9373,-3.9373,-3.9373,-3.9373,-3.9373,0.0,0.0,0.0,-3.8107,-3.7405,-3.6968,0.0,0.0,0.0,-3.8533,0.0,0.0,0.0,-3.8767,0.0,-3.9424,-3.9448,-3.9371,-3.9371,-3.8868,-3.8165,-3.7262,-3.6732,-3.6405,-3.6405,-3.6405,-3.6405,-3.6405,-3.6405,-3.6355,-3.6207,-3.5755,-3.5182,-3.455,-3.4123,-3.3621,-3.3111,-3.3111,-3.3111,-3.3111,-3.3111,-3.3111,-3.3111,-3.3111,-3.3111,-3.3111,-3.3111,-3.3111,-3.3111,-3.3111,-3.3111,-3.3111,-4.4716,-4.5229,-4.5703,-4.5703,-4.6177,-4.6549,-4.6549,-4.6549,-4.6819,-4.7534,-4.7804,-4.8075,-4.8578,-4.8139,-4.7973,-4.8578,-4.7361,-4.6549,-4.6549,-4.594,-4.5568,-4.5568,-4.4925,-4.4919,-4.5568,-4.4072,-4.2862,-4.1981,-4.1129,-4.0239,-3.9373,-3.9373,-3.9373,-3.9373,-3.9373,-3.9373,-3.9373,-3.9373,-3.9373,-3.9373,-3.9373,-3.9373,-3.9409,-3.9517,-4.0095,-4.1031,-4.2707,-4.386,-4.4615,0.0,-4.4615,-4.444,0.0,-4.2707,-4.182,-4.0961,-4.0095,-3.9373,-3.9373,-3.9373,-3.9373,-3.9373,-3.9373,-3.9373,-3.9373,0.0,-3.9228,-3.9228,0.0,-3.9046,0.0,0.0,0.0,0.0,0.0,0.0,-3.8088,-3.8917,-3.9393,-3.8956,-3.85,-3.8191,-3.8191,-3.7688,-3.7312,-3.7186,-3.6732,-3.6405,-3.6405,-3.6405,-3.6405,-3.6405,-3.6405,-3.6132,-3.5608,-3.5533,-3.4981,-3.3997,-3.3922,-3.3621,-3.3111,-3.3111,-3.3111,-3.3111,-3.3111,-3.3111,-3.3111,-3.3111,-3.3111,-3.3111,-3.3111,-3.3111,-3.3111,-3.3111,-3.3111,-3.3111,-4.4784,-4.5196,-4.5703,-4.5703,-4.6312,-4.6786,-4.6786,-4.753,-4.8037,-4.7936,-4.8646,-4.9289,-4.9593,-4.8984,-4.8849,-4.956,-4.868,-4.7902,-4.7462,-4.7158,-4.6786,-4.6346,-4.5635,-4.5365,-4.5703,-4.4138,-4.3108,-4.2738,-4.1363,-4.0519,-4.0135,-3.9631,-3.9373,-3.9373,-3.9373,-3.9373,-3.9373,-3.9373,-3.9373,-3.9373,-3.9373,-3.9373,-3.9373,-3.9373,-3.992,-4.0927,-4.2676,-4.3532,-4.3919,0.0,-4.4615,0.0,0.0,0.0,0.0,-4.1098,0.0,0.0,0.0,0.0,0.0,0.0,0.0,0.0,-3.9373,0.0,-3.9373,0.0,0.0,0.0,0.0,0.0,0.0,0.0,-3.8783,0.0,0.0,0.0,-3.8961,0.0,0.0,0.0,-3.8523,-3.7673,-3.7186,-3.7186,-3.6732,-3.6405,-3.6405,-3.6405,-3.6405,-3.6405,-3.6405,-3.6107,-3.5508,-3.5182,-3.4675,-3.3897,-3.3571,-3.3294,-3.3111,-3.3111,-3.3111,-3.3111,-3.3111,-3.3111,-3.3111,-3.3111,-3.3111,-3.3111,-3.3111,-3.3111,-3.3111,-3.3111,-3.3111,-3.3119,-4.5427,-4.5805,-4.6312,-4.6312,-4.6921,-4.7394,-4.7394,-4.8308,-4.8883,-4.8545,-4.9424,-5.0168,-5.0371,-4.9932,-4.9898,-5.0642,-5.0033,-4.9289,-4.8578,-4.8311,-4.7868,-4.7124,-4.638,-4.6007,-4.6007,-4.4404,-4.3487,-4.3323,-4.1528,-4.069,-4.069,-3.9809,-3.9373,-3.9373,-3.9373,-3.9373,-3.9373,-3.9373,-3.9373,-3.9373,-3.9373,-3.9373,-3.9373,-3.9373,-3.992,-4.0894,-4.2395,-4.3108,-4.3443,-4.4327,-4.4615,0.0,-4.3562,-4.3139,-4.2645,0.0,0.0,0.0,-3.9589,0.0,0.0,0.0,0.0,0.0,0.0,0.0,0.0,0.0,0.0,0.0,0.0,0.0,0.0,-4.0068,0.0,-3.9174,0.0,-3.9237,0.0,0.0,0.0,0.0,0.0,-3.8117,-3.7461,-3.7461,-3.6821,-3.6405,-3.6405,-3.6405,-3.6405,-3.6405,-3.6405,-3.6031,-3.5282,-3.4881,-3.4374,-3.3671,-3.3269,-3.3111,-3.3111,-3.3111,-3.3111,-3.3111,-3.3111,-3.3111,-3.3111,-3.3111,-3.3111,-3.3111,-3.3111,-3.3212,-3.3294,-3.3144,-3.3169,-3.3345,-4.6718,-4.7327,-4.7804,-4.7804,-4.8443,-4.8951,-4.8951,-4.8984,-4.9255,-4.9932,-5.0067,-5.0371,-5.1116,-5.1117,-5.1454,-5.2164,-5.1555,-5.0845,-5.0067,-4.9357,-4.8646,-4.7906,-4.7158,-4.6752,-4.6752,-4.52,-4.4012,-4.3323,-4.1528,-4.069,-4.069,-3.9809,-3.9373,-3.9373,-3.9373,-3.9373,-3.9373,-3.9373,-3.9373,-3.9373,-3.9373,-3.9373,-3.9373,0.0,-3.992,-4.0826,-4.1723,0.0,0.0,-4.4327,-4.4615,0.0,0.0,0.0,0.0,0.0,0.0,0.0,0.0,0.0,0.0,-3.9373,0.0,0.0,0.0,0.0,-3.9373,0.0,0.0,0.0,0.0,0.0,-3.9403,-3.9439,-3.9403,0.0,0.0,0.0,0.0,0.0,0.0,0.0,0.0,-3.8765,-3.8043,0.0,-3.7036,-3.6405,-3.6405,-3.6405,-3.6405,-3.6405,-3.6405,-3.583,-3.4751,-3.4726,-3.4173,-3.3136,-3.3136,-3.3111,-3.3111,-3.3111,-3.3111,-3.3111,-3.3111,-3.3111,-3.3111,-3.3111,-3.3111,-3.3111,-3.3111,-3.3395,-3.3796,-3.3269,-3.342,-3.3872,-4.8274,-4.8477,-4.8477,-4.7973,-4.8511,-4.9018,-4.9018,-4.9424,-4.9999,-5.0744,-5.0845,-5.1319,-5.2604,-5.2266,-5.2232,-5.3044,-5.2875,-5.2401,-5.1623,-5.0879,-5.0371,-5.0069,-4.8443,-4.7767,-4.824,-4.6312,-4.5157,-4.4892,-4.2653,-4.156,-4.1528,-4.0095,-3.9373,-3.9373,-3.9373,-3.9373,-3.9373,-3.9373,-3.9373,-3.9373,-3.9373,-3.9373,-3.9373,0.0,-3.9559,-3.9955,-4.0826,-4.1691,0.0,-4.3472,-4.4121,-4.444,-4.3562,-4.3502,-4.3439,-4.1981,-4.1788,0.0,0.0,0.0,-4.1129,-4.1129,0.0,0.0,0.0,0.0,0.0,0.0,0.0,0.0,0.0,0.0,-3.9373,-3.9373,-3.9373,0.0,0.0,0.0,0.0,0.0,0.0,0.0,0.0,0.0,0.0,0.0,-3.7769,0.0,-3.6452,-3.6405,-3.6405,-3.6405,-3.6405,-3.583,-3.4726,-3.468,-3.4173,-3.3111,-3.3111,-3.3111,-3.3111,-3.3111,-3.3111,-3.3111,-3.3111,-3.3111,-3.3111,-3.3111,-3.3111,-3.3162,-3.347,-3.3746,-3.3872,-3.3696,-3.3972,-3.45,-4.9052,-4.9018,-4.8849,-4.8376,-4.868,-4.9018,-4.9018,-4.9627,-5.0371,-5.1083,-5.1454,-5.2097,-5.3382,-5.3044,-5.2942,-5.345,-5.3518,-5.3044,-5.1995,-5.1725,-5.1386,-5.0845,-4.9695,-4.9052,-4.9018,-4.7597,-4.6481,-4.5703,-4.3482,-4.227,-4.1949,-4.0235,-3.9373,-3.9373,-3.9373,-3.9373,-3.9439,-3.9679,-3.9768,-3.9798,-4.0038,-3.9978,0.0,0.0,-3.9619,-3.9517,0.0,-4.1031,-4.1658,-4.2552,-4.3229,-4.3499,-4.2645,-4.2769,-4.2984,-4.1853,-4.1949,-4.2332,-4.2078,-4.1981,0.0,-4.1981,-4.1756,0.0,-4.1917,0.0,-4.1462,0.0,0.0,0.0,0.0,0.0,0.0,-3.9849,-3.9595,0.0,0.0,-3.9373,0.0,0.0,0.0,-4.0996,0.0,-4.0798,-4.0161,-3.942,-3.8577,0.0,0.0,0.0,-3.6405,-3.6405,-3.6405,-3.583,-3.4726,-3.468,-3.4173,-3.3111,-3.3111,-3.3111,-3.3111,-3.3111,-3.3111,-3.3111,-3.3111,-3.3111,-3.3111,-3.3111,-3.3111,-3.3144,-3.3696,-3.4022,-3.4198,-3.4198,-3.455,-3.5056,-4.9255,-4.912,-4.912,-4.912,-4.9086,-4.9052,-4.9052,-4.9661,-5.0405,-5.1183,-5.1928,-5.2706,-5.3518,-5.3585,-5.3551,-5.3551,-5.3518,-5.2875,-5.1388,-5.1928,-5.1691,-5.0304,-5.0879,-5.0574,-4.9187,-4.9052,-4.797,-4.5872,-4.4003,-4.2751,-4.2013,-4.0235,-3.9373,-3.9373,-3.9373,-3.9439,-3.9499,-4.0127,-4.0427,-4.0516,-4.1115,-4.0995,-4.0457,-4.0457,-4.0068,-3.9607,-4.0374,-4.0656,-4.0826,-4.1658,-4.1949,-4.1853,-4.1028,-4.0758,-4.0758,-4.0758,-4.0758,-4.0961,-4.1756,-4.1981,-4.1981,-4.1981,-4.1363,0.0,0.0,0.0,-4.0995,0.0,0.0,0.0,0.0,0.0,0.0,0.0,0.0,0.0,0.0,0.0,-3.9649,0.0,0.0,-4.1632,-4.2291,-4.1876,-4.1583,-4.1529,-3.9497,-3.8172,0.0,-3.7057,-3.6452,-3.6405,-3.638,-3.5805,-3.4726,-3.4655,-3.4148,-3.3111,-3.3111,-3.3111,-3.3111,-3.3111,-3.3111,-3.3111,-3.3111,-3.3111,-3.3111,-3.3111,-3.3111,-3.3187,-3.3721,-3.4299,-3.4801,-3.4801,-3.5082,-3.5608,-5.0676,-5.0642,-5.0642,-5.0642,-5.0168,-4.983,-4.983,-5.0439,-5.1183,-5.1928,-5.3179,-5.4296,-5.5074,-5.4634,-5.4329,-5.4329,-5.3822,-5.3348,-5.2942,-5.2536,-5.2401,-5.2604,-5.1725,-5.1285,-5.1454,-4.983,-4.8714,-4.8139,-4.4754,-4.2975,-4.2782,-4.0484,-3.9373,-3.9373,-3.9373,-3.9679,-4.0157,-4.0337,-4.0696,-4.1145,-4.1362,-4.1294,-4.1115,0.0,-4.1025,-4.0793,-3.9992,-4.0135,-4.0724,-4.0961,-4.1462,-4.1949,-4.1723,-4.1658,-4.1658,-4.1658,-4.1658,-4.1723,-4.1917,-4.1981,-4.1981,-4.1981,-4.182,-4.1723,0.0,0.0,0.0,0.0,0.0,0.0,0.0,0.0,0.0,-4.0588,-3.9955,-3.9373,-3.9373,-3.9373,-3.9433,-3.9649,0.0,0.0,-4.1602,-4.1543,-4.1273,-4.0908,-4.029,0.0,0.0,0.0,0.0,-3.6452,-3.5956,-3.5429,-3.4726,-3.4324,-3.3771,-3.3111,-3.3111,-3.3111,-3.3111,-3.3111,-3.3111,-3.3111,-3.3111,-3.3111,-3.3111,-3.3111,-3.3111,-3.3169,-3.4148,-3.5102,-3.5931,-3.5931,-3.6031,-3.6182,-5.1285,-5.1726,-5.2097,-5.1758,-5.1894,-5.1826,-5.115,-5.115,-5.1488,-5.2198,-5.3348,-5.4296,-5.4702,-5.4938,-5.4938,-5.4634,-5.4228,-5.3687,-5.301,-5.2875,-5.2875,-5.2976,-5.2503,-5.2232,-5.23,-5.1082,-4.9965,-4.9018,-4.5701,-4.3746,-4.3038,-4.0576,-3.9373,-3.9373,-3.9373,-3.9619,-4.0008,-4.0576,-4.1205,-4.1871,-4.2132,-4.2073,0.0,-4.1841,-4.1662,-4.1294,-4.0546,-4.0402,-4.0558,-4.0558,-4.0693,-4.086,-4.086,-4.086,-4.0927,-4.1297,-4.1429,-4.1495,-4.1885,-4.1981,-4.1981,-4.1981,-4.1691,-4.1528,-4.1885,-4.1691,-4.1396,0.0,-4.1264,-4.1264,0.0,0.0,0.0,-4.013,-3.9737,-3.9373,-3.9373,-3.9373,-3.9373,-3.9373,-3.9738,0.0,-4.0487,-4.1055,-4.1394,-4.136,-4.0908,0.0,0.0,0.0,0.0,-3.715,-3.6084,-3.5232,-3.4726,-3.4173,-3.3621,-3.3111,-3.3111,-3.3111,-3.3111,-3.3111,-3.3111,-3.3111,-3.3111,-3.3111,-3.3111,-3.3111,-3.3262,-3.3545,-3.465,-3.5604,-3.6405,-3.6405,-3.6405,-3.6405,-5.1792,-5.2739,-5.3382,-5.2604,-5.3653,-5.416,-5.2942,-5.2198,-5.2029,-5.2672,-5.3518,-5.4093,-5.4093,-5.5141,-5.5581,-5.4938,-5.4803,-5.4126,-5.2706,-5.3247,-5.3281,-5.2503,-5.3145,-5.3179,-5.2469,-5.2367,-5.1319,0.0,-4.6683,-4.4677,-4.3166,-4.0699,-3.9463,-3.9373,-3.9373,-3.9529,-3.9768,-4.0995,-4.1931,-4.256,-4.312,-4.3,-4.253,-4.253,-4.2171,-4.1624,-4.1624,-4.1175,-4.0516,-4.0516,-4.0098,-3.9559,-3.9559,-3.9463,-3.9553,-4.0309,-4.0519,-4.069,-4.1429,-4.1658,-4.1658,-4.1658,-4.1095,-4.0724,-4.1494,-4.1095,-4.0758,-4.1495,-4.1658,-4.1691,0.0,0.0,0.0,0.0,0.0,0.0,-3.9373,-3.9373,-3.9373,-3.9373,0.0,0.0,0.0,0.0,0.0,0.0,0.0,0.0,0.0,0.0,0.0,-3.7896,-3.6411,-3.5289,-3.4625,0.0,-3.3545,-3.3111,-3.3111,-3.3111,-3.3111,-3.3111,-3.3111,-3.3111,-3.3111,-3.3111,-3.3111,-3.3111,-3.3445,-3.4123,-3.5107,-3.5881,-3.6405,-3.6405,-3.6405,-3.6405,-5.416,-5.4228,-5.416,-5.3416,-5.4025,-5.4702,-5.5074,-5.4971,-5.4972,-5.5108,-5.6292,-5.7103,-5.7103,-5.6833,-5.6562,-5.6427,-5.5852,0.0,0.0,0.0,0.0,-5.3315,-5.3416,-5.345,-5.3281,-5.2638,-5.1826,0.0,0.0,-4.5381,-4.3936,-4.1403,-3.9948,-3.9373,-3.9373,-4.0008,-4.1085,-4.1901,0.0,-4.314,-4.326,-4.323,-4.311,-4.311,-4.309,-4.2961,-4.2961,-4.2222,-4.1205,-4.1205,-4.0756,-4.0217,-4.0217,-3.9858,-3.9409,-3.9559,-3.9631,-3.9666,-3.9809,-3.9879,-3.9879,-3.9879,-3.9737,-3.9666,-3.9809,-3.9737,-3.9666,-3.9809,-3.9879,-4.0095,-4.0792,0.0,0.0,0.0,0.0,0.0,-3.9373,-3.9373,-3.9373,-3.9373,-3.9373,-3.9373,0.0,0.0,0.0,0.0,0.0,0.0,0.0,0.0,0.0,0.0,-3.6429,0.0,0.0,0.0,-3.3169,-3.3111,-3.3111,-3.3111,-3.3111,-3.3111,-3.3111,-3.3111,-3.3111,-3.3111,-3.3111,-3.3111,-3.3671,-3.465,-3.5232,-3.5881,-3.6405,-3.6405,-3.6405,-3.6405,-5.5243,-5.5175,-5.5074,-5.4702,-5.5243,-5.5852,-5.6224,-5.6596,-5.6562,-5.5818,-5.6325,-5.6765,-5.6765,-5.7137,-5.7205,-5.6833,-5.6494,-5.5953,-5.5209,-5.5175,-5.5006,-5.4668,-5.4262,-5.4059,-5.4059,-5.3315,-5.2367,-5.1185,0.0,0.0,-4.4673,0.0,-4.0217,-3.9918,-3.9918,-4.0277,-4.0935,0.0,0.0,-4.2851,-4.314,-4.329,-4.329,-4.329,-4.329,-4.329,-4.329,-4.2901,-4.2342,-4.2013,-4.1444,-4.0905,-4.0905,-4.0457,-3.9918,-3.9918,-3.9679,-3.9373,-3.9373,-3.9373,-3.9373,-3.9373,-3.9373,-3.9373,-3.9373,-3.9373,-3.9373,-3.9373,-3.9373,-3.9553,-3.9955,-4.0025,0.0,0.0,0.0,0.0,0.0,0.0,-3.9373,-3.9373,-3.9373,-3.9559,0.0,0.0,0.0,0.0,0.0,0.0,0.0,0.0,-3.9926,0.0,0.0,0.0,0.0,0.0,0.0,-3.3111,-3.3111,-3.3111,-3.3111,-3.3111,-3.3111,-3.3111,-3.3111,-3.3111,-3.3093,-3.3395,-3.3972,-3.4731,-3.5282,-3.5881,-3.6405,-3.6405,-3.6405,-3.6405,-5.5987,-5.5953,-5.5886,-5.575,-5.6325,-5.6799,-5.6799,-5.7408,-5.7476,-5.6325,-5.619,-5.619,-5.619,-5.7205,-5.7645,-5.707,-5.7036,-5.6731,-5.5987,-5.5953,-5.5886,-5.5716,-5.5141,-5.4769,-5.46,-5.4025,-5.2976,0.0,0.0,0.0,0.0,0.0,0.0,0.0,0.0,0.0,0.0,0.0,-4.247,-4.265,-4.312,-4.329,-4.329,-4.329,-4.329,-4.329,-4.329,-4.329,-4.323,-4.2731,-4.2171,-4.1632,-4.1632,-4.1145,-4.0606,-4.0606,-4.0157,-3.9619,-3.9619,-3.9493,-3.9373,-3.9373,-3.9373,-3.9373,-3.9373,-3.9373,-3.9373,-3.9373,-3.9373,-3.9373,-3.9373,-3.9373,0.0,0.0,0.0,0.0,0.0,0.0,-3.9373,-3.9373,-3.9373,-3.9619,-4.0157,0.0,0.0,0.0,0.0,0.0,-4.2171,-4.1439,-3.9951,0.0,0.0,-3.5198,-3.3721,0.0,-3.3111,-3.3111,-3.3111,-3.3111,-3.3111,-3.3111,-3.3111,-3.3111,-3.3111,-3.3111,-3.3162,-3.3796,-3.4324,-3.4801,-3.5408,-3.5981,-3.6405,-3.6405,-3.6405,-3.6405,-5.6833,-5.6697,-5.6494,-5.5818,-5.6325,-5.6799,-5.6799,-5.7408,-5.7848,-5.7712,-5.7679,-5.7679,-5.7679,-5.7814,-5.7848,-5.778,-5.778,-5.7476,-5.6765,-5.6697,-5.6393,-5.5715,-5.5614,-5.5277,-5.46,-5.4532,-5.3721,0.0,0.0,-4.7562,-4.6147,-4.3462,0.0,0.0,0.0,0.0,0.0,-4.2351,-4.2701,-4.32,-4.326,-4.329,-4.329,-4.329,-4.329,-4.329,-4.329,-4.329,-4.329,-4.323,-4.2821,-4.2321,-4.2321,-4.1871,-4.1294,-4.1294,-4.0816,-4.0307,-4.0307,-3.9858,-3.9373,-3.9373,-3.9373,-3.9373,-3.9373,-3.9373,-3.9373,-3.9373,-3.9373,-3.9373,-3.9373,-3.9373,-3.9373,0.0,0.0,0.0,0.0,0.0,-3.9373,-3.9373,-3.9373,0.0,-3.9499,-4.0098,0.0,0.0,-4.2491,0.0,-4.1534,-4.1936,-4.0412,-3.6512,0.0,-3.5799,-3.3212,-3.3136,-3.3111,-3.3111,-3.3111,-3.3111,-3.3111,-3.3111,-3.3111,-3.3111,-3.3111,-3.3111,-3.3169,-3.4198,-3.4675,-3.4826,-3.5881,-3.6355,-3.6405,-3.6405,-3.6405,-3.6405,0.0,0.0,0.0,0.0,0.0,0.0,0.0,-5.7712,-5.7881,-5.7881,-5.7881,-5.7881,-5.7881,-5.7881,-5.7881,-5.7881,-5.7881,-5.7746,-5.7476,-5.7442,-5.734,-5.7036,-5.6596,-5.6224,-5.5919,-5.504,-5.4059,0.0,0.0,-4.7882,-4.6817,-4.3799,0.0,0.0,0.0,-4.2701,-4.3,-4.3778,-4.4287,-4.4466,-4.4077,-4.3888,-4.3858,-4.3439,-4.329,-4.329,-4.329,-4.329,-4.329,-4.329,-4.311,-4.294,-4.294,-4.2491,-4.2021,-4.2021,-4.1542,-4.0905,-4.0516,-4.0217,-3.9918,-3.9529,-3.9373,-3.9373,-3.9373,-3.9373,-3.9373,-3.9373,-3.9373,-3.9373,-3.9373,-3.9373,-3.9373,-3.9373,0.0,0.0,0.0,0.0,0.0,-4.0008,0.0,-4.0008,-4.0008,0.0,0.0,0.0,0.0,0.0,-4.1482,-4.1662,0.0,-3.6318,0.0,-3.5479,-3.3111,-3.3111,-3.3111,-3.3111,-3.3111,-3.3111,-3.3111,-3.3111,-3.3111,-3.3111,-3.3111,-3.3111,-3.3119,-3.3545,-3.4123,-3.4776,-3.5203,-3.578,-3.6405,-3.6405,-3.6405,-3.6405,-5.7881,0.0,-5.7273,0.0,-5.7476,-5.7306,-5.7814,-5.7881,-5.7881,-5.7881,-5.7881,-5.7881,-5.7881,-5.7881,-5.7881,-5.7881,-5.7881,-5.7881,-5.7881,-5.7881,-5.7881,-5.7881,-5.7408,0.0,-5.6799,-5.5784,-5.4769,-5.3822,-5.0892,-4.8945,-4.7874,-4.4718,0.0,0.0,-4.3509,-4.3858,-4.3917,-4.4915,-4.5304,-4.5244,-4.4796,-4.4616,-4.4556,-4.4077,-4.3858,-4.3858,-4.3648,-4.3589,-4.3559,-4.3349,-4.329,-4.329,-4.329,-4.303,-4.2641,-4.2641,-4.2231,-4.1602,-4.1115,-4.0846,-4.0516,-3.9858,-3.9709,-3.9649,-3.9433,-3.9373,-3.9373,-3.9373,-3.9373,-3.9373,-3.9373,-3.9373,-3.9373,-3.9373,0.0,0.0,0.0,-4.0397,0.0,-4.0397,-4.0217,-4.0098,-4.0098,-4.0277,0.0,0.0,0.0,0.0,0.0,0.0,0.0,0.0,0.0,0.0,-3.3111,-3.3111,-3.3111,-3.3111,-3.3111,-3.3111,-3.3111,-3.3111,-3.3111,-3.3111,-3.3111,-3.3111,-3.3093,-3.342,-3.4022,-3.4705,-3.5077,-3.568,-3.6405,-3.6405,-3.6405,-3.6405,-5.7881,-5.7881,-5.7881,-5.7881,-5.7881,-5.7881,-5.7881,-5.7881,-5.7881,-5.7881,-5.7881,-5.7881,-5.7881,-5.7881,-5.7881,-5.7881,-5.7881,-5.7881,-5.7881,-5.7881,-5.7881,0.0,0.0,-5.7543,-5.6833,-5.6799,-5.6055,-5.4566,0.0,0.0,-4.9315,0.0,-4.5244,-4.5244,-4.5274,-4.5274,-4.5274,-4.5274,-4.5304,-4.5304,-4.5274,-4.5274,-4.5274,-4.5274,-4.5274,-4.5185,-4.4526,-4.4317,-4.4197,-4.3499,-4.329,-4.329,-4.329,-4.329,-4.329,-4.329,-4.2851,-4.2381,-4.2381,-4.1901,-4.1205,-4.0546,-4.0397,-4.0217,-3.9559,-3.9373,-3.9373,-3.9373,-3.9373,-3.9373,-3.9373,-3.9373,-3.9373,-3.9373,0.0,0.0,0.0,-4.0397,0.0,-4.0397,-3.9828,-3.9403,-3.9403,-4.0008,0.0,0.0,0.0,0.0,0.0,0.0,0.0,-3.6318,-3.6212,0.0,-3.3111,-3.3111,-3.3111,-3.3111,-3.3111,-3.3111,-3.3111,-3.3111,-3.3111,-3.3111,-3.3111,-3.3111,-3.3169,-3.4248,-3.468,-3.4826,-3.5931,-3.6405,-3.6405,-3.6405,-3.6405,-3.6405,-5.7881,-5.7881,-5.7881,-5.7881,-5.7881,-5.7881,-5.7881,-5.7881,-5.7881,-5.7881,-5.7881,-5.7881,-5.7881,-5.7881,-5.7881,0.0,-5.7881,-5.7881,0.0,-5.7881,-5.7881,-5.7881,-5.7881,-5.778,-5.7543,-5.707,-5.597,-5.4246,0.0,0.0,0.0,-4.5695,-4.5304,-4.5304,-4.5783,-4.5992,-4.6022,-4.6471,-4.6651,-4.6621,-4.6172,-4.5992,-4.5933,-4.5484,-4.5304,-4.5274,-4.5065,-4.4975,-4.4885,-4.4227,-4.3977,-4.3888,-4.3439,-4.329,-4.329,-4.329,-4.314,-4.291,-4.253,-4.2261,-4.1811,-4.0666,-4.0397,-4.0217,-3.9559,-3.9373,-3.9373,-3.9373,-3.9373,-3.9373,-3.9373,-3.9373,-3.9559,-4.0008,-4.0277,0.0,-4.1662,0.0,-4.1564,-4.1115,-4.0876,-4.0397,-3.9499,-3.9619,0.0,0.0,0.0,0.0,0.0,0.0,0.0,0.0,-3.6212,0.0,-3.3111,-3.3111,-3.3111,-3.3111,-3.3111,-3.3111,-3.3111,-3.3111,-3.3111,-3.3111,-3.3111,-3.3294,-3.3671,-3.4022,-3.46,-3.5282,-3.5633,-3.6031,-3.6405,-3.6405,-3.6405,-3.6405,-5.7881,-5.7881,-5.7881,-5.7881,-5.7881,-5.7881,-5.7881,-5.7881,-5.7881,-5.7881,-5.7881,-5.7881,-5.7881,-5.7881,0.0,-5.7881,-5.7881,-5.7881,-5.7881,-5.7881,-5.7881,-5.7881,-5.7881,-5.7881,-5.7881,-5.7442,0.0,-5.4491,-5.161,-4.8988,-4.6618,-4.6232,-4.6052,-4.6052,-4.6501,-4.6681,-4.6711,-4.713,-4.7309,-4.7279,-4.686,-4.6681,-4.6651,-4.6202,-4.6052,-4.6022,-4.5783,-4.5693,-4.5574,-4.4915,-4.4676,-4.4616,-4.4197,-4.3898,-4.3618,-4.3349,-4.329,-4.32,-4.2851,-4.2731,-4.2462,-4.1414,-4.0935,-4.0516,-3.9619,-3.9373,-3.9373,-3.9373,-3.9373,-3.9373,-3.9373,-3.9619,-3.9918,-4.0337,-4.0816,-4.1452,-4.2291,0.0,-4.1871,0.0,0.0,0.0,0.0,-3.9373,-3.9373,0.0,0.0,0.0,0.0,0.0,0.0,-3.629,-3.5814,0.0,-3.3111,-3.3111,-3.3111,-3.3111,-3.3294,-3.3495,-3.3696,-3.3696,-3.3696,-3.3696,-3.3696,-3.3897,-3.4223,-3.4424,-3.4881,-3.5508,-3.578,-3.6056,-3.6405,-3.6405,-3.6405,-3.6405,-5.7881,-5.7881,-5.7881,0.0,-5.7881,0.0,-5.7881,-5.7881,-5.7881,-5.7881,-5.7881,-5.7881,-5.7881,-5.7881,-5.7881,-5.7881,0.0,0.0,0.0,-5.7881,-5.7881,-5.7881,-5.7881,-5.7881,-5.7881,-5.7881,-5.6962,-5.4996,-5.1471,-4.9418,-4.8738,-4.7842,-4.7399,-4.7309,-4.7369,-4.7339,-4.7309,-4.7309,-4.7309,-4.7309,-4.7309,-4.7309,-4.7309,-4.7309,-4.7309,-4.7219,-4.6621,-4.6339,-4.6292,-4.5603,-4.5364,-4.5364,-4.5304,-4.4885,-4.4257,-4.3559,-4.3319,-4.329,-4.329,-4.329,-4.314,-4.256,-4.1901,-4.1055,-3.9768,-3.9463,-3.9469,-3.9403,-3.9373,-3.9403,-3.9433,-3.9978,-4.0427,-4.0516,-4.1602,-4.241,-4.247,-4.1901,-4.1482,0.0,0.0,0.0,-3.9373,-3.9373,-3.9373,0.0,0.0,0.0,0.0,0.0,-3.7887,-3.6251,-3.5278,-3.4262,-3.3111,-3.3162,-3.3144,-3.3194,-3.3721,-3.4223,-3.468,-3.468,-3.468,-3.468,-3.468,-3.4705,-3.4781,-3.5282,-3.5508,-3.5608,-3.6157,-3.6405,-3.6405,-3.6405,-3.6405,-3.6405,0.0,0.0,-5.7881,-5.7881,-5.7881,-5.7881,-5.7881,-5.7881,-5.7881,-5.7881,-5.7881,-5.7881,-5.7881,-5.7881,-5.7881,-5.7881,-5.7881,-5.7881,-5.7881,-5.7881,-5.7881,-5.7881,-5.7881,-5.7881,-5.7881,-5.7881,-5.6596,-5.3938,-5.0943,-4.9098,-4.8421,-4.8699,-4.8267,-4.7339,-4.7818,-4.7788,-4.7309,-4.7309,-4.7309,-4.7309,-4.7309,-4.7309,-4.7309,-4.7309,-4.7309,-4.7279,-4.713,-4.707,-4.698,-4.6292,-4.6082,-4.5992,-4.5454,-4.5185,-4.4945,-4.4287,-4.3678,-4.329,-4.329,-4.329,-4.314,-4.256,-4.1901,-4.1175,-4.0337,-4.0157,-4.0038,-3.9529,-3.9373,-3.9589,-4.0068,-4.0277,-4.0726,-4.1782,-4.2201,-4.256,-4.303,-4.2551,-4.1991,0.0,-4.0666,-3.9978,-3.9433,-3.9373,-3.9373,0.0,0.0,0.0,0.0,-3.7768,-3.6626,-3.6212,-3.5974,-3.4952,-3.3111,-3.3495,-3.3922,-3.4324,-3.4474,-3.46,-3.468,-3.468,-3.468,-3.468,-3.468,-3.4906,-3.5307,-3.5433,-3.578,-3.6182,-3.6355,-3.6405,-3.6405,-3.6405,-3.6405,-3.6405,-5.7881,-5.7881,-5.7881,-5.7881,-5.7881,-5.7881,-5.7881,-5.7881,-5.7881,-5.7881,-5.7881,-5.7881,-5.7881,-5.7881,-5.7881,-5.7881,-5.7881,-5.7881,-5.7881,-5.7881,-5.7881,-5.7881,-5.7881,-5.7881,-5.7881,-5.7881,-5.6483,-5.3614,-5.1002,-4.9374,-4.879,-4.9149,-4.894,-4.8207,-4.8566,-4.8356,-4.7758,-4.7758,-4.7578,-4.7309,-4.7309,-4.7309,-4.7309,-4.7309,-4.7309,-4.7309,-4.7309,-4.7309,-4.7249,-4.689,-4.677,-4.6711,-4.6322,-4.5992,-4.5693,-4.5334,-4.4515,-4.3738,-4.3738,-4.3529,-4.314,-4.256,-4.2141,-4.1692,-4.0995,-4.0846,-4.0756,-4.0397,-4.0307,-4.0427,-4.0786,-4.1085,-4.1572,-4.2291,-4.241,-4.253,-4.2851,-4.2073,0.0,-4.0965,-4.0337,-3.9798,-3.9469,-3.9373,-3.9373,-3.9373,-3.8943,0.0,-3.8657,-3.7381,-3.6586,-3.6586,-3.5681,-3.4715,-3.3822,-3.4123,-3.455,-3.5056,-3.5056,-3.5228,-3.5479,-3.5479,-3.5479,-3.5479,-3.5479,-3.5655,-3.5906,-3.5906,-3.6081,-3.6405,-3.6405,-3.6405,-3.6405,-3.6405,-3.6405,-3.6405,-5.7881,-5.7881,-5.7881,-5.7881,-5.7881,-5.7881,-5.7881,-5.7881,-5.7881,-5.7881,-5.7881,-5.7881,-5.7881,-5.7881,-5.7881,-5.7881,-5.7881,-5.7881,-5.7881,-5.7881,-5.7881,-5.7881,-5.7881,-5.7881,-5.7881,-5.7554,-5.6134,-5.3487,-5.1389,-5.0062,-4.9404,-4.9569,-4.9509,-4.9299,-4.9419,-4.9045,-4.8416,-4.8327,-4.7967,-4.7429,-4.7339,-4.7309,-4.7309,-4.7309,-4.7309,-4.7309,-4.7309,-4.7309,-4.7309,-4.7309,-4.7309,-4.7309,-4.7309,-4.692,-4.6429,-4.6429,-4.5603,-4.4586,-4.4377,-4.3798,-4.317,-4.2641,-4.256,-4.2381,-4.1722,-4.1572,-4.1542,-4.1414,-4.1422,-4.1452,-4.1504,-4.2021,-4.244,-4.253,-4.256,-4.25,-4.241,0.0,-4.0516,-4.0397,-3.9828,-3.9373,-3.9373,-3.9373,-3.9373,-3.9373,-3.8435,-3.7834,-3.792,-3.7235,-3.6948,-3.7099,-3.5262,-3.4451,-3.4851,-3.4806,-3.5082,-3.5633,-3.5633,-3.5906,-3.6405,-3.6405,-3.6405,-3.6405,-3.6405,-3.6405,-3.6405,-3.6405,-3.6405,-3.6405,-3.6405,-3.6405,-3.6405,-3.6405,-3.6405,-3.6405,-5.7881,-5.7881,-5.7881,-5.7881,-5.7881,-5.7881,-5.7881,-5.7881,-5.7881,-5.7881,-5.7881,-5.7881,-5.7881,-5.7881,-5.7881,-5.7881,-5.7881,-5.7881,-5.7881,-5.7881,-5.7881,-5.7881,-5.7881,-5.7881,-5.7881,-5.608,-5.4441,-5.3009,-5.1713,-5.0674,-5.0046,-5.0661,-5.0331,-4.9329,-4.9853,-4.9733,-4.912,-4.8506,-4.8237,-4.8087,-4.7519,-4.7309,-4.7309,-4.7309,-4.7309,-4.7309,-4.7309,-4.7309,-4.7309,-4.7309,-4.7309,-4.7309,-4.7309,-4.7249,-4.716,-4.716,-4.6621,-4.5711,-4.4616,-4.3798,-4.326,-4.317,-4.314,-4.3,-4.2381,-4.2261,-4.2081,-4.1542,-4.1422,-4.1602,-4.2141,-4.2321,-4.259,-4.309,-4.314,-4.3,-4.247,0.0,-4.1025,-4.0457,-3.9828,-3.9373,-3.9373,-3.9373,-3.9373,-3.9373,-3.8435,-3.8035,-3.8515,-3.677,-3.6183,-3.7078,-3.635,-3.5742,-3.5357,-3.5382,-3.568,-3.6279,-3.6279,-3.6329,-3.6405,-3.6405,-3.6405,-3.6405,-3.6405,-3.6405,-3.6405,-3.6405,-3.6405,-3.6405,-3.6405,-3.6405,-3.6405,-3.6405,-3.6405,-3.6405,-5.7881,-5.7881,-5.7881,-5.7881,-5.7881,-5.7881,-5.7881,-5.7881,-5.7881,-5.7881,-5.7881,-5.7881,-5.7881,-5.7335,-5.7001,-5.7001,-5.7001,-5.7001,-5.7001,-5.7554,-5.7628,-5.7001,-5.7001,-5.6701,-5.6159,-5.4547,-5.3427,-5.29,-5.1773,-5.105,-5.0734,-5.1079,-5.09,-5.0331,-5.0631,-5.0391,-4.9763,-4.9464,-4.9134,-4.882,-4.8476,-4.8356,-4.8356,-4.8356,-4.8356,-4.8327,-4.7967,-4.7848,-4.7788,-4.7429,-4.7309,-4.7309,-4.7309,-4.7309,-4.7309,-4.7309,-4.683,-4.598,-4.4676,-4.4077,-4.3738,-4.3379,-4.329,-4.323,-4.294,-4.288,-4.2791,-4.2491,-4.2432,-4.2521,-4.2821,-4.288,-4.3,-4.323,-4.303,0.0,0.0,-4.1265,-4.0606,-3.9948,-3.9619,-3.9373,-3.9373,-3.887,-3.8546,-3.8546,-3.7049,-3.6396,-3.6961,-3.5769,-3.541,-3.6186,-3.6308,-3.6233,-3.5981,-3.5981,-3.6107,-3.6405,-3.6405,-3.6405,-3.6405,-3.6405,-3.6405,-3.6405,-3.6405,-3.6405,-3.6405,-3.6405,-3.6405,-3.6405,-3.6405,-3.6405,-3.6405,-3.6405,-3.6405,-3.6405,-5.7881,-5.7881,-5.7881,-5.7881,-5.7881,-5.7881,-5.7881,-5.7881,-5.7881,-5.7881,-5.7881,-5.7808,-5.7554,-5.6701,-5.6126,-5.585,-5.585,-5.573,-5.5458,-5.6509,-5.6849,-5.6243,-5.5968,-5.5417,-5.463,-5.3483,-5.2767,-5.2485,-5.1635,-5.1229,-5.1229,-5.1229,-5.1229,-5.1229,-5.1229,-5.0883,-5.0405,-5.0255,-4.9942,-4.9494,-4.9389,-4.9299,-4.9299,-4.9299,-4.9299,-4.9239,-4.873,-4.8506,-4.8446,-4.7938,-4.7758,-4.7728,-4.7578,-4.7549,-4.7489,-4.7369,-4.695,-4.6249,-4.5095,-4.4676,-4.4377,-4.3678,-4.3529,-4.3469,-4.3319,-4.329,-4.329,-4.329,-4.329,-4.329,-4.329,-4.329,-4.329,-4.329,0.0,0.0,0.0,-4.1055,-4.0397,-3.9738,-3.9463,-3.9301,-3.9053,-3.8256,-3.772,-3.7634,-3.5939,-3.5178,-3.5848,-3.5277,-3.5132,-3.5683,-3.6132,-3.6405,-3.6405,-3.6405,-3.6405,-3.6405,-3.6405,-3.6405,-3.6405,-3.6405,-3.6405,-3.6405,-3.6405,-3.6405,-3.6405,-3.6405,-3.6405,-3.6405,-3.6405,-3.6405,-3.6405,-3.6405,-3.6405,-3.6405,-5.7881,-5.7881,-5.7881,-5.7881,-5.7881,-5.7881,-5.7881,-5.7881,-5.7881,-5.7881,-5.7881,-5.7517,-5.6437,-5.6243,-5.581,-5.4796,-5.4713,-5.4295,-5.3178,-5.4211,-5.5247,-5.6165,-5.5247,-5.4672,-5.4589,-5.3483,-5.2395,-5.1339,-5.1246,-5.1229,-5.1229,-5.1229,-5.1229,-5.1229,-5.1229,-5.1199,-5.1109,-5.0435,-5.0166,-5.0076,-4.9523,-4.9299,-4.9299,-4.9299,-4.9299,-4.9299,-4.9269,-4.9239,-4.9239,-4.9179,-4.9179,-4.906,-4.8416,-4.8207,-4.8087,-4.7489,-4.7279,-4.707,-4.6381,-4.5723,-4.5065,-4.4407,-4.4257,-4.4077,-4.3439,-4.329,-4.329,-4.329,-4.329,-4.329,-4.329,-4.329,-4.329,-4.329,0.0,0.0,-4.241,-4.1752,-4.1055,-4.0397,-3.9798,-3.9017,-3.7994,-3.7843,-3.7624,-3.7161,-3.607,-3.5901,-3.6946,-3.6024,-3.573,-3.6329,-3.638,-3.6405,-3.6405,-3.6405,-3.6405,-3.6405,-3.6405,-3.6405,-3.6405,-3.6405,-3.6405,-3.6405,-3.6405,-3.6405,-3.6405,-3.6405,-3.6405,-3.6405,-3.6405,-3.6405,-3.6405,-3.6405,-3.6405,-3.6405,-5.849,-5.822,-5.8017,-5.849,-5.8186,-5.7881,-5.7881,-5.7881,-5.7881,-5.7881,-5.7881,-5.748,-5.6321,-5.5611,-5.4764,-5.3656,-5.3526,-5.3352,-5.2945,-5.3956,-5.4463,-5.4179,-5.3785,-5.3209,-5.253,-5.2063,-5.1635,-5.1229,-5.1229,-5.1229,-5.1229,-5.1229,-5.1229,-5.1229,-5.1229,-5.1229,-5.1199,-5.096,-5.0794,-5.0794,-5.0571,-5.0481,-5.0481,-5.0481,-5.0481,-5.0421,-5.0032,-4.9883,-4.9793,-4.9449,-4.9299,-4.9269,-4.903,-4.8626,-4.8147,-4.7489,-4.7309,-4.7249,-4.701,-4.6441,-4.5783,-4.5095,-4.4616,-4.4257,-4.3988,-4.3589,-4.329,-4.329,-4.329,-4.329,-4.329,-4.329,-4.329,-4.329,0.0,-4.312,-4.25,-4.2171,-4.1782,-4.1085,-4.0123,-3.9373,-3.8956,-3.7696,-3.6822,-3.6619,-3.56,-3.5328,-3.6049,-3.6088,-3.6132,-3.6405,-3.6405,-3.6405,-3.6405,-3.6405,-3.6405,-3.6405,-3.6405,-3.6405,-3.6405,-3.6405,-3.6405,-3.6405,-3.6405,-3.6405,-3.6405,-3.6405,-3.6405,-3.6405,-3.6405,-3.6405,-3.6405,-3.6405,-3.6405,-3.6405,-5.9268,-5.8761,-5.8389,-5.893,-5.8389,-5.7881,-5.7881,-5.7881,-5.7881,-5.7881,-5.7881,-5.7335,-5.585,-5.5043,-5.3999,-5.2485,-5.235,-5.235,-5.235,-5.3121,-5.3483,-5.3439,-5.2723,-5.22,-5.1727,-5.1386,-5.1229,-5.1229,-5.1229,-5.1229,-5.1229,-5.1229,-5.1229,-5.1229,-5.1229,-5.1229,-5.1229,-5.1229,-5.1229,-5.1229,-5.1229,-5.1229,-5.1229,-5.1229,-5.1229,-5.1169,-5.0674,-5.0495,-5.0435,-5.0032,-4.9883,-4.9853,-4.9643,-4.8985,-4.8207,-4.7758,-4.7459,-4.7309,-4.7309,-4.698,-4.6471,-4.5783,-4.5274,-4.4825,-4.4407,-4.3917,-4.3529,-4.3319,-4.329,-4.329,-4.329,-4.329,-4.329,-4.329,-4.329,-4.314,-4.2731,-4.253,-4.2115,-4.1252,-4.0255,-3.9327,-3.8639,-3.718,-3.621,-3.6067,-3.5359,-3.5182,-3.578,-3.6157,-3.6405,-3.6405,-3.6405,-3.6405,-3.6405,-3.6405,-3.6405,-3.6405,-3.6405,-3.6405,-3.6405,-3.6405,-3.6405,-3.6405,-3.6405,-3.6405,-3.6405,-3.6405,-3.6405,-3.6405,-3.6405,-3.6405,-3.6405,-3.6405,-3.6405,-3.6405,-6.0114,-5.9539,-5.9032,-5.9032,-5.8389,-5.7881,-5.7881,-5.7881,-5.7881,-5.7881,-5.7881,-5.7072,-5.4838,-5.4589,-5.3656,-5.1386,-5.1229,-5.1229,-5.1229,-5.1229,-5.22,-5.4463,-5.2395,-5.1727,-5.2856,-5.1773,-5.1229,-5.1229,-5.1229,-5.1229,-5.1229,-5.1229,-5.1229,-5.1229,-5.1229,-5.1229,-5.1229,-5.1229,-5.1229,-5.1229,-5.1229,-5.1229,-5.1229,-5.1229,-5.1229,-5.1229,-5.1229,-5.1229,-5.1229,-5.1229,-5.1229,-5.1063,-5.0405,-4.9344,-4.8297,-4.8297,-4.7818,-4.7309,-4.7309,-4.7309,-4.716,-4.6459,-4.6279,-4.592,-4.4646,-4.4317,-4.4137,-4.3439,-4.329,-4.329,-4.329,-4.329,-4.329,-4.329,-4.329,-4.329,-4.329,-4.2761,-4.1952,-4.0747,-3.9969,-3.8721,-3.6522,-3.6332,-3.6085,-3.555,-3.5508,-3.578,-3.638,-3.6405,-3.6405,-3.6405,-3.6405,-3.6405,-3.6405,-3.6405,-3.6405,-3.6405,-3.6405,-3.6405,-3.6405,-3.6405,-3.6405,-3.6405,-3.6405,-3.6405,-3.6405,-3.6405,-3.6405,-3.6405,-3.6405,-3.6405,-3.6405,-3.6405,-3.6405,-3.6405,-6.0825,-6.0317,-5.9776,-5.9776,-5.9167,-5.849,-5.7983,-5.7881,-5.7881,-5.7881,-5.7881,-5.7072,-5.4838,-5.4589,-5.3656,-5.1386,-5.1229,-5.1229,-5.1229,-5.1229,-5.1526,-5.22,-5.1542,-5.1339,-5.1681,-5.1386,-5.1229,-5.1229,-5.1229,-5.1229,-5.1229,-5.1229,-5.1229,-5.1229,-5.1229,-5.1229,-5.1229,-5.1229,-5.1229,-5.1229,-5.1229,-5.1229,-5.1229,-5.1229,-5.1229,-5.1229,-5.1229,-5.1229,-5.1229,-5.1229,-5.1229,-5.1063,-5.0405,-4.9927,-4.9553,-4.9105,-4.8506,-4.7997,-4.7997,-4.7668,-4.7249,-4.707,-4.6681,-4.619,-4.5771,-4.5364,-4.4825,-4.4167,-4.4018,-4.3858,-4.3379,-4.329,-4.329,-4.329,-4.329,-4.3021,-4.2193,-4.1936,-4.141,-4.0252,-3.9184,-3.829,-3.7651,-3.6819,-3.6278,-3.6153,-3.6107,-3.6182,-3.6405,-3.6405,-3.6405,-3.6405,-3.6405,-3.6405,-3.6405,-3.6405,-3.6405,-3.6405,-3.6405,-3.6405,-3.6405,-3.6405,-3.6405,-3.6405,-3.6405,-3.6405,-3.6405,-3.6405,-3.6405,-3.6405,-3.6405,-3.6405,-3.6405,-3.6405,-3.6405,-3.6405,-6.1637,-6.0858,-6.0114,-6.0114,-5.9235,-5.8423,-5.7949,-5.7881,-5.7881,-5.7881,-5.7517,-5.6547,-5.4796,-5.4211,-5.3209,-5.1339,-5.1229,-5.1229,-5.1229,-5.1229,-5.1229,-5.1229,-5.1229,-5.1229,-5.1229,-5.1229,-5.1229,-5.1229,-5.1229,-5.1229,-5.1229,-5.1229,-5.1229,-5.1229,-5.1229,-5.1229,-5.1229,-5.1229,-5.1229,-5.1229,-5.1229,-5.1229,-5.1229,-5.1229,-5.1229,-5.1229,-5.1229,-5.1229,-5.1229,-5.1229,-5.1229,-5.1139,-5.0704,-5.0405,-5.0106,-4.9763,-4.9194,-4.8626,-4.8356,-4.7997,-4.7638,-4.7369,-4.701,-4.6651,-4.6339,-4.5992,-4.5514,-4.4825,-4.4706,-4.4586,-4.4197,-4.3858,-4.3678,-4.3678,-4.3469,-4.3061,-4.2386,-4.1906,-4.1169,-4.0043,-3.8827,-3.7926,-3.7448,-3.6803,-3.6405,-3.6405,-3.6405,-3.6405,-3.6405,-3.6405,-3.6405,-3.6405,-3.6405,-3.6405,-3.6405,-3.6631,-3.6631,-3.6405,-3.6405,-3.6405,-3.6405,-3.6405,-3.6405,-3.6405,-3.6405,-3.6405,-3.6405,-3.6405,-3.6405,-3.6405,-3.6405,-3.6405,-3.6405,-3.6405,-3.6405,-3.6405,-6.2381,-6.1197,-6.0182,-6.0114,-5.893,-5.7983,-5.7915,-5.7881,-5.7881,-5.7881,-5.6925,-5.5777,-5.4713,-5.3569,-5.244,-5.1293,-5.1229,-5.1229,-5.1229,-5.1229,-5.1229,-5.1229,-5.1229,-5.1229,-5.1229,-5.1229,-5.1229,-5.1229,-5.1229,-5.1229,-5.1229,-5.1229,-5.1229,-5.1229,-5.1229,-5.1229,-5.1229,-5.1229,-5.1229,-5.1229,-5.1229,-5.1229,-5.1229,-5.1229,-5.1229,-5.1229,-5.1229,-5.1229,-5.1229,-5.1229,-5.1229,-5.1229,-5.1229,-5.0764,-5.0285,-5.0285,-4.9853,-4.9269,-4.8626,-4.8386,-4.8147,-4.7549,-4.7339,-4.716,-4.6561,-4.6369,-4.6202,-4.5514,-4.5394,-4.5364,-4.5304,-4.4796,-4.4407,-4.4407,-4.3777,-4.3279,-4.3159,-4.2104,-4.0958,-3.9793,-3.863,-3.754,-3.6499,-3.6405,-3.6405,-3.6405,-3.6405,-3.6405,-3.6405,-3.6455,-3.648,-3.648,-3.6531,-3.6556,-3.6556,-3.7059,-3.6985,-3.648,-3.6531,-3.6556,-3.6556,-3.6556,-3.6556,-3.6556,-3.6556,-3.6556,-3.6556,-3.6505,-3.648,-3.648,-3.643,-3.6405,-3.6405,-3.6405,-3.6405,-3.6405,-6.2381,-6.167,-6.0858,-6.0216,-5.937,-5.8558,-5.7983,-5.7881,-5.7881,-5.7881,-5.6925,-5.5777,-5.4713,-5.3569,-5.244,-5.1293,-5.1229,-5.1229,-5.1229,-5.1229,-5.1229,-5.1229,-5.1229,-5.1229,-5.1229,-5.1229,-5.1229,-5.1229,-5.1229,-5.1229,-5.1229,-5.1229,-5.1229,-5.1229,-5.1229,-5.1229,-5.1229,-5.1229,-5.1229,-5.1229,-5.1229,-5.1229,-5.1229,-5.1229,-5.1229,-5.1229,-5.1229,-5.1229,-5.1229,-5.1229,-5.1229,-5.1229,-5.1229,-5.1109,-5.0973,-5.0973,-5.0495,-4.9956,-4.9807,-4.9075,-4.8267,-4.8117,-4.7698,-4.7279,-4.713,-4.71,-4.689,-4.6232,-4.6082,-4.5933,-4.5394,-4.5185,-4.5095,-4.5095,-4.4095,-4.3085,-4.2141,-4.0566,-3.9043,-3.7912,-3.7198,-3.6662,-3.6405,-3.6405,-3.6405,-3.6405,-3.6405,-3.6405,-3.6405,-3.6832,-3.7059,-3.7059,-3.7412,-3.7638,-3.7638,-3.7764,-3.7563,-3.701,-3.7437,-3.7638,-3.7638,-3.7638,-3.7638,-3.7638,-3.7638,-3.7638,-3.7613,-3.7186,-3.7059,-3.696,-3.6581,-3.6405,-3.6405,-3.6405,-3.6405,-3.6405,-6.2381,-6.1806,-6.1061,-6.025,-5.9505,-5.8761,-5.8017,-5.7881,-5.7881,-5.7881,-5.647,-5.5215,-5.4672,-5.3121,-5.1835,-5.1246,-5.1229,-5.1229,-5.1229,-5.1229,-5.1229,-5.1229,-5.1229,-5.1229,-5.1229,-5.1229,-5.1229,-5.1229,-5.1229,-5.1229,-5.1229,-5.1229,-5.1229,-5.1229,-5.1229,-5.1229,-5.1229,-5.1229,-5.1229,-5.1229,-5.1229,-5.1229,-5.1229,-5.1229,-5.1229,-5.1229,-5.1229,-5.1229,-5.1229,-5.1229,-5.1229,-5.1229,-5.1229,-5.1229,-5.1229,-5.1229,-5.0913,-5.0584,-5.0285,-4.9687,-4.9075,-4.8446,-4.8027,-4.7698,-4.7369,-4.7309,-4.7219,-4.686,-4.68,-4.6681,-4.6322,-4.5992,-4.5783,-4.5783,-4.4453,-4.3197,-4.258,-4.0675,-3.9097,-3.8505,-3.7445,-3.6707,-3.643,-3.6656,-3.6807,-3.6807,-3.6985,-3.7136,-3.7136,-3.7412,-3.7588,-3.7588,-3.7864,-3.8015,-3.8015,-3.8291,-3.8266,-3.799,-3.799,-3.8015,-3.8015,-3.8015,-3.8015,-3.8015,-3.8015,-3.8015,-3.7965,-3.7412,-3.7337,-3.7513,-3.696,-3.6958,-3.7111,-3.6908,-3.6631,-3.6405,-6.2381,-6.1806,-6.1061,-6.025,-5.9505,-5.8761,-5.8017,-5.7881,-5.7845,-5.7628,-5.585,-5.4547,-5.4337,-5.244,-5.1229,-5.1229,-5.1229,-5.1229,-5.1229,-5.1229,-5.1229,-5.1229,-5.1229,-5.1229,-5.1229,-5.1229,-5.1229,-5.1229,-5.1229,-5.1229,-5.1229,-5.1229,-5.1229,-5.1229,-5.1229,-5.1229,-5.1229,-5.1229,-5.1229,-5.1229,-5.1229,-5.1229,-5.1229,-5.1229,-5.1229,-5.1229,-5.1229,-5.1229,-5.1229,-5.1229,-5.1229,-5.1229,-5.1229,-5.1229,-5.1229,-5.1229,-5.1229,-5.1109,-5.0495,-5.0285,-4.9927,-4.8895,-4.8536,-4.8327,-4.7758,-4.7459,-4.7309,-4.7309,-4.7309,-4.7309,-4.7309,-4.686,-4.6416,-4.6172,-4.4618,-4.3336,-4.3114,-4.1071,-3.9651,-3.9651,-3.827,-3.7136,-3.6732,-3.7109,-3.7337,-3.7337,-3.7739,-3.8015,-3.8015,-3.809,-3.814,-3.814,-3.8241,-3.8291,-3.8291,-3.8768,-3.907,-3.9045,-3.8517,-3.8291,-3.8291,-3.8291,-3.8291,-3.8291,-3.8291,-3.8291,-3.8241,-3.7688,-3.7739,-3.809,-3.7538,-3.7613,-3.7939,-3.7487,-3.6985,-3.6556,-6.2381,-6.1806,-6.1061,-6.025,-5.9505,-5.8761,-5.8017,-5.7881,-5.7554,-5.6586,-5.5369,-5.4211,-5.3253,-5.1972,-5.1229,-5.1229,-5.1229,-5.1229,-5.1229,-5.1229,-5.1229,-5.1229,-5.1229,-5.1229,-5.1229,-5.1229,-5.1229,-5.1229,-5.1229,-5.1229,-5.1229,-5.1229,-5.1229,-5.1229,-5.1229,-5.1229,-5.1229,-5.1229,-5.1229,-5.1229,-5.1229,-5.1229,-5.1229,-5.1229,-5.1229,-5.1229,-5.1229,-5.1229,-5.1229,-5.1229,-5.1229,-5.1229,-5.1229,-5.1229,-5.1229,-5.1229,-5.1229,-5.1199,-5.1109,-5.0614,-5.0136,-4.9986,-4.9553,-4.9149,-4.906,-4.8117,-4.7309,-4.7309,-4.7309,-4.7309,-4.7309,-4.7249,-4.6783,-4.5707,-4.4383,-4.3113,-4.2011,-4.0221,-3.9044,-3.9044,-3.834,-3.7864,-3.7789,-3.7839,-3.7889,-3.7889,-3.7965,-3.8015,-3.8015,-3.8492,-3.8793,-3.8793,-3.922,-3.9471,-3.9471,-3.9546,-3.9572,-3.9572,-3.9496,-3.9471,-3.9471,-3.9471,-3.9471,-3.9471,-3.9471,-3.9471,-3.9421,-3.8868,-3.8743,-3.8693,-3.8115,-3.7939,-3.799,-3.7914,-3.7538,-3.7061,-6.2381,-6.2144,-6.167,-6.0892,-6.052,-6.0013,-5.9235,-5.8576,-5.793,-5.7463,-5.5826,-5.4429,-5.3565,-5.2123,-5.1379,-5.1738,-5.1439,-5.1229,-5.1229,-5.1229,-5.1229,-5.1229,-5.1229,-5.1229,-5.1229,-5.1229,-5.1229,-5.1229,-5.1229,-5.1229,-5.1229,-5.1229,-5.1229,-5.1229,-5.1229,-5.1229,-5.1229,-5.1229,-5.1229,-5.1229,-5.1229,-5.1229,-5.1229,-5.1229,-5.1229,-5.1229,-5.1229,-5.1229,-5.1229,-5.1229,-5.1229,-5.1229,-5.1229,-5.1229,-5.1229,-5.1229,-5.1229,-5.1229,-5.1229,-5.0973,-5.0644,-5.0285,-5.0032,-4.9703,-4.9389,-4.885,-4.8297,-4.7938,-4.7549,-4.7309,-4.7309,-4.7309,-4.7106,-4.655,-4.4794,-4.3313,-4.2738,-4.0761,-3.922,-3.8969,-3.8642,-3.8366,-3.804,-3.8291,-3.8492,-3.8492,-3.8768,-3.8944,-3.8944,-3.9195,-3.932,-3.932,-3.9572,-3.9697,-3.9697,-3.9697,-3.9697,-3.9697,-3.9697,-3.9697,-3.9697,-3.9697,-3.9697,-3.9697,-3.9697,-3.9697,-3.9647,-3.9094,-3.9095,-3.927,-3.8718,-3.8492,-3.8492,-3.8492,-3.814,-3.7638]},{"header":{"parameterUnit":"m.s-1","parameterCategory":1,"la1":30.6,"la2":28.766,"lo1":-90.7593,"lo2":-88.6598,"dy":0.0162,"dx":0.0183,"nx":116,"ny":114,"refTime":"2024-06-13T06:00:00:Z","depth":0,"parameterNumber":3,"parameterNumberName":"V-component_of_WINDS"},"data":[0.0,0.0,0.0,0.0,0.0,0.0,0.0,0.0,0.0,0.0,0.0,0.0,0.0,0.0,0.0,0.0,0.0,0.0,0.0,0.0,0.0,0.0,0.0,0.0,0.0,0.0,0.0,0.0,0.0,0.0,0.0,0.0,0.0,0.0,0.0,0.0,0.0,0.0,0.0,0.0,0.0,0.0,0.0,0.0,0.0,0.0,0.0,0.0,0.0,0.0,0.0,0.0,0.0,0.0,0.0,0.0,0.0,0.0,0.0,0.0,0.0,0.0,0.0,0.0,0.0,0.0,0.0,0.0,0.0,0.0,0.0,0.0,0.0,0.0,0.0,0.0,0.0,0.0,0.0,0.0,0.0,0.0,0.0,0.0,0.0,0.0,0.0,0.0,0.0,0.0,0.0,0.0,0.0,0.0,0.0,0.0,0.0,0.0,0.0,0.0,0.0,0.0,0.0,0.0,0.0,0.0,0.0,0.0,0.0,0.0,0.0,0.0,0.0,0.0,0.0,0.0,0.0,0.0,0.0,0.0,0.0,0.0,0.0,0.0,0.0,0.0,0.0,0.0,0.0,0.0,0.0,0.0,0.0,0.0,0.0,0.0,0.0,0.0,0.0,0.0,0.0,0.0,0.0,0.0,0.0,0.0,0.0,0.0,0.0,0.0,0.0,0.0,0.0,0.0,0.0,0.0,0.0,0.0,0.0,0.0,0.0,0.0,0.0,0.0,0.0,0.0,0.0,0.0,0.0,0.0,0.0,0.0,0.0,0.0,0.0,0.0,0.0,0.0,0.0,0.0,0.0,0.0,0.0,0.0,0.0,0.0,0.0,0.0,0.0,0.0,0.0,0.0,0.0,0.0,0.0,0.0,0.0,0.0,0.0,0.0,0.0,0.0,0.0,0.0,0.0,0.0,0.0,0.0,0.0,0.0,0.0,0.0,0.0,0.0,0.0,0.0,0.0,0.0,0.0,0.0,0.0,0.0,0.0,0.0,0.0,0.0,0.0,0.0,0.0,0.0,0.0,0.0,0.0,0.0,0.0,0.0,0.0,0.0,0.0,0.0,0.0,0.0,0.0,0.0,0.0,0.0,0.0,0.0,0.0,0.0,0.0,0.0,0.0,0.0,0.0,0.0,0.0,0.0,0.0,0.0,0.0,0.0,0.0,0.0,0.0,0.0,0.0,0.0,0.0,0.0,0.0,0.0,0.0,0.0,0.0,0.0,0.0,0.0,0.0,0.0,0.0,0.0,0.0,0.0,0.0,0.0,0.0,0.0,0.0,0.0,0.0,0.0,0.0,0.0,0.0,0.0,0.0,0.0,0.0,0.0,0.0,0.0,0.0,0.0,0.0,0.0,0.0,0.0,0.0,0.0,0.0,0.0,0.0,0.0,0.0,0.0,0.0,0.0,0.0,0.0,0.0,0.0,0.0,0.0,0.0,0.0,0.0,0.0,0.0,0.0,0.0,0.0,0.0,0.0,0.0,0.0,0.0,0.0,0.0,0.0,0.0,0.0,0.0,0.0,0.0,0.0,0.0,0.0,0.0,0.0,0.0,0.0,0.0,0.0,0.0,0.0,0.0,0.0,0.0,0.0,0.0,0.0,0.0,0.0,0.0,0.0,0.0,0.0,0.0,0.0,0.0,0.0,0.0,0.0,0.0,0.0,0.0,0.0,0.0,0.0,0.0,0.0,0.0,0.0,0.0,0.0,0.0,0.0,0.0,0.0,0.0,0.0,0.0,0.0,0.0,0.0,0.0,0.0,0.0,0.0,0.0,0.0,0.0,0.0,0.0,0.0,0.0,0.0,0.0,0.0,0.0,0.0,0.0,0.0,0.0,0.0,0.0,0.0,0.0,0.0,0.0,0.0,0.0,0.0,0.0,0.0,0.0,0.0,0.0,0.0,0.0,0.0,0.0,0.0,0.0,0.0,0.0,0.0,0.0,0.0,0.0,0.0,0.0,0.0,0.0,0.0,0.0,0.0,0.0,0.0,0.0,0.0,0.0,0.0,0.0,0.0,0.0,0.0,0.0,0.0,0.0,0.0,0.0,0.0,0.0,0.0,0.0,0.0,0.0,0.0,0.0,0.0,0.0,0.0,0.0,0.0,0.0,0.0,0.0,0.0,0.0,0.0,0.0,0.0,0.0,0.0,0.0,0.0,0.0,0.0,0.0,0.0,0.0,0.0,0.0,0.0,0.0,0.0,0.0,0.0,0.0,0.0,0.0,0.0,0.0,0.0,0.0,0.0,0.0,0.0,0.0,0.0,0.0,0.0,0.0,0.0,0.0,0.0,0.0,0.0,0.0,0.0,0.0,0.0,0.0,0.0,0.0,0.0,0.0,0.0,0.0,0.0,0.0,0.0,0.0,0.0,0.0,0.0,0.0,0.0,0.0,0.0,0.0,0.0,0.0,0.0,0.0,0.0,0.0,0.0,0.0,0.0,0.0,0.0,0.0,0.0,0.0,0.0,0.0,0.0,0.0,0.0,0.0,0.0,0.0,0.0,0.0,0.0,0.0,0.0,0.0,0.0,0.0,0.0,0.0,0.0,0.0,0.0,0.0,0.0,0.0,0.0,0.0,0.0,0.0,0.0,0.0,0.0,0.0,0.0,0.0,0.0,0.0,0.0,0.0,0.0,0.0,0.0,0.0,0.0,0.0,0.0,0.0,0.0,0.0,0.0,0.0,0.0,0.0,0.0,0.0,0.0,0.0,0.0,0.0,0.0,0.0,0.0,0.0,0.0,0.0,0.0,0.0,0.0,0.0,0.0,0.0,0.0,0.0,0.0,0.0,0.0,0.0,0.0,0.0,0.0,0.0,0.0,0.0,0.0,0.0,0.0,0.0,0.0,0.0,0.0,0.0,0.0,0.0,0.0,0.0,0.0,0.0,0.0,0.0,0.0,0.0,0.0,0.0,0.0,0.0,0.0,0.0,0.0,0.0,0.0,0.0,0.0,0.0,0.0,0.0,0.0,0.0,0.0,0.0,0.0,0.0,0.0,0.0,0.0,0.0,0.0,0.0,0.0,0.0,0.0,0.0,0.0,0.0,0.0,0.0,0.0,0.0,0.0,0.0,0.0,0.0,0.0,0.0,0.0,0.0,0.0,0.0,0.0,0.0,0.0,0.0,0.0,0.0,0.0,0.0,0.0,0.0,0.0,0.0,0.0,0.0,0.0,0.0,0.0,0.0,0.0,0.0,0.0,0.0,0.0,0.0,0.0,0.0,0.0,0.0,0.0,0.0,0.0,0.0,0.0,0.0,0.0,0.0,0.0,0.0,0.0,0.0,0.0,0.0,0.0,0.0,0.0,0.0,0.0,0.0,0.0,0.0,0.0,0.0,0.0,0.0,0.0,0.0,0.0,0.0,0.0,0.0,0.0,0.0,0.0,0.0,0.0,0.0,0.0,0.0,0.0,0.0,0.0,0.0,0.0,0.0,0.0,0.0,0.0,0.0,0.0,0.0,0.0,0.0,0.0,0.0,0.0,0.0,0.0,0.0,0.0,0.0,0.0,0.0,0.0,0.0,0.0,0.0,0.0,0.0,0.0,0.0,0.0,0.0,0.0,0.0,0.0,0.0,0.0,0.0,0.0,0.0,0.0,0.0,0.0,0.0,0.0,0.0,0.0,0.0,0.0,0.0,0.0,0.0,0.0,0.0,0.0,0.0,0.0,0.0,0.0,0.0,0.0,0.0,0.0,0.0,0.0,0.0,0.0,0.0,0.0,0.0,0.0,0.0,0.0,0.0,0.0,0.0,0.0,0.0,0.0,0.0,0.0,0.0,0.0,0.0,0.0,0.0,0.0,0.0,0.0,0.0,0.0,0.0,0.0,0.0,0.0,0.0,0.0,0.0,0.0,0.0,0.0,0.0,0.0,0.0,0.0,0.0,0.0,0.0,0.0,0.0,0.0,0.0,0.0,0.0,0.0,0.0,0.0,0.0,0.0,0.0,0.0,0.0,0.0,0.0,0.0,0.0,0.0,0.0,0.0,0.0,0.0,0.0,0.0,0.0,0.0,0.0,0.0,0.0,0.0,0.0,0.0,0.0,0.0,0.0,0.0,0.0,0.0,0.0,0.0,0.0,0.0,0.0,0.0,0.0,0.0,0.0,0.0,0.0,0.0,0.0,0.0,0.0,0.0,0.0,0.0,0.0,0.0,0.0,0.0,0.0,0.0,0.0,0.0,0.0,0.0,0.0,0.0,0.0,0.0,0.0,0.0,0.0,0.0,0.0,0.0,0.0,0.0,0.0,0.0,0.0,0.0,0.0,0.0,0.0,0.0,0.0,0.0,0.0,0.0,0.0,0.0,0.0,0.0,0.0,0.0,0.0,0.0,0.0,0.0,0.0,0.0,0.0,0.0,0.0,0.0,0.0,0.0,0.0,0.0,0.0,0.0,0.0,0.0,0.0,0.0,0.0,0.0,0.0,0.0,0.0,0.0,0.0,0.0,0.0,0.0,0.0,0.0,0.0,0.0,0.0,0.0,0.0,0.0,0.0,0.0,0.0,0.0,0.0,0.0,0.0,0.0,0.0,0.0,0.0,0.0,0.0,0.0,0.0,0.0,0.0,0.0,0.0,0.0,0.0,0.0,0.0,0.0,0.0,0.0,0.0,0.0,0.0,0.0,0.0,0.0,0.0,0.0,0.0,0.0,0.0,0.0,0.0,0.0,0.0,0.0,0.0,0.0,0.0,0.0,0.0,0.0,0.0,0.0,0.0,0.0,0.0,0.0,0.0,0.0,0.0,0.0,0.0,0.0,0.0,0.0,0.0,0.0,0.0,0.0,0.0,0.0,0.0,0.0,0.0,0.0,0.0,0.0,0.0,0.0,0.0,0.0,0.0,0.0,0.0,0.0,0.0,0.0,0.0,0.0,0.0,0.0,0.0,0.0,0.0,0.0,0.0,0.0,0.0,0.0,0.0,0.0,0.0,0.0,0.0,0.0,0.0,0.0,0.0,0.0,0.0,0.0,0.0,0.0,0.0,0.0,0.0,0.0,0.0,0.0,0.0,0.0,0.0,0.0,0.0,0.0,0.0,0.0,0.0,0.0,0.0,0.0,0.0,0.0,0.0,0.0,0.0,0.0,0.0,0.0,0.0,0.0,0.0,0.0,0.0,0.0,0.0,0.0,0.0,0.0,0.0,0.0,0.0,0.0,0.0,0.0,0.0,0.0,0.0,0.0,0.0,0.0,0.0,0.0,0.0,0.0,0.0,0.0,0.0,0.0,0.0,0.0,0.0,0.0,0.0,0.0,0.0,0.0,0.0,0.0,0.0,0.0,0.0,0.0,0.0,0.0,0.0,0.0,0.0,0.0,0.0,0.0,0.0,0.0,0.0,0.0,0.0,0.0,0.0,0.0,0.0,0.0,0.0,0.0,0.0,0.0,0.0,0.0,0.0,0.0,0.0,0.0,0.0,0.0,0.0,0.0,0.0,0.0,0.0,0.0,0.0,0.0,0.0,0.0,0.0,0.0,0.0,0.0,0.0,0.0,0.0,0.0,0.0,0.0,0.0,0.0,0.0,0.0,0.0,0.0,0.0,0.0,0.0,0.0,0.0,0.0,0.0,0.0,0.0,0.0,0.0,0.0,0.0,0.0,0.0,0.0,0.0,0.0,0.0,0.0,0.0,0.0,0.0,0.0,0.0,0.0,0.0,0.0,0.0,0.0,0.0,0.0,0.0,0.0,0.0,0.0,0.0,0.0,0.0,0.0,0.0,0.0,0.0,0.0,0.0,0.0,0.0,0.0,0.0,0.0,0.0,0.0,0.0,0.0,0.0,0.0,0.0,0.0,0.0,0.0,0.0,0.0,0.0,0.0,0.0,0.0,0.0,0.0,0.0,0.0,0.0,0.0,0.0,0.0,0.0,0.0,0.0,0.0,0.0,0.0,0.0,0.0,0.0,0.0,0.0,0.0,0.0,0.0,0.0,0.0,0.0,0.0,0.0,0.0,0.0,0.0,0.0,0.0,0.0,0.0,0.0,0.0,0.0,0.0,0.0,0.0,0.0,0.0,0.0,0.0,0.0,0.0,0.0,0.0,0.0,0.0,0.0,0.0,0.0,0.0,0.0,0.0,0.0,0.0,0.0,0.0,0.0,0.0,3.2651,0.0,0.0,0.0,0.0,0.0,0.0,0.0,0.0,0.0,0.0,0.0,0.0,0.0,0.0,0.0,0.0,0.0,0.0,0.0,0.0,0.0,0.0,0.0,0.0,3.5908,3.6782,3.7504,3.7585,3.7382,3.7003,0.0,0.0,0.0,0.0,0.0,3.2001,3.1755,3.1156,3.0214,2.997,2.965,2.9171,2.8924,2.8237,2.7293,0.0,0.0,0.0,0.0,0.0,0.0,0.0,0.0,0.0,0.0,0.0,0.0,0.0,0.0,0.0,0.0,0.0,0.0,0.0,0.0,0.0,0.0,0.0,0.0,0.0,0.0,0.0,0.0,0.0,0.0,0.0,0.0,0.0,0.0,0.0,0.0,0.0,0.0,0.0,0.0,0.0,0.0,0.0,0.0,0.0,0.0,0.0,0.0,0.0,0.0,0.0,0.0,0.0,0.0,0.0,0.0,0.0,0.0,0.0,0.0,0.0,0.0,0.0,0.0,0.0,0.0,0.0,0.0,0.0,0.0,0.0,3.3721,0.0,0.0,0.0,0.0,0.0,0.0,0.0,0.0,0.0,0.0,0.0,0.0,0.0,0.0,0.0,0.0,0.0,0.0,0.0,0.0,0.0,3.3006,3.4354,3.5701,3.6956,3.8123,3.8212,3.8127,3.7941,3.7895,0.0,0.0,0.0,3.5189,3.386,3.3798,3.3099,3.1778,3.1771,3.1103,2.9766,2.9766,2.9109,2.7924,2.7597,0.0,0.0,0.0,0.0,0.0,0.0,0.0,0.0,0.0,0.0,0.0,0.0,0.0,0.0,0.0,0.0,0.0,0.0,0.0,0.0,0.0,0.0,0.0,0.0,0.0,0.0,0.0,0.0,0.0,0.0,0.0,0.0,0.0,0.0,0.0,0.0,0.0,0.0,0.0,0.0,0.0,0.0,0.0,0.0,0.0,0.0,0.0,0.0,0.0,0.0,0.0,0.0,0.0,0.0,0.0,0.0,0.0,0.0,0.0,0.0,0.0,0.0,0.0,3.5152,3.5152,3.5152,3.5052,3.5002,3.5002,3.5002,3.465,3.4048,3.3947,0.0,0.0,0.0,0.0,0.0,0.0,0.0,0.0,0.0,0.0,0.0,0.0,0.0,0.0,0.0,0.0,0.0,0.0,0.0,3.3006,3.4354,3.5701,3.6776,3.7464,3.7524,3.7754,3.8275,3.8335,0.0,0.0,3.7672,3.665,3.4852,3.4444,3.3698,3.2483,3.2027,3.1446,3.0798,3.0798,3.0703,3.0452,2.8737,2.7971,2.7871,0.0,0.0,0.0,0.0,0.0,0.0,0.0,0.0,0.0,0.0,0.0,0.0,0.0,0.0,0.0,0.0,0.0,0.0,0.0,0.0,0.0,0.0,0.0,0.0,0.0,0.0,0.0,0.0,0.0,0.0,0.0,0.0,0.0,0.0,0.0,0.0,0.0,0.0,0.0,0.0,0.0,3.7234,3.7717,0.0,0.0,0.0,0.0,0.0,0.0,0.0,0.0,0.0,0.0,0.0,0.0,0.0,3.5655,3.6179,3.6634,3.686,3.686,3.686,3.686,3.6835,3.6405,3.6204,3.6204,3.6204,0.0,3.4575,3.4098,0.0,0.0,0.0,0.0,0.0,0.0,0.0,0.0,0.0,0.0,0.0,0.0,0.0,0.0,0.0,0.0,0.0,0.0,0.0,0.0,0.0,3.513,3.6207,3.6836,3.7195,3.7524,3.7823,3.8182,3.8392,3.8392,3.8588,3.7958,3.6374,3.616,3.5485,3.424,3.3607,3.3087,3.2676,3.2676,3.2404,3.1854,3.1011,3.0308,2.9678,2.9084,0.0,0.0,0.0,0.0,0.0,0.0,0.0,0.0,0.0,0.0,0.0,0.0,0.0,0.0,0.0,0.0,0.0,0.0,0.0,0.0,0.0,0.0,0.0,0.0,0.0,0.0,0.0,0.0,0.0,0.0,0.0,0.0,0.0,0.0,0.0,0.0,0.0,0.0,0.0,3.8683,3.8159,3.8145,3.7531,3.6604,0.0,0.0,0.0,0.0,0.0,0.0,0.0,0.0,0.0,3.6458,3.6458,3.6734,3.7287,3.7538,3.7638,3.7638,3.7638,3.7487,3.7186,3.6935,3.6707,3.6405,3.6405,3.6128,3.5604,3.5052,3.4449,3.3872,0.0,0.0,0.0,0.0,3.3111,3.3043,0.0,0.0,0.0,0.0,0.0,0.0,0.0,0.0,0.0,0.0,0.0,0.0,3.3937,3.5278,3.6187,3.6509,3.7127,3.7425,0.0,3.782,3.8185,3.8123,3.8631,3.8362,3.7195,3.7015,3.6447,3.5519,3.4981,3.4629,3.438,3.438,3.4007,3.3359,3.3359,3.2645,3.1348,3.0704,2.9974,0.0,0.0,0.0,0.0,0.0,0.0,0.0,0.0,0.0,0.0,0.0,0.0,0.0,0.0,0.0,0.0,0.0,0.0,0.0,0.0,0.0,0.0,0.0,0.0,0.0,0.0,0.0,0.0,0.0,0.0,0.0,0.0,0.0,0.0,0.0,0.0,0.0,0.0,4.0358,3.9954,3.9473,3.9443,3.8684,0.0,0.0,0.0,0.0,0.0,0.0,3.6599,3.6723,3.7036,3.7588,3.7613,3.7889,3.8442,3.8442,3.8442,3.8442,3.8291,3.8015,3.7613,3.7312,3.696,3.6606,3.6455,3.6405,3.6355,3.578,3.5006,3.4299,3.4173,3.3771,3.3294,3.3294,3.3194,3.3111,0.0,0.0,0.0,0.0,0.0,0.0,0.0,0.0,0.0,0.0,0.0,3.5505,3.5568,3.6844,3.7383,3.6662,3.7328,3.7432,0.0,0.0,3.7575,3.7469,3.7494,3.7195,3.6537,3.5908,3.5579,3.5519,3.5459,3.5427,3.5424,3.5424,3.5392,3.5359,3.5359,3.4312,3.2483,3.1944,3.1301,3.0553,0.0,0.0,0.0,0.0,0.0,0.0,0.0,0.0,0.0,0.0,0.0,0.0,0.0,0.0,0.0,0.0,0.0,0.0,0.0,0.0,0.0,0.0,0.0,0.0,0.0,0.0,0.0,0.0,0.0,0.0,0.0,0.0,0.0,0.0,0.0,0.0,0.0,0.0,0.0,4.3011,4.269,0.0,0.0,0.0,0.0,4.0664,3.958,3.911,3.9617,3.8549,3.8191,3.8818,3.8844,3.9044,3.9597,3.9597,3.9597,3.9597,3.9069,3.8869,3.8793,3.7663,3.7161,3.7111,3.6631,3.6405,3.6355,3.578,3.5458,3.5357,3.4831,3.4349,3.3847,3.3847,3.352,3.3111,0.0,0.0,0.0,0.0,0.0,2.8609,2.9735,3.067,3.1633,3.274,3.3756,3.4334,3.4334,3.5198,3.5828,3.602,3.6692,3.7179,3.734,0.0,3.8122,3.7544,3.846,3.8399,3.7238,3.6112,3.5519,3.5519,3.5519,3.5519,3.5519,3.5519,3.5519,3.5519,3.5519,3.51,3.4447,3.3809,3.3107,3.226,3.134,3.0521,0.0,0.0,0.0,0.0,0.0,0.0,0.0,0.0,0.0,0.0,0.0,0.0,0.0,0.0,0.0,0.0,0.0,0.0,0.0,0.0,0.0,0.0,0.0,0.0,0.0,0.0,0.0,0.0,0.0,0.0,0.0,0.0,0.0,0.0,0.0,0.0,0.0,4.3546,4.3747,0.0,4.1943,4.1463,4.1324,4.1501,4.181,4.2078,4.2269,4.2625,4.2731,4.2521,4.1705,4.1576,4.2133,4.1319,4.1319,4.2106,4.1967,4.1673,4.1319,4.0891,4.0274,3.9505,3.9336,3.8996,3.8649,3.8434,3.7227,3.5483,3.5282,3.47,3.3897,3.3897,3.3545,3.3111,0.0,0.0,0.0,0.0,2.8358,2.9302,3.0427,3.1546,3.2672,3.3806,3.4601,3.4954,3.4693,3.5509,3.6065,3.6055,3.6923,3.7459,3.7406,3.8312,3.8494,3.7714,3.8612,3.8674,3.7683,3.6755,3.6133,3.5878,3.5878,3.575,3.5519,3.5519,3.5519,3.5519,3.5519,3.5519,3.5489,3.525,3.4691,3.3933,3.3636,3.2916,3.2021,0.0,0.0,0.0,0.0,0.0,0.0,0.0,0.0,0.0,0.0,0.0,0.0,0.0,0.0,0.0,0.0,0.0,0.0,0.0,0.0,0.0,0.0,0.0,0.0,0.0,0.0,0.0,0.0,0.0,0.0,0.0,0.0,0.0,0.0,4.4246,4.4834,4.4571,4.5274,4.533,4.411,4.3963,4.4093,4.4322,4.4478,4.4621,4.4893,4.5295,4.533,4.4865,4.3764,4.3443,4.3855,4.2798,4.2641,4.3504,4.3504,4.3283,4.2943,4.2796,4.2242,4.1439,4.0979,4.0592,4.0161,3.9968,3.8745,3.6994,3.6994,3.6293,3.5306,3.528,3.4786,3.4137,0.0,0.0,0.0,2.7585,2.8731,2.985,3.0528,3.2361,3.3905,3.4541,3.6554,3.7618,3.6863,3.8058,3.8329,3.6851,3.8095,3.8353,3.6846,3.8133,3.8608,3.7908,3.7822,3.7822,3.7851,3.7822,3.7411,3.663,3.663,3.629,3.5554,3.5554,3.5554,3.5554,3.5554,3.5522,3.5582,3.6241,3.6118,3.5603,3.591,3.5369,3.4201,0.0,0.0,0.0,0.0,0.0,0.0,0.0,0.0,0.0,0.0,0.0,0.0,0.0,0.0,0.0,0.0,0.0,0.0,0.0,0.0,0.0,0.0,0.0,0.0,0.0,0.0,0.0,0.0,0.0,0.0,0.0,0.0,0.0,4.3379,4.5053,4.6352,4.6339,4.7519,4.8297,4.8327,4.8327,4.8566,4.9269,4.7558,4.6795,4.7478,4.6333,4.565,4.5622,4.5018,4.4636,4.4629,4.3903,4.3626,4.3646,4.3646,4.3646,4.3618,4.3083,4.2851,4.2768,4.1501,4.0947,4.0847,4.0265,4.0043,4.0,3.9956,3.9167,3.809,3.8021,3.722,3.6212,0.0,0.0,2.7046,2.7525,2.9098,3.0529,3.1212,3.3502,3.5181,3.5304,3.6824,3.7415,3.6096,3.6806,3.7233,3.6784,3.7658,3.8226,3.8379,0.0,3.9662,3.948,3.8418,3.8048,3.858,3.8048,3.7706,3.7469,3.7469,3.7383,3.7175,3.7175,3.7175,3.7145,3.6538,3.6321,3.629,3.6441,3.6656,3.6892,3.6981,3.6823,3.6497,0.0,0.0,0.0,0.0,0.0,0.0,0.0,0.0,0.0,0.0,0.0,0.0,0.0,0.0,0.0,0.0,0.0,0.0,0.0,0.0,0.0,0.0,0.0,0.0,0.0,0.0,0.0,0.0,0.0,0.0,0.0,4.4018,4.4915,4.5382,4.592,4.6681,4.7638,4.8057,4.8476,4.9,4.906,4.912,4.9299,4.9221,4.9229,4.9406,4.9569,4.941,4.894,4.7827,4.7261,4.7268,4.6166,4.5803,4.6255,4.6255,4.6255,4.6255,4.6123,4.5801,4.5258,4.4451,4.3805,4.3294,4.265,4.2386,4.2222,4.056,3.9167,3.809,3.8021,3.722,3.6212,0.0,2.6363,2.7225,2.7914,2.9687,3.1241,3.1926,3.4397,3.6138,3.6118,3.7144,3.7449,3.6231,3.6502,3.666,3.6332,3.728,3.8091,3.8497,3.9817,4.0696,4.1027,3.9866,3.9429,3.9834,3.916,3.8613,3.8246,3.8246,3.8104,3.7793,3.7793,3.7793,3.7793,3.7293,3.7084,3.7117,3.6996,3.7309,3.7913,3.7841,3.8003,3.8212,3.7943,3.7823,3.7734,3.7105,3.7105,3.7345,3.6985,0.0,0.0,0.0,0.0,0.0,0.0,0.0,0.0,0.0,0.0,0.0,0.0,0.0,0.0,0.0,0.0,0.0,0.0,0.0,0.0,0.0,0.0,0.0,0.0,4.5454,4.6471,4.7429,4.7309,4.7638,4.8955,4.9105,4.9374,5.0032,4.9823,4.9793,5.0062,5.0182,5.0315,5.0584,5.102,5.1003,5.0614,4.9634,4.9132,4.9105,4.7834,4.7361,4.7728,4.7429,4.7309,4.7309,4.7309,4.71,4.6681,4.5723,4.5065,4.4646,4.3678,4.329,0.0,0.0,0.0,0.0,0.0,3.8139,3.752,0.0,2.6732,2.7914,2.8487,3.0279,3.1838,3.2496,3.5,3.6827,3.6772,0.0,3.7719,3.6897,3.6795,3.6468,3.5667,3.711,3.8125,0.0,0.0,4.161,4.2252,4.1576,4.1204,4.1204,4.0485,3.974,3.9016,3.9016,3.869,3.808,3.808,3.808,3.808,3.7933,3.7969,3.8069,3.7839,3.8151,3.8831,3.8743,3.8958,3.9349,3.8751,3.8512,3.8422,3.7853,3.7644,3.7644,3.7644,0.0,0.0,0.0,0.0,0.0,0.0,0.0,0.0,0.0,0.0,0.0,0.0,0.0,0.0,0.0,0.0,0.0,0.0,0.0,0.0,0.0,0.0,0.0,0.0,4.71,4.7967,4.9194,4.8865,4.8925,5.0046,5.0196,5.0435,5.1139,5.0644,5.0554,5.1169,5.0644,5.0554,5.1199,0.0,0.0,0.0,0.0,5.0255,5.0196,4.9015,4.8356,4.8267,4.7608,4.7309,4.7309,4.7309,4.7309,4.7249,4.5873,4.5304,4.5185,4.3828,4.326,4.311,4.256,4.1931,4.1235,3.9918,3.9373,3.9373,0.0,2.7085,2.8457,2.8577,3.0278,3.1834,3.2485,3.4971,3.6795,3.6793,3.7956,3.8261,3.6965,3.6795,3.6468,3.5667,3.755,3.9546,0.0,0.0,4.2151,4.2286,4.1576,4.1204,4.1204,4.0485,4.0003,3.9876,3.9876,3.9799,3.967,3.967,3.967,3.961,3.8995,3.9045,3.9635,3.8929,3.9399,4.0546,4.0515,4.0068,3.9373,3.926,3.923,3.92,3.908,3.8985,3.8985,3.8985,3.8661,3.8212,3.8212,0.0,0.0,0.0,0.0,0.0,0.0,0.0,0.0,0.0,0.0,0.0,0.0,0.0,0.0,0.0,0.0,0.0,0.0,0.0,0.0,4.7668,4.8446,4.9164,4.9942,4.9897,4.9897,5.0166,5.0196,5.0435,5.1139,5.1063,5.1079,5.1199,5.1109,5.1079,5.1199,5.1229,5.1229,5.1229,5.1079,5.0734,5.0196,4.9464,4.885,4.8267,0.0,0.0,4.7309,4.7309,4.7309,4.7249,4.5873,4.5304,4.5185,4.3828,4.303,4.253,4.1871,4.1542,4.1235,3.9918,3.9373,3.9373,2.6161,2.7858,2.9175,2.9505,3.0984,3.2317,3.2997,3.5514,3.7349,3.7358,3.8294,3.87,3.798,3.7235,3.666,3.6231,3.7922,0.0,0.0,4.2658,4.3031,4.343,4.2726,4.232,4.232,4.1204,4.0629,4.0629,4.0629,4.0629,4.0663,4.1001,4.1196,4.117,4.0795,4.0836,4.1143,4.0385,4.0658,4.1573,4.1175,4.0894,4.0653,4.0205,3.9773,3.9373,3.9373,3.9373,3.9373,3.9373,3.92,3.8901,3.8901,3.8901,3.8901,0.0,0.0,0.0,0.0,0.0,0.0,0.0,0.0,0.0,0.0,0.0,0.0,0.0,0.0,4.4825,4.6471,0.0,4.7728,4.9045,4.9553,4.9972,5.0584,5.0674,5.0674,5.0674,5.0674,5.0823,5.1199,5.1229,5.1229,5.1229,5.1229,5.1229,5.1229,5.1229,5.1229,5.1229,5.1229,5.105,5.0674,5.0092,4.9434,4.882,4.8117,4.7608,4.7309,4.7309,4.7309,4.7249,4.5873,4.5304,4.5185,4.3828,4.315,4.2761,4.1773,4.1175,4.0756,3.9798,3.9373,3.9373,2.6895,2.8569,2.9907,3.0404,3.1561,3.2647,3.3476,3.5695,3.7455,3.7841,3.843,3.8836,3.8971,3.7811,3.7134,0.0,0.0,0.0,0.0,4.3234,4.391,4.4581,4.3842,4.3375,4.3375,4.2117,4.1407,4.1407,4.1407,4.1407,4.1441,4.2016,4.2286,4.2286,4.2286,4.2388,4.2462,4.1855,4.2033,4.2609,4.1983,4.194,4.2173,4.1264,4.0413,3.9631,3.9445,3.9373,3.9373,3.9373,3.9373,3.9373,3.9373,3.9373,3.9373,3.9373,3.9373,0.0,0.0,0.0,0.0,0.0,0.0,0.0,0.0,4.3279,4.3728,4.5663,4.6052,4.6591,4.8356,4.8656,4.9045,5.0196,5.0375,5.0554,5.1139,5.1229,5.1229,5.1229,5.1229,5.1229,5.1229,5.1229,5.1229,5.1229,5.1229,5.1229,5.1229,5.1229,5.1229,5.1229,5.1229,5.1229,5.1229,5.0451,4.9793,4.9299,4.8476,4.7818,4.7309,4.7309,4.7309,4.7249,4.5873,4.5155,4.4825,4.3738,4.329,4.317,4.1893,4.1055,4.0487,3.9709,3.9373,3.9373,0.0,2.8877,3.0279,3.047,3.1114,3.2069,3.3386,3.4426,3.5738,3.7643,3.799,3.8261,3.8937,3.8261,3.8294,3.9623,0.0,0.0,4.32,4.4012,4.4513,4.4615,4.3842,4.3375,4.3375,4.2591,4.2185,4.2185,4.2185,4.2185,4.2185,4.2252,4.2286,4.2286,4.2286,4.2658,4.3274,4.3192,4.363,4.4305,4.422,4.376,4.3078,4.2205,4.1297,4.0451,3.9666,3.9373,3.9373,3.9373,3.9373,3.9373,3.9373,3.9373,3.9373,3.9373,3.9373,3.9373,3.9373,3.9373,3.9858,4.1722,4.1782,4.2312,0.0,4.6292,4.6441,4.8461,4.888,4.9075,4.9837,4.9986,5.0226,5.099,5.1109,5.1139,5.1199,5.1229,5.1229,5.1229,5.1229,5.1229,5.1229,5.1229,5.1229,5.1229,5.1229,5.1229,5.1229,5.1229,5.1229,5.1229,5.1229,5.1229,5.1229,5.0002,4.9389,4.9299,4.7997,4.7369,4.7309,4.7309,4.7309,4.7249,4.5873,4.4616,4.3499,4.3349,4.329,4.317,4.1893,4.1324,4.1115,3.9888,3.9373,3.9373,0.0,2.8395,2.9728,3.0279,3.1356,3.2355,3.2949,3.431,3.5578,3.6488,3.7739,3.8667,3.8971,3.8734,3.8971,3.9995,4.0772,4.1847,4.3274,4.4147,4.4615,4.4615,4.4282,4.4079,4.4079,4.3335,4.2963,4.2963,4.2963,4.2963,4.2963,4.3403,4.3667,4.3667,4.3667,4.3809,4.4079,4.4079,4.4282,4.4615,4.4615,4.4384,4.3919,4.252,4.1756,4.1295,3.9884,3.9373,0.0,0.0,3.9373,3.9373,3.9373,3.9373,3.9373,3.9373,3.9373,3.9499,3.9888,4.0277,4.0935,4.2521,4.3,4.3838,4.6651,4.71,4.7459,4.9434,4.9823,5.0032,5.0644,5.0764,5.0853,5.1169,5.1229,5.1229,5.1229,5.1229,5.1229,5.1229,5.1229,5.1229,5.1229,5.1229,5.1229,5.1229,5.1229,5.1229,5.1229,5.1229,5.1229,5.1229,5.1229,5.1229,5.1229,5.0301,4.9643,4.9299,4.8327,4.7668,4.7309,4.7309,4.689,4.6082,4.5125,4.4197,4.329,4.329,4.329,4.317,4.1893,4.1422,4.1235,3.9918,3.9373,3.9373,0.0,2.762,2.8809,3.0088,3.1217,3.2102,3.2547,3.3889,3.5064,3.5607,3.7261,3.863,3.9242,3.9276,3.9512,4.0054,4.0967,4.1948,4.3031,4.4012,4.4615,4.4615,4.4615,4.4615,4.4615,4.4012,4.3741,4.3741,4.3741,4.3741,4.3741,4.4344,4.4615,4.4615,4.4615,4.4615,4.4615,4.4615,4.4615,4.4615,4.4615,4.4615,4.4412,4.2676,4.1981,4.1756,4.0025,3.9373,0.0,0.0,3.9373,3.9373,3.9373,3.9373,3.9373,3.9373,3.9373,3.9559,4.0217,4.0756,4.1504,4.318,4.3958,4.4885,4.707,4.7728,4.8297,4.9867,5.0345,5.0614,5.1139,5.1229,5.1229,5.1229,5.1229,5.1229,5.1229,5.1229,5.1229,5.1229,5.1229,5.1229,5.1229,5.1229,5.1229,5.1229,5.1229,5.1229,5.1229,5.1229,5.1229,5.1229,5.1229,5.1229,5.1229,5.0391,4.9733,4.9299,4.8416,4.7758,4.7309,4.713,4.6411,4.5244,4.4586,4.3917,4.329,4.329,4.329,4.317,4.1893,4.1422,4.1235,3.9918,3.9373,3.9373,0.0,0.0,2.7656,2.9911,3.0329,3.0867,3.2351,3.2656,3.3396,3.5432,3.6372,3.7685,3.9834,4.0079,4.0079,4.0113,4.1407,4.2286,4.232,4.3768,4.4615,4.4615,4.4615,4.4615,4.4615,4.4581,4.4581,4.4581,4.4581,4.4581,4.4581,4.4581,4.4615,4.4615,4.4615,4.4615,4.4615,4.4615,4.4615,4.4615,4.4615,4.4615,4.4412,4.2676,4.1981,4.1756,4.0025,0.0,0.0,3.9373,3.9373,3.9373,3.9373,3.9373,3.9373,3.9373,3.9373,3.9559,4.0217,4.0397,4.1055,4.3629,4.4287,4.5005,4.7638,4.8745,4.9404,5.0046,5.0704,5.1199,5.1229,5.1229,5.1229,5.1229,5.1229,5.1229,5.1229,5.1229,5.1229,5.1229,5.1229,5.1229,5.1229,5.1229,5.1229,5.1229,5.1229,5.1229,5.1229,5.1229,5.1229,5.1229,5.1229,5.1229,5.1229,4.9942,4.9329,4.9299,4.7967,4.7339,4.7279,4.6651,4.5963,4.5244,4.4586,4.3917,4.329,4.329,4.329,4.317,4.1893,4.1422,4.1235,3.9918,3.9373,3.9373,0.0,0.0,0.0,2.8383,2.9535,3.048,3.0984,3.1962,3.2994,3.4116,3.5724,0.0,0.0,0.0,0.0,0.0,4.1271,4.1982,4.2963,4.3538,4.4045,4.4581,4.4615,4.4615,4.4615,4.4615,4.4615,4.4615,4.4615,4.4615,4.4615,4.4615,4.4615,4.4615,4.4615,4.4615,4.4615,4.4615,4.4857,4.5235,4.4177,4.4038,4.4191,4.2012,4.1131,4.0995,0.0,0.0,0.0,3.9373,3.9373,3.9373,3.9373,3.9373,3.9373,3.9373,3.9738,4.0217,4.0876,4.1422,4.2261,4.4407,4.4975,4.5544,4.7788,4.8446,4.8805,4.9464,4.9763,5.0062,5.0435,5.0524,5.0674,5.1139,5.1229,5.1229,5.1229,5.1229,5.1229,5.1229,5.1229,5.1229,5.1229,5.1229,0.0,5.1229,5.1229,5.1229,5.1229,5.1229,5.1229,5.1229,5.1229,5.1229,5.1229,4.9912,4.9299,4.9299,4.7938,4.7309,4.7279,4.6142,4.5514,4.5244,4.4137,4.3499,4.329,4.329,4.329,4.317,4.1893,4.1422,4.1235,3.9918,3.9373,3.9373,0.0,0.0,0.0,0.0,0.0,0.0,0.0,0.0,0.0,0.0,0.0,0.0,0.0,0.0,0.0,0.0,0.0,4.161,4.253,4.3105,4.3639,4.4147,4.4445,4.4615,4.4615,4.4615,4.4615,4.4615,4.4615,4.4615,4.4615,4.4615,4.4615,4.4615,4.4615,4.4615,4.4615,4.4615,4.4682,4.4733,4.3731,4.3401,4.3325,4.1453,4.069,0.0,0.0,0.0,0.0,3.9373,3.9373,3.9373,3.9373,3.9373,3.9433,3.9709,4.0068,4.0606,4.1542,4.2081,4.286,4.4796,4.5304,4.5753,4.7549,4.8117,4.8416,4.888,4.9149,4.9449,4.9823,5.0016,5.0315,5.0764,5.105,5.1229,5.1229,5.1229,5.1229,5.1229,5.1229,5.1229,5.1229,5.1229,5.1229,5.1229,5.1229,5.1229,5.1229,5.1229,5.1229,5.1229,5.1229,5.1063,5.0823,4.9793,4.909,4.8566,4.7698,4.7309,4.7249,4.5903,4.5304,4.5214,4.3858,4.329,4.329,4.329,4.329,4.317,4.1893,4.1422,4.1235,3.9918,3.9373,3.9373,0.0,0.0,0.0,0.0,0.0,0.0,0.0,0.0,0.0,0.0,0.0,0.0,0.0,0.0,0.0,0.0,0.0,0.0,4.1152,4.2496,0.0,4.3375,4.4113,4.4581,4.4615,4.4615,4.4615,4.4615,4.4615,4.4615,4.4615,4.4615,4.4615,4.4615,4.4615,4.4587,4.4525,4.4525,4.4068,4.3295,4.3202,4.2709,4.1884,4.0961,0.0,0.0,0.0,0.0,3.9373,3.9373,3.9373,3.9373,3.9373,3.9403,3.9589,4.0217,4.0457,4.0756,4.2051,4.241,4.292,4.4766,4.5274,4.5633,4.695,4.7758,4.8237,4.8237,4.876,4.9209,4.9239,4.9733,5.0136,5.0196,5.0734,5.1229,5.1229,5.1229,5.1229,5.1229,5.1229,5.1229,5.1229,5.1229,5.1229,5.1229,0.0,5.1229,5.1229,5.1229,5.1229,5.1229,5.1229,5.09,5.0196,4.9553,4.8566,4.7309,4.7309,4.7309,4.7249,4.5903,4.5304,4.5214,4.3858,4.329,4.329,4.329,4.329,4.317,4.1893,4.1422,4.1235,3.9918,3.9373,3.9373,0.0,0.0,0.0,0.0,0.0,0.0,0.0,0.0,0.0,0.0,0.0,0.0,0.0,0.0,0.0,0.0,0.0,0.0,4.0358,4.1251,0.0,4.3341,4.3606,4.3978,4.4581,4.4615,4.4615,4.4615,4.4615,4.4615,4.4615,4.4615,4.4615,4.4615,4.4615,4.4241,4.3621,4.3621,4.3434,4.3041,0.0,4.1545,4.1713,0.0,0.0,0.0,0.0,0.0,3.9373,3.9373,3.9373,3.9373,3.9373,3.9738,4.0187,4.0337,4.1085,4.1961,4.2321,4.2731,4.3329,4.4317,4.4915,4.5514,4.6381,4.707,4.7549,4.7549,4.7698,4.7967,4.8446,4.9075,4.9673,5.0106,5.0734,5.1229,5.1229,5.1229,5.1229,5.1229,5.1229,5.1229,5.1229,5.1229,5.1229,0.0,5.1229,5.1229,5.1229,5.1229,5.1229,5.1229,5.1229,5.09,5.0196,4.9105,4.8117,4.7309,4.7309,4.7309,4.7249,4.5903,4.5304,4.5214,4.3858,4.329,4.329,4.329,4.329,4.317,4.1893,4.1422,4.1235,3.9918,3.9373,3.9373,0.0,0.0,0.0,0.0,0.0,0.0,0.0,0.0,0.0,0.0,0.0,0.0,0.0,0.0,0.0,0.0,0.0,0.0,0.0,4.0043,4.1166,4.2395,4.3036,4.3742,4.4553,4.4615,4.4615,4.4615,0.0,0.0,4.4615,4.4212,4.4035,4.4006,4.3651,4.3199,4.2707,4.2707,0.0,0.0,0.0,0.0,0.0,0.0,0.0,0.0,0.0,3.9619,3.9858,3.9858,3.9858,3.9888,4.0187,4.0546,4.0876,4.1175,4.1811,4.247,4.2701,4.306,4.3439,4.4137,4.4586,4.5035,4.5723,4.6381,4.686,4.686,4.71,4.7429,4.7788,4.8626,4.9419,4.9763,5.0601,5.1229,5.1229,5.1229,5.1229,5.1229,5.1229,5.1229,5.1229,5.1229,5.1229,5.1229,5.1229,5.1229,5.1229,5.1229,5.1229,5.1229,5.1229,5.078,4.9823,4.8506,4.7668,4.7309,4.7309,4.7309,4.7249,4.5903,4.5304,4.5214,0.0,4.329,4.329,4.329,4.329,4.32,4.2192,4.1662,4.1265,4.0217,3.9679,3.9373,0.0,0.0,0.0,0.0,0.0,0.0,0.0,0.0,0.0,0.0,0.0,0.0,0.0,0.0,0.0,0.0,0.0,0.0,0.0,0.0,0.0,4.1103,4.2318,4.3403,4.4236,4.4236,4.4236,4.4236,0.0,0.0,0.0,0.0,0.0,0.0,0.0,0.0,0.0,0.0,0.0,0.0,0.0,0.0,0.0,0.0,0.0,0.0,3.9373,3.9798,4.0307,4.0457,4.0516,4.0636,4.1205,4.1482,4.1662,4.2231,4.247,4.265,4.314,4.329,4.3439,4.4007,4.4257,4.4466,4.5035,4.5693,4.6202,4.6249,4.677,4.7189,4.7279,4.8297,4.9209,4.9299,5.0301,5.1109,5.1199,5.1229,5.1229,5.1229,5.1229,5.1229,5.1229,5.1229,5.1229,5.1229,5.1229,5.1229,5.1229,5.1229,5.1169,5.1079,5.102,5.0361,4.9179,4.7908,4.7309,4.7309,4.7309,4.7249,4.713,4.5873,4.5244,4.5095,4.3828,4.329,4.329,4.329,4.329,4.323,4.2611,4.2051,4.1452,4.0666,4.0038,3.9493,0.0,0.0,0.0,0.0,0.0,0.0,0.0,0.0,0.0,0.0,3.1459,0.0,0.0,0.0,0.0,0.0,0.0,0.0,0.0,0.0,0.0,4.0921,4.1178,4.1657,4.2425,4.2458,4.2458,4.2458,4.2458,0.0,0.0,0.0,0.0,0.0,0.0,0.0,0.0,0.0,0.0,0.0,0.0,0.0,0.0,0.0,0.0,0.0,3.9373,3.9463,3.9738,4.0846,4.1205,4.1235,4.1354,4.1782,4.2261,4.2381,4.2731,4.314,4.326,4.329,4.3319,4.3439,4.3858,4.4347,4.4466,4.5005,4.5633,4.6202,4.6369,4.6651,4.7219,4.7938,4.8626,4.9209,4.9912,5.0554,5.1139,5.1229,5.1229,5.1229,5.1229,5.1229,5.1229,5.1229,5.1229,0.0,5.1229,5.1229,5.1229,5.1229,5.0913,5.0375,4.9883,4.9224,4.8476,4.7698,4.7309,4.7309,4.7309,4.701,4.6429,4.5663,4.5005,4.4436,4.3618,0.0,4.329,4.329,4.329,4.323,4.2611,4.2321,4.2081,4.0846,4.0337,4.0157,0.0,0.0,0.0,0.0,0.0,0.0,0.0,0.0,0.0,0.0,3.021,3.1566,0.0,0.0,0.0,0.0,0.0,0.0,0.0,0.0,0.0,0.0,0.0,4.1179,4.1981,4.1981,4.1981,4.1981,0.0,4.1981,4.1981,4.1528,4.1297,4.1297,4.0826,4.0413,0.0,0.0,0.0,0.0,0.0,0.0,0.0,0.0,0.0,0.0,0.0,3.9858,4.0487,4.0756,4.1085,4.1542,4.2192,4.2611,4.288,4.288,4.309,4.329,4.329,4.329,4.329,4.329,4.3529,4.3768,4.3768,4.4317,4.4975,4.5633,4.6082,4.6531,4.7189,4.7848,4.8386,4.876,4.9314,4.9972,5.0554,5.0674,5.0794,5.1169,5.1229,5.1229,5.1229,5.1229,5.1229,5.1229,5.1229,5.1229,5.1229,5.0853,5.0524,5.0196,4.9284,4.864,4.8297,4.7638,4.7309,4.7309,4.7309,4.695,4.6249,4.5603,4.4945,4.4287,4.3589,4.329,4.329,4.329,4.329,4.326,4.3,4.2671,4.2321,4.1692,4.0995,4.0337,0.0,0.0,0.0,0.0,0.0,0.0,0.0,2.7821,2.8348,2.9026,2.9704,3.0881,3.2751,3.4363,3.539,0.0,0.0,0.0,0.0,0.0,0.0,0.0,0.0,4.0724,4.1428,0.0,0.0,4.1461,4.1461,0.0,0.0,0.0,0.0,0.0,3.9211,3.8841,3.9017,0.0,0.0,0.0,0.0,3.9252,0.0,0.0,0.0,0.0,0.0,4.0397,4.1115,4.0726,4.0935,4.1564,4.2581,4.3,4.312,4.312,4.32,4.329,4.329,4.329,4.329,4.329,4.329,4.329,4.329,4.3708,4.4317,4.5125,4.5723,4.6352,4.716,4.7728,4.8117,4.8267,4.888,4.9494,5.0106,5.0315,5.0584,5.1169,5.1229,5.1229,5.1229,5.1229,5.1229,5.1229,5.1229,5.1169,5.102,5.0465,5.0076,4.9777,4.8835,4.8207,4.8087,4.7549,4.7309,4.7309,4.7309,4.689,4.6082,4.5544,4.4855,4.4077,4.3529,4.329,0.0,4.329,4.329,4.329,4.329,4.303,4.259,4.244,4.1662,4.0576,0.0,0.0,0.0,0.0,0.0,0.0,0.0,2.8072,2.8499,2.9578,3.0608,3.1342,3.1569,3.2594,3.385,0.0,0.0,0.0,0.0,0.0,0.0,0.0,0.0,0.0,0.0,0.0,0.0,3.9631,3.9631,0.0,0.0,0.0,0.0,0.0,0.0,3.706,3.7881,3.6905,0.0,0.0,0.0,0.0,0.0,0.0,0.0,0.0,0.0,4.0876,4.0576,4.1115,4.1324,4.1414,4.1534,4.2021,4.25,4.25,4.288,4.329,4.329,4.329,4.329,4.329,4.329,4.329,4.329,4.3349,4.3738,4.5035,4.5334,4.5783,4.707,4.7369,4.7578,4.8177,4.888,4.9494,5.0106,5.0704,5.1139,5.1199,5.1229,5.1229,5.1229,5.1229,5.1229,5.1229,5.1229,5.0913,5.0315,5.0226,4.9657,4.8506,4.8356,4.7997,4.7399,4.7339,4.7309,4.7309,4.7309,4.6621,4.5394,4.5334,4.4616,4.3379,4.3319,4.329,0.0,4.329,4.329,4.329,4.329,4.326,4.314,4.262,4.1961,4.1205,0.0,0.0,0.0,0.0,0.0,0.0,0.0,2.7705,2.8624,3.0105,3.0658,3.116,3.1813,3.2275,3.3175,0.0,0.0,0.0,0.0,0.0,0.0,0.0,0.0,0.0,0.0,0.0,3.7776,3.8435,3.7776,0.0,0.0,0.0,0.0,0.0,0.0,3.6448,3.6799,3.6369,0.0,0.0,0.0,0.0,0.0,0.0,0.0,0.0,0.0,0.0,4.0965,4.0846,4.0786,4.0726,4.0337,4.0666,4.1324,4.2171,4.259,4.2851,4.32,4.329,4.329,4.329,4.329,4.329,4.329,4.329,4.3678,4.5035,4.5304,4.5693,4.707,4.7309,4.7399,4.7638,4.7908,4.8446,4.9494,4.9883,5.0331,5.1139,5.1229,5.1229,5.1229,5.1229,5.1229,5.1229,5.0794,5.0331,4.9673,4.9643,4.9224,4.8327,4.7908,4.7578,4.7309,4.7309,4.7309,4.7309,4.7309,4.6591,4.5304,4.5304,4.4586,4.329,4.329,4.329,0.0,4.329,4.329,4.329,4.329,4.329,4.326,4.303,4.2282,4.1354,0.0,0.0,0.0,0.0,0.0,0.0,2.5981,2.6832,2.8017,2.9865,3.0226,3.0819,3.2072,3.2365,3.2954,3.4111,0.0,0.0,0.0,0.0,0.0,0.0,0.0,0.0,0.0,0.0,3.6565,3.7329,3.6565,3.6212,0.0,0.0,3.5934,3.6172,0.0,0.0,0.0,0.0,0.0,0.0,0.0,0.0,0.0,0.0,0.0,0.0,0.0,0.0,0.0,0.0,0.0,4.0173,3.9808,3.9572,3.9795,4.156,4.2261,4.253,4.311,4.329,4.329,4.329,4.329,4.329,4.329,4.329,4.3678,4.5035,4.5304,4.5693,4.707,4.7309,4.7309,4.7309,4.7638,4.8207,4.9179,4.9629,5.0182,5.1109,5.1003,5.0973,5.1199,5.1229,5.1229,5.1229,5.0554,4.9942,4.9329,4.912,4.8686,4.8027,4.7549,4.7309,4.7309,4.7309,4.7309,4.7309,4.71,4.6411,4.5274,4.5095,4.4377,4.329,4.329,4.329,0.0,4.329,4.329,4.329,4.329,4.329,4.329,4.329,4.2491,4.1422,0.0,0.0,0.0,0.0,0.0,0.0,0.0,2.5368,2.6421,2.8644,2.9427,3.044,3.2014,3.2717,3.3111,3.3111,0.0,0.0,0.0,0.0,0.0,0.0,0.0,0.0,0.0,0.0,3.6212,3.6251,3.6212,3.6212,3.6172,3.5156,3.5238,3.6132,0.0,0.0,0.0,0.0,0.0,0.0,0.0,0.0,0.0,0.0,0.0,0.0,0.0,0.0,0.0,0.0,0.0,0.0,0.0,3.8919,3.7786,4.0574,4.1901,4.253,4.311,4.329,4.329,4.329,4.329,4.329,4.329,4.329,4.3678,4.5035,4.5304,4.5693,4.707,4.7309,4.7309,4.7309,4.8386,4.9299,4.9299,5.0391,5.1199,5.1229,5.0584,5.0465,5.1169,5.1229,5.1229,5.1229,5.0554,0.0,4.9329,4.8656,4.7997,4.7339,4.7309,4.7309,4.7309,4.7309,4.7309,4.7309,4.6651,4.5963,4.5274,4.4616,4.3958,4.329,4.329,4.329,0.0,4.329,4.329,4.329,4.329,4.329,4.329,4.329,4.2491,4.1422,0.0,0.0,0.0,0.0,0.0,0.0,0.0,2.5088,2.6233,2.7983,2.8388,2.9256,3.1284,3.168,3.2152,3.3025,0.0,0.0,0.0,0.0,0.0,0.0,0.0,0.0,0.0,0.0,3.4444,3.5156,3.4444,3.4095,3.4053,3.3742,3.3784,3.4053,3.3386,3.3283,0.0,0.0,0.0,0.0,0.0,0.0,0.0,0.0,0.0,0.0,0.0,0.0,0.0,0.0,0.0,0.0,0.0,0.0,0.0,3.8145,3.8956,3.958,4.0177,4.0659,4.1169,4.1947,4.2152,4.2345,4.313,4.329,4.3678,4.5035,4.5304,4.5693,4.707,4.7309,4.7459,4.7908,4.8327,4.8925,4.9793,5.0255,5.0674,5.1169,5.0973,5.099,5.1199,0.0,5.0973,5.0524,4.9942,4.9284,4.8626,4.7967,4.7519,4.7309,4.7309,4.7309,4.7309,4.7309,4.707,4.6621,4.6369,4.5723,4.4616,4.4407,4.3917,4.329,4.329,4.329,0.0,4.329,4.329,4.329,4.329,4.329,4.329,4.329,4.2491,4.1422,0.0,0.0,0.0,0.0,0.0,0.0,0.0,2.4179,2.5294,2.7064,2.7327,2.8121,3.0302,3.053,3.0866,3.1645,0.0,0.0,0.0,0.0,0.0,0.0,0.0,0.0,0.0,3.3428,3.3428,3.4121,3.3428,3.3111,3.3111,3.3111,3.3111,3.3111,3.3111,3.3111,0.0,0.0,0.0,0.0,0.0,0.0,0.0,0.0,0.0,0.0,0.0,0.0,0.0,0.0,0.0,0.0,0.0,0.0,0.0,0.0,3.6356,3.6876,3.8556,3.9459,4.0059,4.0788,4.0958,4.1253,4.2386,4.267,4.3175,4.4923,4.5304,4.5693,4.707,4.7309,4.7429,4.7848,4.8117,4.8656,4.9733,5.0046,5.0345,5.0764,5.1079,5.102,0.0,5.069,5.0571,4.9912,4.9254,4.876,4.8297,4.7668,4.7309,4.7309,4.7309,4.7309,4.7309,4.707,4.6741,4.6279,4.5813,4.5125,4.4317,4.4047,4.3678,4.329,4.329,4.329,0.0,4.329,4.329,4.329,4.329,4.329,4.329,4.329,4.2491,4.1422,0.0,0.0,0.0,0.0,0.0,0.0,0.0,0.0,0.0,0.0,2.6172,2.6982,2.9032,2.9258,2.9326,0.0,0.0,0.0,0.0,0.0,0.0,0.0,0.0,0.0,0.0,3.3111,3.3111,3.3111,3.3111,3.3111,3.3111,3.3111,3.3111,3.3111,3.3111,3.3111,0.0,0.0,0.0,0.0,0.0,0.0,0.0,0.0,0.0,0.0,0.0,0.0,0.0,0.0,0.0,0.0,0.0,0.0,0.0,0.0,0.0,0.0,0.0,3.9145,3.964,3.9754,3.9754,4.0059,4.1211,4.1462,0.0,4.4614,4.5132,4.555,4.698,4.7249,4.7279,4.7369,4.7878,4.8506,4.9209,4.9823,5.0196,5.0196,5.0734,5.0661,4.9449,4.9823,4.9883,4.9299,4.8626,4.8267,4.8207,4.7638,4.7279,4.7249,4.7249,4.7249,4.7249,4.6591,4.619,4.613,4.4915,4.4287,4.4227,4.3559,4.329,0.0,4.329,0.0,0.0,4.329,4.329,4.329,4.329,4.329,4.329,4.329,4.2521,4.1482,0.0,0.0,0.0,0.0,0.0,0.0,0.0,0.0,0.0,0.0,2.4854,2.5635,2.7802,2.8049,0.0,0.0,0.0,0.0,0.0,0.0,0.0,0.0,0.0,0.0,0.0,3.3111,3.3111,3.3111,3.3111,3.3111,3.3111,3.3111,3.3111,3.3111,3.3111,3.3111,0.0,0.0,0.0,0.0,0.0,0.0,0.0,0.0,0.0,0.0,3.3674,3.382,0.0,0.0,0.0,0.0,0.0,0.0,0.0,0.0,3.3662,3.418,3.5391,0.0,3.6839,3.8182,3.8514,3.8827,0.0,4.0275,4.0843,4.2807,4.3235,4.3926,4.6122,4.6561,4.689,4.7908,4.8177,4.8506,4.9209,4.9823,5.0196,5.0196,5.0315,5.0152,4.9389,4.9449,4.9224,4.8566,4.8386,4.8057,4.7549,4.7399,4.707,4.6561,4.6561,4.6561,4.6561,4.5873,4.5274,4.4796,4.4466,4.4007,4.3529,4.3349,4.329,4.329,4.329,0.0,4.329,4.329,4.329,4.329,4.329,4.329,4.329,4.329,4.2821,4.2081,0.0,0.0,0.0,0.0,0.0,0.0,0.0,0.0,0.0,0.0,0.0,0.0,0.0,0.0,0.0,0.0,0.0,0.0,0.0,0.0,0.0,0.0,0.0,0.0,3.3068,3.3111,3.3111,3.3111,3.3111,3.3111,3.3111,3.3111,3.3111,3.3111,3.3111,3.3111,0.0,0.0,0.0,0.0,0.0,0.0,0.0,0.0,0.0,0.0,3.3111,3.3111,0.0,3.3111,3.3111,3.3111,0.0,0.0,0.0,0.0,3.3294,3.3696,3.45,3.5303,3.6172,3.7381,3.7676,3.7976,3.9186,3.9239,3.9744,4.2095,4.2622,4.328,4.5424,4.6112,4.6561,4.7279,4.7638,4.8057,4.876,4.9374,4.9793,4.9793,4.9793,4.9523,0.0,4.885,4.8536,4.7878,4.7848,4.7668,4.7339,4.701,4.6681,4.6279,4.5681,4.5544,4.5843,4.5185,4.4676,4.4317,4.4018,4.3648,4.329,4.329,4.329,4.329,0.0,0.0,4.329,4.329,4.329,4.329,4.329,4.329,4.329,4.329,4.2731,4.1901,0.0,0.0,0.0,0.0,0.0,0.0,0.0,0.0,0.0,0.0,0.0,0.0,0.0,0.0,0.0,0.0,0.0,0.0,0.0,0.0,0.0,0.0,0.0,3.1821,3.3068,3.3111,3.3111,3.3111,3.3111,3.3111,3.3111,3.3111,3.3111,3.3111,3.3111,3.3162,0.0,0.0,0.0,0.0,0.0,0.0,0.0,0.0,0.0,0.0,0.0,0.0,0.0,3.3111,3.3111,3.3111,3.3111,0.0,0.0,0.0,0.0,0.0,3.4424,3.5529,3.6531,3.6935,3.7111,3.7425,3.834,3.8155,3.8692,4.1567,4.2181,4.2836,4.4918,4.5783,4.619,4.6441,4.695,4.7549,4.8207,4.882,4.9179,4.9179,4.9179,0.0,4.8207,4.8147,4.7908,4.7339,4.7309,4.7249,4.716,4.6621,4.619,4.598,4.4915,4.4526,4.4975,4.4436,4.4167,4.4167,4.3559,4.329,4.329,4.329,4.329,4.329,0.0,0.0,4.329,4.329,4.329,4.329,4.329,4.329,4.329,4.329,4.2581,4.1542,0.0,0.0,0.0,0.0,0.0,0.0,0.0,0.0,0.0,0.0,0.0,0.0,0.0,0.0,0.0,0.0,0.0,0.0,0.0,0.0,0.0,0.0,3.0124,3.1821,3.3068,3.3111,3.3111,3.3111,3.3111,3.3111,3.3111,3.3111,3.3111,3.3111,3.3111,3.3345,3.3771,0.0,0.0,0.0,0.0,0.0,0.0,0.0,0.0,0.0,0.0,0.0,0.0,3.3111,3.3111,3.3111,3.3111,0.0,0.0,0.0,0.0,0.0,3.4424,3.5529,3.643,3.6505,3.6835,3.7109,3.6868,3.6738,3.7361,3.9821,4.0284,4.134,4.4662,4.5394,4.5813,4.698,4.7249,4.7549,4.8207,4.8386,4.8446,4.8446,0.0,4.8177,4.7519,4.7459,4.7429,4.7309,4.7309,4.707,4.6459,4.6381,4.5771,4.4646,4.4436,4.4107,4.3589,4.3499,4.3439,4.3439,4.3349,4.329,4.329,4.329,4.329,4.329,0.0,4.329,4.329,4.329,4.329,4.329,4.329,4.329,4.329,4.329,4.2851,4.2081,0.0,0.0,0.0,0.0,0.0,0.0,0.0,0.0,0.0,0.0,0.0,0.0,0.0,0.0,0.0,0.0,0.0,0.0,0.0,0.0,0.0,2.7552,2.8874,3.0354,3.2064,3.204,3.2413,3.3111,3.3111,3.3111,3.3111,3.3111,3.3111,3.3093,3.3395,3.3671,3.3947,3.4525,0.0,0.0,0.0,0.0,0.0,0.0,0.0,0.0,0.0,0.0,0.0,0.0,3.3111,3.3111,3.3111,0.0,0.0,0.0,0.0,0.0,3.4048,3.5077,3.5906,3.5906,3.701,3.7939,3.7387,3.701,3.7518,3.9868,4.0106,4.0899,4.4146,4.5065,4.5723,4.707,4.7309,4.7429,4.7728,4.7758,4.7758,0.0,0.0,4.7638,4.7339,4.7309,4.716,4.68,4.677,4.6471,4.5813,4.5424,4.4945,4.4347,4.3917,4.3589,4.329,4.329,4.329,4.329,4.329,4.329,4.329,4.329,4.329,4.329,0.0,4.329,4.329,4.329,4.329,4.329,4.329,4.329,4.326,4.294,4.2402,4.1722,0.0,0.0,0.0,0.0,0.0,0.0,0.0,0.0,0.0,0.0,0.0,0.0,0.0,0.0,0.0,0.0,0.0,0.0,0.0,0.0,2.6516,2.7146,2.7455,2.8628,3.0732,3.1045,3.1689,3.2655,3.2939,3.3144,3.3269,3.3269,3.3345,3.347,3.3897,3.4173,3.4349,3.5132,3.5583,0.0,0.0,0.0,0.0,0.0,0.0,0.0,0.0,0.0,0.0,0.0,0.0,0.0,0.0,0.0,0.0,3.3111,3.3111,3.3194,3.3746,3.46,3.5307,3.5307,3.6835,3.824,3.7889,3.7387,3.7702,4.0177,4.0366,4.094,4.379,4.4975,4.5873,4.692,4.7219,4.7309,4.7309,4.7309,4.7309,4.7309,4.7309,4.7309,4.7309,4.716,4.686,4.6309,4.613,4.5783,4.5095,4.4586,4.4257,4.4077,4.3559,4.329,4.329,4.329,4.329,4.329,4.329,4.329,4.329,4.329,4.329,4.329,4.329,4.329,4.329,4.329,4.329,4.329,4.329,4.329,4.323,4.265,4.1991,4.1294,0.0,0.0,0.0,0.0,0.0,0.0,0.0,0.0,0.0,0.0,0.0,0.0,0.0,0.0,0.0,0.0,0.0,0.0,0.0,0.0,2.5762,2.582,2.5859,2.7003,2.951,3.0619,3.1223,3.1356,3.2525,3.3345,3.3847,3.3847,3.4123,3.46,3.465,3.4906,3.5382,3.5458,3.583,3.6304,0.0,0.0,0.0,0.0,0.0,0.0,0.0,0.0,0.0,0.0,0.0,0.0,0.0,0.0,3.3111,3.3111,3.3111,3.3194,3.3746,3.4324,3.4776,3.4776,3.568,3.6707,3.7136,3.6857,3.7262,4.0096,4.0669,4.1418,4.3849,4.5364,4.6249,4.6381,4.692,4.7309,4.7309,0.0,4.7309,4.7309,4.7309,4.7309,4.7309,4.6741,4.6339,4.6279,4.5723,4.5095,4.4436,4.4347,4.3977,4.3379,4.3319,4.329,4.329,4.329,4.329,4.329,4.329,4.329,4.329,4.329,4.329,4.329,4.329,4.329,4.329,4.329,4.329,4.329,4.329,4.329,4.323,4.265,4.1991,4.1294,0.0,0.0,0.0,0.0,0.0,0.0,0.0,0.0,0.0,0.0,0.0,0.0,0.0,0.0,0.0,0.0,0.0,0.0,0.0,0.0,2.6016,2.5693,2.5996,2.6806,2.8236,2.9442,3.044,3.1223,3.2802,3.3275,3.2689,3.3004,3.3101,3.298,3.332,3.3829,3.4575,3.5207,3.5608,3.5855,3.6006,0.0,0.0,0.0,0.0,0.0,0.0,0.0,0.0,0.0,3.3111,3.3111,3.3111,3.3111,3.3111,3.3111,3.3111,3.3119,3.3345,3.4048,3.465,3.4299,3.5052,3.6081,3.6985,3.7287,3.8239,4.124,4.1249,4.1474,4.3879,4.5065,4.5693,4.5693,4.6262,4.6681,4.6681,4.704,4.7309,4.7309,4.695,4.6681,4.6681,4.6082,4.5514,4.5095,4.4825,4.4407,4.3708,4.3678,4.3559,4.329,4.329,4.329,4.329,4.329,4.329,4.329,4.329,4.329,4.329,4.329,4.329,4.329,4.329,4.329,4.329,4.329,4.329,4.329,4.329,4.329,4.326,4.306,4.2551,4.1991,0.0,0.0,0.0,0.0,0.0,0.0,0.0,0.0,0.0,0.0,0.0,0.0,0.0,0.0,0.0,0.0,0.0,0.0,2.5693,2.6016,2.6055,2.5693,2.6016,2.6428,2.7003,2.8588,2.9988,3.1223,3.2852,3.3079,3.1986,3.2709,3.2965,3.2795,3.3158,3.3661,3.4198,3.4931,3.5232,3.5282,3.5881,3.5454,0.0,0.0,0.0,0.0,0.0,0.0,0.0,0.0,3.3111,3.3111,3.3111,3.3111,3.3111,3.3111,3.3194,3.3345,3.3345,3.3897,3.4399,3.4198,3.468,3.5533,3.6684,3.7236,3.8341,4.1349,4.1719,4.2009,4.3704,4.4556,4.4975,4.4975,4.5574,4.5992,4.5992,4.6381,4.6681,4.6681,4.6262,4.5992,4.5992,4.5394,4.4796,4.4347,4.4107,4.3768,4.3319,4.329,4.329,4.329,4.329,4.329,4.329,4.329,4.329,4.329,4.329,4.329,4.329,4.329,4.329,4.329,4.329,4.329,4.329,4.329,4.329,4.329,4.329,4.329,4.329,4.329,4.291,4.241,0.0,0.0,0.0,0.0,0.0,0.0,0.0,0.0,0.0,0.0,0.0,0.0,0.0,0.0,0.0,0.0,0.0,0.0,2.5693,2.5693,2.5693,2.5693,2.5693,2.5693,2.5742,2.8168,3.0056,3.1223,3.2481,3.2778,3.2122,3.3341,3.4154,3.4655,3.4655,3.4655,3.4655,3.468,3.468,3.4705,3.5257,3.4831,0.0,0.0,0.0,0.0,0.0,0.0,0.0,0.0,3.3111,3.3111,3.3111,3.3111,3.3136,3.3111,3.347,3.3897,3.3897,3.3897,3.4022,3.4575,3.4726,3.5072,3.6153,3.643,3.7215,4.0096,4.2132,4.329,4.329,4.3828,4.4317,4.4317,4.4855,4.5274,4.5274,4.5304,4.5304,4.5304,4.5274,4.5274,4.5274,4.4676,4.4317,4.4317,4.3678,4.329,4.329,4.329,4.329,4.329,4.329,4.329,4.329,4.329,4.329,4.329,4.329,4.329,4.329,4.329,4.329,4.329,4.329,4.329,4.329,4.329,4.329,4.329,4.329,4.329,4.329,4.329,4.291,4.241,0.0,0.0,0.0,0.0,0.0,0.0,0.0,0.0,0.0,0.0,0.0,0.0,0.0,0.0,0.0,0.0,0.0,0.0,2.5693,2.5693,2.5693,2.5693,2.5693,2.6524,2.8262,3.1083,3.2714,3.3093,3.3471,3.3276,3.2532,3.2901,3.2919,3.2726,3.2726,3.2554,3.2305,3.3593,3.3632,3.298,3.4363,3.455,0.0,0.0,0.0,0.0,0.0,0.0,0.0,0.0,0.0,0.0,3.3111,3.3345,3.3571,3.3194,3.347,3.3822,3.342,3.4178,3.5063,3.5262,3.6495,3.7752,3.8145,3.8179,3.8859,4.1374,4.3011,4.3858,4.3379,4.3439,4.3589,4.3589,4.4167,4.4616,4.4616,4.5005,4.5304,4.5304,4.4885,4.4616,4.4616,4.4018,4.3589,4.3589,4.3409,4.329,4.329,4.329,4.329,4.329,4.329,4.329,4.329,4.329,4.329,4.329,4.329,4.329,4.329,4.329,4.329,4.329,4.329,4.329,4.329,4.329,4.329,4.329,4.329,4.329,4.329,4.329,4.317,4.297,0.0,0.0,0.0,0.0,0.0,0.0,0.0,0.0,0.0,0.0,2.5693,2.5693,0.0,0.0,0.0,0.0,0.0,0.0,0.0,0.0,2.5693,2.5693,2.5693,2.6668,2.8634,3.1156,3.2665,3.3207,3.3676,3.3399,3.2483,3.275,3.271,3.235,3.1833,3.1463,3.1247,3.1848,3.1698,3.1202,3.2956,3.331,3.2887,0.0,0.0,0.0,0.0,0.0,0.0,0.0,0.0,0.0,3.3111,3.3294,3.3545,3.3445,3.3646,3.4054,3.4612,3.534,3.6098,3.7064,3.8121,3.9129,3.9845,3.9988,4.0382,4.1796,4.3025,4.3768,4.3349,4.329,4.329,4.329,4.3618,4.3888,4.3888,4.4257,4.4526,4.4526,4.4167,4.3888,4.3888,4.3529,4.329,4.329,4.329,4.329,4.329,4.329,4.329,4.329,4.329,4.329,4.329,4.329,4.329,4.329,4.329,4.329,4.329,4.329,4.329,4.329,4.329,4.329,4.329,4.329,4.329,4.329,4.329,4.329,4.329,4.329,4.329,4.32,0.0,0.0,0.0,0.0,0.0,0.0,0.0,0.0,0.0,0.0,2.5693,2.5693,0.0,0.0,0.0,0.0,0.0,0.0,0.0,0.0,2.5693,2.5693,2.582,2.6428,2.76,2.9421,3.0951,3.2077,3.3296,3.3341,3.2258,3.2816,3.3025,3.2896,3.1733,3.1089,3.0822,2.9806,2.9396,2.9532,3.1293,3.1765,3.1536,3.3201,0.0,0.0,0.0,0.0,0.0,0.0,0.0,0.0,3.3111,3.3119,3.3244,3.3696,3.3847,3.4363,3.6551,3.6883,3.7096,3.9412,3.9673,3.9803,4.136,4.1753,4.1753,4.1753,4.2589,4.329,4.329,4.329,4.329,4.329,4.329,4.329,4.329,4.329,4.329,4.329,4.329,4.329,4.329,4.329,4.329,4.329,4.329,4.329,4.329,4.329,4.329,4.329,4.329,4.329,4.329,4.329,4.329,4.329,4.329,4.329,4.329,4.329,4.329,4.329,4.329,4.329,4.329,4.329,4.329,4.329,4.329,4.329,4.329,4.329,4.326,4.315,0.0,0.0,0.0,0.0,0.0,0.0,0.0,0.0,0.0,0.0,0.0,0.0,0.0,0.0,0.0,0.0,0.0,0.0,0.0,0.0,2.5693,2.5693,2.6668,2.7315,2.7579,3.0283,3.1849,3.2077,3.3296,3.3765,3.3518,3.3233,3.2568,3.1601,3.1311,3.0124,2.8402,2.9096,2.9396,2.951,3.0849,3.1918,3.2723,3.3107,3.3194,0.0,0.0,0.0,0.0,0.0,0.0,0.0,3.3111,3.337,3.3671,3.3345,3.3571,3.4186,3.5581,3.6503,3.7648,3.9991,4.1523,4.2452,4.2871,4.2941,4.2941,4.2941,4.313,4.329,4.329,4.329,4.329,4.329,4.329,4.329,4.329,4.329,4.329,4.329,4.329,4.329,4.329,4.329,4.329,4.329,4.329,4.329,4.329,4.329,4.329,4.329,4.329,4.329,4.329,4.329,4.329,0.0,4.329,4.329,4.329,4.329,4.329,4.329,4.329,4.329,4.329,4.329,4.329,4.329,4.329,4.329,4.329,4.329,4.3,4.25,0.0,0.0,0.0,0.0,0.0,0.0,0.0,0.0,0.0,0.0,0.0,0.0,0.0,0.0,0.0,0.0,0.0,0.0,0.0,0.0,2.5693,2.5693,2.6332,2.6982,2.76,2.9958,3.1342,3.1696,3.3173,3.3897,3.3897,3.3596,3.314,3.243,3.1219,3.0032,2.8773,2.7993,2.7626,2.7767,2.9004,2.9875,3.0598,3.1733,3.2196,3.2283,3.2896,0.0,0.0,0.0,0.0,0.0,0.0,0.0,3.3495,3.347,3.3495,3.3987,3.6209,3.7222,3.8361,4.1255,4.2634,4.32,4.294,4.288,4.288,4.288,4.312,4.329,4.329,4.329,4.329,4.329,4.329,4.329,4.329,4.329,4.329,4.329,4.329,4.329,4.329,4.329,4.329,4.329,4.329,4.329,4.329,4.329,4.329,4.329,4.329,4.329,4.329,4.329,4.329,4.329,4.329,4.329,4.329,4.329,4.329,4.329,4.329,4.329,4.329,4.329,4.329,4.329,4.329,4.315,4.288,4.288,4.2462,4.1841,0.0,0.0,0.0,0.0,0.0,0.0,0.0,0.0,0.0,0.0,0.0,0.0,0.0,0.0,0.0,0.0,0.0,0.0,0.0,2.5693,2.5693,2.5693,2.5917,2.662,2.7861,2.9542,3.0743,3.1557,3.3014,3.3796,3.3897,3.3897,3.3809,3.3474,3.1459,3.0371,2.9885,2.7195,2.6159,2.6428,2.7268,2.772,2.8143,3.0124,3.1045,3.1356,3.237,3.2896,3.3111,3.3111,0.0,0.0,0.0,0.0,3.3212,3.3621,3.3445,3.3785,3.6847,3.8145,3.936,4.2376,4.32,4.311,4.256,4.241,4.2381,4.2261,4.2701,4.317,4.326,4.329,4.329,4.329,4.329,4.329,4.329,4.329,4.329,4.329,4.329,4.329,4.329,4.329,4.329,4.329,4.329,4.329,4.329,4.329,4.329,4.329,4.329,4.329,4.329,4.329,4.329,4.329,4.329,4.329,4.329,4.329,4.329,4.329,4.329,4.323,4.311,4.311,4.305,4.2961,4.2961,4.2671,4.2231,4.2231,4.1811,4.1145,0.0,0.0,0.0,0.0,0.0,0.0,0.0,0.0,0.0,0.0,2.5693,2.5693,2.5693,2.5391,0.0,0.0,0.0,0.0,2.5654,0.0,0.0,2.5693,2.6764,2.7908,2.912,3.0419,3.1673,3.2853,3.3101,3.342,3.3897,3.3897,3.3341,3.2328,3.1986,3.0973,2.9416,2.7977,2.7955,2.8819,2.7955,2.8236,2.9189,2.951,3.0259,3.1223,3.14,3.2152,3.3111,3.3111,3.3111,0.0,0.0,0.0,3.3093,3.3212,3.3187,3.3495,3.5426,3.8159,4.0781,4.2198,4.291,4.311,4.256,4.241,4.2231,4.1662,4.2081,4.2671,4.32,4.329,4.329,4.329,4.329,4.329,4.329,4.329,4.329,4.329,4.329,4.329,4.329,4.329,4.329,4.329,4.329,4.329,4.329,4.329,4.329,4.329,4.329,4.329,4.329,4.329,4.329,4.329,4.329,4.329,4.329,4.329,4.329,4.329,4.329,4.3,4.253,4.253,4.2201,4.1654,4.1654,4.1594,4.1504,4.1504,4.1085,4.0516,0.0,0.0,0.0,0.0,0.0,0.0,0.0,0.0,0.0,0.0,0.0,2.5693,2.5693,2.5566,0.0,0.0,0.0,0.0,2.5674,2.5693,0.0,0.0,2.6887,2.8168,2.935,3.0574,3.1821,3.3111,3.3111,3.352,3.4349,3.4349,3.4255,3.3955,3.2971,3.211,3.1229,2.9364,2.8912,2.928,2.8096,2.8057,2.8722,2.8463,2.8833,2.9591,3.0057,3.1,3.2064,3.2064,3.2525,3.3111,3.3111,0.0,0.0,0.0,3.3111,3.347,3.5136,3.7578,3.9971,4.1203,4.213,4.2731,4.247,4.2111,4.1782,4.1482,4.1324,4.1564,4.2611,4.309,4.329,4.329,4.329,4.329,4.329,4.329,4.329,4.329,4.329,4.329,4.329,4.329,4.329,4.329,4.329,4.329,4.329,4.329,4.329,4.329,4.329,4.329,4.329,4.329,4.329,4.329,4.329,4.315,4.2791,4.2791,4.2791,4.2791,4.2791,4.2402,4.1841,4.1841,4.1692,4.1422,4.1422,4.1145,4.0816,4.0816,4.0427,3.9858,0.0,0.0,0.0,0.0,0.0,0.0,0.0,0.0,0.0,0.0,0.0,0.0,2.5693,0.0,0.0,0.0,0.0,0.0,2.5566,0.0,0.0,0.0,0.0,2.8495,2.935,3.0911,3.2152,3.3111,3.3111,3.3646,3.468,3.468,3.5102,3.5683,3.4206,3.3399,3.3039,3.0973,2.9919,2.9505,2.8267,2.7654,2.7551,2.7469,2.771,2.8157,2.8849,3.0011,3.1223,3.1223,3.2064,3.3111,3.3111,3.3111,0.0,0.0,0.0,3.3444,3.4952,3.6634,3.8394,4.0147,4.1301,4.2069,4.2342,4.1901,4.1324,4.1175,4.0756,4.0756,4.1931,4.2641,4.315,4.326,4.329,4.329,4.329,4.329,4.329,4.329,4.329,4.329,4.329,4.329,4.329,4.329,4.329,4.329,4.329,4.329,4.329,4.329,4.329,4.329,4.329,4.329,4.329,4.329,4.329,4.3,4.241,4.241,4.2201,4.1901,4.2081,4.1782,4.1145,4.1145,4.1025,4.0876,4.0876,4.0576,4.0157,4.0157,3.9828,3.9373,0.0,0.0,0.0,0.0,0.0,0.0,0.0,0.0,0.0,0.0,0.0,0.0,2.5693,2.5352,2.5145,2.5106,0.0,0.0,0.0,0.0,0.0,0.0,0.0,0.0,2.9396,3.1801,3.3025,3.3111,3.3111,3.3646,3.468,3.468,3.5303,3.6329,3.5662,3.479,3.3745,3.2485,3.1274,3.0043,2.8689,2.7227,2.5908,2.6741,2.727,2.7683,2.813,2.952,3.1223,3.1223,3.2064,3.3111,3.3111,3.3111,3.3111,0.0,0.0,0.0,3.4481,3.5224,3.641,3.9173,4.0365,4.115,4.2186,4.1901,4.1205,4.0576,4.0427,4.0606,4.1294,4.2021,4.265,4.32,4.329,4.329,4.329,4.329,4.329,4.329,4.329,4.329,4.329,4.329,4.329,4.329,4.329,4.329,4.329,4.329,4.329,4.329,4.329,4.329,4.329,4.329,4.329,4.329,4.329,4.3,4.241,4.241,4.1722,4.0546,4.1175,4.1055,4.0457,4.0457,4.0098,3.9529,3.9529,3.9463,3.9433,3.9433,3.9439,3.9373,0.0,0.0,0.0,0.0,0.0,0.0,0.0,0.0,0.0,0.0,0.0,0.0,0.0,2.5586,2.5371,2.5145,2.4969,0.0,0.0,0.0,0.0,0.0,0.0,0.0,2.935,3.1045,3.2283,3.3111,3.3111,3.347,3.4198,3.4198,3.4399,3.4801,3.4951,3.4756,3.4329,3.3206,3.2023,3.0809,3.0308,2.9008,2.7316,2.7357,2.7163,2.6801,2.6661,2.7583,2.9004,2.9761,3.0866,3.1996,3.2853,3.3111,3.3111,3.3111,3.3111,3.3197,3.3556,3.4334,3.5515,3.76,3.882,3.9925,4.1433,4.1602,4.1205,4.0546,4.0397,4.0606,4.1265,4.1961,4.262,4.32,4.329,4.329,4.329,4.329,4.329,4.329,4.329,4.329,4.329,4.329,4.329,4.329,4.329,4.329,4.329,4.329,4.329,4.329,4.329,4.329,4.329,4.329,4.329,4.329,4.329,4.2761,4.1782,4.1782,4.1025,3.9798,4.0008,3.9978,3.9768,3.9768,3.9619,3.9373,3.9373,3.9373,3.9373,3.9373,3.9373,3.9373,0.0,0.0,0.0,0.0,0.0,0.0,0.0,0.0,0.0,2.5693,0.0,0.0,0.0,0.0,2.5566,2.5165,2.5106,2.5195,2.5488,0.0,0.0,0.0,0.0,0.0,2.8773,3.0373,3.1601,3.2481,3.2896,3.3345,3.3897,3.3897,3.3997,3.4198,3.4374,3.4449,3.4399,3.3671,3.2665,3.1484,3.144,3.0055,2.7992,2.7992,2.724,2.6152,2.6016,2.6645,2.772,2.8541,2.9852,3.1356,3.2196,3.2742,3.3111,3.3111,3.3111,3.3111,3.3111,3.3641,3.4559,3.6238,3.7473,3.8742,4.0489,4.0948,4.0995,4.0756,4.0546,4.0666,4.1602,4.2111,4.262,4.32,4.329,4.329,4.329,4.329,4.329,4.329,4.329,4.329,4.329,4.329,4.329,4.329,4.329,0.0,4.329,4.329,4.329,4.329,4.329,4.329,4.329,4.329,4.329,4.329,4.312,4.2432,4.1422,4.1145,4.0457,3.9373,3.9373,3.9373,3.9373,3.9373,3.9373,3.9373,3.9373,3.9373,3.9373,3.9373,3.9373,3.9373,0.0,0.0,0.0,0.0,0.0,0.0,0.0,0.0,2.5693,2.5693,0.0,0.0,0.0,0.0,0.0,2.5165,2.5145,2.5145,2.5145,2.5488,0.0,0.0,0.0,0.0,2.76,2.9943,3.1178,3.1223,3.2481,3.3345,3.3872,3.3872,3.4148,3.465,3.4123,3.3872,3.3872,3.3872,3.3182,3.2053,3.1984,3.0215,2.7731,2.8516,2.7545,2.5781,2.6211,2.6887,2.7531,2.76,2.9189,3.1178,3.1223,3.2108,3.3111,3.3111,3.3111,3.3111,0.0,0.0,0.0,3.5152,3.6346,3.7572,3.9315,4.003,4.0539,4.1167,4.0876,4.0816,4.2171,4.241,4.262,4.32,4.329,4.329,4.329,4.3319,4.3319,4.3319,4.3349,4.3349,4.3319,4.3319,4.3319,4.329,4.329,4.329,4.329,4.329,4.329,4.329,4.329,4.329,4.329,4.329,4.329,4.329,4.2671,4.2051,4.1392,4.0696,4.0038,3.9373,3.9373,3.9373,3.9373,3.9373,3.9373,3.9373,3.9373,3.9373,3.9373,3.9373,3.9373,3.9373,0.0,0.0,0.0,0.0,0.0,2.5693,2.5693,2.5693,2.5693,0.0,0.0,0.0,2.5693,2.5693,2.5635,2.5566,2.5547,2.5547,2.5547,2.5615,2.5693,2.5693,2.6062,2.6668,2.7579,2.9096,3.0305,3.1223,3.2481,3.3187,3.3294,3.3294,3.3395,3.352,3.337,3.3294,3.3294,3.3294,3.2616,3.1526,3.2416,3.1231,2.8934,2.9151,2.8357,2.6955,2.6201,2.6035,2.638,2.7315,2.8634,3.0214,3.2021,3.2828,3.3111,3.3111,3.3111,3.3111,3.3111,0.0,0.0,0.0,0.0,0.0,3.692,3.8263,3.9314,3.9488,4.0356,4.1354,4.2231,4.241,4.262,4.32,4.329,4.329,4.329,4.3708,4.4007,4.4007,4.4466,4.4556,4.4077,4.4007,4.3798,0.0,4.329,4.329,4.329,4.329,4.329,4.329,4.329,4.329,4.329,4.329,4.329,4.329,4.2671,4.2051,4.1392,4.0696,4.0038,3.9373,3.9373,3.9373,3.9373,3.9373,3.9373,3.9373,3.9373,3.9373,3.9373,3.9373,3.9373,3.9373,0.0,0.0,0.0,0.0,0.0,2.5693,2.5693,2.5693,2.5693,0.0,0.0,0.0,2.5693,2.5849,2.5888,2.5713,2.5693,2.5693,2.5693,2.5693,2.5693,2.5693,2.5693,2.6062,2.6791,2.8049,2.9235,3.044,3.1689,3.2568,3.3111,3.3111,3.3111,3.3111,3.3111,3.3111,3.3111,3.3111,3.2655,3.2064,3.2785,3.1933,3.0079,2.9579,2.8634,2.7458,2.6159,2.5693,2.582,2.6572,2.7626,2.9096,3.1557,3.2326,3.2413,3.2939,3.3111,3.3111,3.3111,3.3111,3.324,3.3869,0.0,0.0,3.544,3.7029,3.8448,3.8746,3.9959,4.1265,4.2231,4.241,4.262,4.32,4.329,4.3379,4.3678,4.4077,4.4407,4.4676,4.5065,4.5155,4.4766,4.4466,4.4167,4.3738,4.3439,4.329,4.329,4.329,4.329,4.329,4.329,4.329,4.329,4.329,4.314,4.291,4.2252,4.1662,4.0935,4.0277,3.9798,3.9373,3.9373,3.9373,3.9373,3.9373,3.9373,3.9373,3.9373,3.9373,3.9373,3.9373,3.9373,3.9373,0.0,0.0,2.6777,2.6445,2.6035,2.5693,2.5693,2.5693,2.5693,0.0,2.5732,2.5771,2.583,2.6191,2.623,2.5791,2.5713,2.5693,2.5693,2.5693,2.5693,2.5693,2.5693,2.5693,2.5693,2.6935,2.8168,2.9396,3.0643,3.1865,3.3111,3.3111,3.3111,3.3111,3.3111,3.3111,3.3111,3.3111,3.3111,3.3111,3.3111,3.2413,3.1267,3.0033,2.8866,2.7626,2.638,2.5839,2.5742,2.5868,2.6668,2.8002,3.044,3.1223,3.1444,3.2742,3.3111,3.3111,3.3111,3.3111,3.3111,3.3111,3.3827,0.0,3.4511,3.6041,3.7643,3.831,3.9294,4.0456,4.1674,4.2088,4.2365,4.2832,4.3121,4.3529,4.4227,4.4377,4.4676,4.5334,4.5484,4.5484,4.5424,4.4885,4.4466,4.4317,4.3678,4.329,4.329,4.329,4.329,4.329,4.329,4.329,4.329,4.329,4.3,4.2381,4.1722,4.1025,4.0367,3.9709,3.9373,3.9373,3.9373,3.9373,3.9373,3.9373,3.9373,3.9373,3.9373,3.9373,3.9373,3.9373,3.9373,3.9373,0.0,2.6172,2.6074,2.6348,2.6035,2.5693,2.5693,2.5693,2.5693,2.5693,2.6055,2.6387,2.6738,2.6543,2.6348,2.6269,2.5937,2.5693,2.5693,2.5693,2.5693,2.5693,2.5693,2.5693,2.5693,2.6935,2.8168,2.9396,3.0643,3.1865,3.3111,3.3111,3.3111,3.3111,3.3111,3.3111,3.3111,3.3111,3.3111,3.3111,3.3111,3.2939,3.2612,3.1311,3.0079,2.8912,2.7673,2.6572,2.5868,2.6887,2.741,2.8002,3.044,3.1223,3.1444,3.2742,3.3111,3.3111,3.3111,3.3111,3.3111,3.3111,3.3283,0.0,3.3386,3.4387,3.5466,3.6099,3.707,3.8058,3.8871,4.017,4.0953,4.0546,4.207,4.3529,4.4227,4.4766,4.5364,4.6052,4.6591,4.6711,4.6172,4.6022,4.5442,4.4407,4.3678,4.329,4.329,4.329,4.329,4.329,4.329,4.329,4.329,4.329,4.3,4.2381,4.1722,4.1025,4.0367,3.9709,3.9373,3.9373,3.9373,3.9373,3.9373,3.9373,3.9373,3.9373,3.9373,3.9373,3.9373,3.9373,3.9373,3.9373,2.6348,2.6211,2.6133,2.6348,2.6035,2.5693,2.5693,2.5693,2.5771,2.6035,2.6621,2.6953,2.6719,2.6699,2.6621,2.6406,2.5996,2.5693,2.5693,2.5693,2.5693,2.5693,2.5693,2.5693,2.5693,2.6935,2.8168,2.9396,3.0643,3.1865,3.3111,3.3111,3.3111,3.3111,3.3111,3.3111,3.3111,3.3111,3.3111,3.3111,3.3111,3.3111,3.2939,3.1689,3.044,2.9212,2.8049,2.6812,2.5771,2.6428,2.6668,2.6982,2.8819,2.9806,3.0553,3.1777,3.2612,3.3111,3.3111,3.3111,3.3111,3.3111,3.3111,0.0,0.0,3.3911,3.4797,3.5088,3.5981,3.6915,3.7564,3.8415,3.9118,3.936,4.0885,4.2081,4.2158,4.3956,4.5663,4.6681,4.71,4.7189,4.686,4.6531,4.5711,4.4407,4.3678,4.329,4.329,4.329,4.329,4.329,4.329,4.329,4.329,4.3,4.2521,4.1901,4.1205,4.0546,3.9888,3.9559,3.9373,3.9373,3.9373,3.9373,3.9373,3.9373,3.9373,3.9373,3.9373,3.9373,3.9373,3.9373,3.9373,3.9373,2.6269,2.6328,2.6387,2.6387,2.6152,2.5927,2.5927,2.5927,2.6133,2.6582,2.7226,2.7493,2.6816,2.6992,2.7031,2.6777,2.6289,2.5927,2.5927,2.5849,2.581,2.581,2.5732,2.5732,2.581,2.6996,2.8168,2.9396,3.0643,3.1865,3.3111,3.3111,3.3111,3.3111,3.3111,3.3111,3.3111,3.3111,3.3111,3.3111,3.3111,3.3111,3.2982,3.1952,3.0822,2.9555,2.8143,2.6812,2.5693,2.5693,2.5693,2.5917,2.722,2.8402,2.9624,3.0866,3.2108,3.3111,3.3111,3.3111,3.3111,3.3111,3.3111,3.3111,0.0,0.0,0.0,3.4387,3.5034,3.5777,0.0,0.0,0.0,3.8032,0.0,0.0,0.0,4.2307,0.0,4.6261,4.6701,4.692,4.692,4.6322,4.5484,4.4407,4.3678,4.329,4.329,4.329,4.329,4.329,4.329,4.323,4.315,4.2611,4.2021,4.1175,4.0666,4.0068,3.9373,3.9373,3.9373,3.9373,3.9373,3.9373,3.9373,3.9373,3.9373,3.9373,3.9373,3.9373,3.9373,3.9373,3.9373,3.9373,2.5752,2.6113,2.6387,2.6387,2.666,2.6875,2.6875,2.6875,2.7031,2.7513,2.7669,2.7826,2.8047,2.7793,2.7767,2.8047,2.7344,2.6875,2.6875,2.6523,2.6309,2.6309,2.5937,2.5869,2.6309,2.714,2.8168,2.9396,3.0643,3.1865,3.3111,3.3111,3.3111,3.3111,3.3111,3.3111,3.3111,3.3111,3.3111,3.3111,3.3111,3.3111,3.3068,3.2939,3.2108,3.0709,2.8402,2.6812,2.5693,0.0,2.5693,2.5917,0.0,2.8402,2.9624,3.0866,3.2108,3.3111,3.3111,3.3111,3.3111,3.3111,3.3111,3.3111,3.3111,0.0,3.3283,3.3283,0.0,3.3496,0.0,0.0,0.0,0.0,0.0,0.0,3.8422,3.9689,4.124,4.2981,4.4583,4.5514,4.5514,4.4915,4.4466,4.4317,4.3678,4.329,4.329,4.329,4.329,4.329,4.329,4.306,4.253,4.244,4.1782,4.0516,4.0427,4.0068,3.9373,3.9373,3.9373,3.9373,3.9373,3.9373,3.9373,3.9373,3.9373,3.9373,3.9373,3.9373,3.9373,3.9373,3.9373,3.9373,2.5791,2.6094,2.6387,2.6387,2.6738,2.7012,2.7012,2.7441,2.7734,2.7676,2.8086,2.8457,2.8633,2.8281,2.8203,2.8613,2.8105,2.7656,2.7402,2.7226,2.7012,2.6758,2.6348,2.6191,2.6387,2.718,2.7861,2.8355,3.0259,3.1444,3.1996,3.2742,3.3111,3.3111,3.3111,3.3111,3.3111,3.3111,3.3111,3.3111,3.3111,3.3111,3.3111,3.3111,3.2326,3.0911,2.8448,2.7268,2.6716,0.0,2.5693,0.0,0.0,0.0,0.0,3.0619,0.0,0.0,0.0,0.0,0.0,0.0,0.0,0.0,3.3111,0.0,3.3111,0.0,0.0,0.0,0.0,0.0,0.0,0.0,3.5616,0.0,0.0,0.0,3.9647,0.0,0.0,0.0,4.3734,4.4109,4.4317,4.4317,4.3678,4.329,4.329,4.329,4.329,4.329,4.329,4.303,4.241,4.2021,4.1324,4.0397,4.0008,3.9679,3.9373,3.9373,3.9373,3.9373,3.9373,3.9373,3.9373,3.9373,3.9373,3.9373,3.9373,3.9373,3.9373,3.9373,3.9373,3.9469,2.6161,2.6445,2.6738,2.6738,2.709,2.7363,2.7363,2.7891,2.8223,2.8027,2.8535,2.8965,2.9082,2.8828,2.8809,2.9238,2.8887,2.8457,2.8047,2.7963,2.7637,2.7207,2.6777,2.6562,2.6562,2.7344,2.7704,2.76,3.0033,3.1223,3.1223,3.2525,3.3111,3.3111,3.3111,3.3111,3.3111,3.3111,3.3111,3.3111,3.3111,3.3111,3.3111,3.3111,3.2326,3.0956,2.8866,2.7861,2.741,2.611,2.5693,0.0,2.722,2.7814,2.8495,0.0,0.0,0.0,3.2853,0.0,0.0,0.0,0.0,0.0,0.0,0.0,0.0,0.0,0.0,0.0,0.0,0.0,0.0,3.3621,0.0,3.4658,0.0,3.5641,0.0,0.0,0.0,0.0,0.0,4.2894,4.3571,4.3571,4.3398,4.329,4.329,4.329,4.329,4.329,4.329,4.294,4.2141,4.1662,4.0965,4.0127,3.9649,3.9373,3.9373,3.9373,3.9373,3.9373,3.9373,3.9373,3.9373,3.9373,3.9373,3.9373,3.9373,3.9493,3.9679,3.9499,3.9529,3.9738,2.6973,2.7324,2.7669,2.7669,2.7969,2.8262,2.8262,2.8281,2.8437,2.8828,2.8906,2.9082,2.9512,2.9587,2.9707,3.0117,2.9766,2.9355,2.8906,2.8496,2.8086,2.7728,2.7226,2.6992,2.6992,2.7766,2.7971,2.76,3.0033,3.1223,3.1223,3.2525,3.3111,3.3111,3.3111,3.3111,3.3111,3.3111,3.3111,3.3111,3.3111,3.3111,3.3111,0.0,3.2326,3.1045,2.9761,0.0,0.0,2.611,2.5693,0.0,0.0,0.0,0.0,0.0,0.0,0.0,0.0,0.0,0.0,3.3111,0.0,0.0,0.0,0.0,3.3111,0.0,0.0,0.0,0.0,0.0,3.3136,3.3093,3.3136,0.0,0.0,0.0,0.0,0.0,0.0,0.0,0.0,4.1029,4.1699,0.0,4.2699,4.329,4.329,4.329,4.329,4.329,4.329,4.2701,4.1414,4.1384,4.0726,3.9403,3.9403,3.9373,3.9373,3.9373,3.9373,3.9373,3.9373,3.9373,3.9373,3.9373,3.9373,3.9373,3.9373,3.9798,4.0277,3.9649,3.9828,4.0367,2.7871,2.7988,2.7988,2.7767,2.8008,2.8301,2.8301,2.8535,2.8867,2.9297,2.9355,2.9629,3.0371,3.0176,3.0156,3.0625,3.0527,3.0254,2.9805,2.9375,2.9082,2.898,2.7969,2.7578,2.7851,2.728,2.6932,2.6841,2.8973,2.9988,3.0033,3.2108,3.3111,3.3111,3.3111,3.3111,3.3111,3.3111,3.3111,3.3111,3.3111,3.3111,3.3111,0.0,3.2828,3.2283,3.1045,2.9806,0.0,2.7363,2.638,2.5917,2.722,2.7315,2.7342,2.9396,2.9738,0.0,0.0,0.0,3.0643,3.0643,0.0,0.0,0.0,0.0,0.0,0.0,0.0,0.0,0.0,0.0,3.3111,3.3111,3.3111,0.0,0.0,0.0,0.0,0.0,0.0,0.0,0.0,0.0,0.0,0.0,4.1947,0.0,4.325,4.329,4.329,4.329,4.329,4.2701,4.1384,4.1422,4.0726,3.9373,3.9373,3.9373,3.9373,3.9373,3.9373,3.9373,3.9373,3.9373,3.9373,3.9373,3.9373,3.9433,3.9888,4.0217,4.0367,4.0157,4.0487,4.1115,2.832,2.8301,2.8203,2.793,2.8105,2.8301,2.8301,2.8652,2.9082,2.9567,2.9707,3.0078,3.082,3.0625,3.0566,3.0859,3.0898,3.0625,3.0019,2.9863,2.9668,2.9355,2.8691,2.832,2.8301,2.748,2.6836,2.6387,2.8576,2.9529,2.9442,3.1933,3.3111,3.3111,3.3111,3.3111,3.3093,3.3294,3.337,3.3395,3.3596,3.3545,0.0,0.0,3.3244,3.2939,0.0,3.0709,2.9852,2.8634,2.7673,2.7247,2.8495,2.8308,2.7981,2.9579,2.951,2.8958,2.9326,2.9396,0.0,2.9396,2.9715,0.0,2.9487,0.0,3.0124,0.0,0.0,0.0,0.0,0.0,0.0,3.2413,3.2785,0.0,0.0,3.3111,0.0,0.0,0.0,3.643,0.0,3.8212,3.9552,4.029,4.1098,0.0,0.0,0.0,4.329,4.329,4.329,4.2701,4.1384,4.1422,4.0726,3.9373,3.9373,3.9373,3.9373,3.9373,3.9373,3.9373,3.9373,3.9373,3.9373,3.9373,3.9373,3.9499,4.0157,4.0546,4.0756,4.0756,4.1175,4.1871,2.8437,2.8359,2.8359,2.8359,2.834,2.832,2.832,2.8672,2.9101,2.9551,2.998,3.043,3.0898,3.0937,3.0918,3.0918,3.0898,3.0527,2.9744,2.998,2.9844,2.9043,2.9375,2.9199,2.8398,2.832,2.7695,2.6484,2.885,2.9795,2.9486,3.1933,3.3111,3.3111,3.3111,3.3093,3.3144,3.3671,3.3922,3.3997,3.45,3.4399,3.3947,3.3947,3.3621,3.3014,3.1757,3.1267,3.1045,2.9852,2.9442,2.9579,3.0777,3.1134,3.1134,3.1134,3.1134,3.0866,2.9715,2.9396,2.9396,2.9396,3.0259,0.0,0.0,0.0,3.0822,0.0,0.0,0.0,0.0,0.0,0.0,0.0,0.0,0.0,0.0,0.0,3.3269,0.0,0.0,3.4856,3.5408,3.6968,3.7938,3.8055,4.0105,4.1475,0.0,4.2629,4.325,4.329,4.326,4.2671,4.1384,4.1392,4.0696,3.9373,3.9373,3.9373,3.9373,3.9373,3.9373,3.9373,3.9373,3.9373,3.9373,3.9373,3.9373,3.9463,4.0187,4.0876,4.1474,4.1474,4.1901,4.253,2.9258,2.9238,2.9238,2.9238,2.8965,2.8769,2.8769,2.9121,2.9551,2.998,3.0703,3.1348,3.1797,3.1543,3.1367,3.1367,3.1074,3.0801,3.0566,3.0332,3.0254,3.0371,2.9863,2.9609,2.9707,2.8769,2.8125,2.7793,2.9272,2.9952,2.9887,3.2059,3.3111,3.3111,3.3111,3.3294,3.3696,3.3847,3.4148,3.4525,3.463,3.465,3.45,0.0,3.4424,3.4154,3.304,3.1996,3.1178,3.0866,3.0124,2.9442,2.9761,2.9852,2.9852,2.9852,2.9852,2.9761,2.9487,2.9396,2.9396,2.9396,2.9624,2.9761,0.0,0.0,0.0,0.0,0.0,0.0,0.0,0.0,0.0,3.1356,3.2283,3.3111,3.3111,3.3111,3.3162,3.3269,0.0,0.0,3.4831,3.5325,3.6116,3.7403,3.8067,0.0,0.0,0.0,0.0,4.325,4.2851,4.2222,4.1384,4.0905,4.0247,3.9373,3.9373,3.9373,3.9373,3.9373,3.9373,3.9373,3.9373,3.9373,3.9373,3.9373,3.9373,3.9529,4.0696,4.1833,4.2821,4.2821,4.294,4.312,2.9609,2.9939,3.0078,2.9883,2.9961,2.9922,2.9531,2.9531,2.9726,3.0137,3.0801,3.1348,3.1582,3.1719,3.1719,3.1543,3.1309,3.0996,3.0605,3.0527,3.0527,3.0586,3.0312,3.0156,3.0195,2.9492,2.8848,2.8301,2.9821,3.0348,3.0066,3.2131,3.3111,3.3111,3.3111,3.3244,3.3571,3.4048,3.4575,3.5056,3.5353,3.5303,0.0,3.5031,3.4881,3.465,3.4022,3.3157,3.2406,3.2406,3.1793,3.1,3.1,3.1,3.0911,3.035,3.0169,3.0079,2.9533,2.9396,2.9396,2.9396,2.9806,3.0033,2.9533,2.9806,3.0214,0.0,3.0395,3.0395,0.0,0.0,0.0,3.2064,3.2612,3.3111,3.3111,3.3111,3.3111,3.3111,3.3345,0.0,3.3972,3.4449,3.5198,3.6432,3.6996,0.0,0.0,0.0,0.0,4.2548,4.2436,4.2081,4.1384,4.0726,4.0068,3.9373,3.9373,3.9373,3.9373,3.9373,3.9373,3.9373,3.9373,3.9373,3.9373,3.9373,3.9553,3.9978,4.1294,4.2432,4.329,4.329,4.329,4.329,2.9902,3.0449,3.082,3.0371,3.0976,3.1269,3.0566,3.0137,3.0039,3.041,3.0898,3.123,3.123,3.1836,3.209,3.1719,3.1641,3.125,3.043,3.0742,3.0762,3.0312,3.0684,3.0703,3.0293,3.0234,2.9629,0.0,3.0461,3.0994,3.0155,3.2228,3.3187,3.3111,3.3111,3.3169,3.337,3.4399,3.5107,3.5633,3.6182,3.6081,3.5608,3.5608,3.5307,3.4926,3.4926,3.455,3.3997,3.3997,3.3646,3.3194,3.3194,3.3187,3.2896,3.1777,3.1444,3.1223,3.0169,2.9852,2.9852,2.9852,3.0687,3.1178,3.0147,3.0687,3.1134,3.0079,2.9852,2.9806,0.0,0.0,0.0,0.0,0.0,0.0,3.3111,3.3111,3.3111,3.3111,0.0,0.0,0.0,0.0,0.0,0.0,0.0,0.0,0.0,0.0,0.0,4.1357,4.1794,4.1778,4.1265,0.0,3.9978,3.9373,3.9373,3.9373,3.9373,3.9373,3.9373,3.9373,3.9373,3.9373,3.9373,3.9373,3.9858,4.0666,4.1931,4.2761,4.329,4.329,4.329,4.329,3.1269,3.1309,3.1269,3.084,3.1191,3.1582,3.1797,3.1818,3.1738,3.1816,3.25,3.2969,3.2969,3.2812,3.2656,3.2578,3.2246,0.0,0.0,0.0,0.0,3.0781,3.084,3.0859,3.0762,3.0391,2.9922,0.0,0.0,3.1555,3.0622,3.2786,3.352,3.3111,3.3111,3.3571,3.4474,3.5082,0.0,3.6279,3.638,3.6355,3.6254,3.6254,3.6157,3.6128,3.6128,3.5429,3.4575,3.4575,3.4198,3.3746,3.3746,3.3445,3.3068,3.2828,3.2742,3.2698,3.2525,3.2438,3.2438,3.2438,3.2612,3.2698,3.2525,3.2612,3.2698,3.2525,3.2438,3.2108,3.1089,0.0,0.0,0.0,0.0,0.0,3.3111,3.3111,3.3111,3.3111,3.3111,3.3111,0.0,0.0,0.0,0.0,0.0,0.0,0.0,0.0,0.0,0.0,4.0105,0.0,0.0,0.0,3.9529,3.9373,3.9373,3.9373,3.9373,3.9373,3.9373,3.9373,3.9373,3.9373,3.9373,3.9373,4.0127,4.1294,4.2081,4.2761,4.329,4.329,4.329,4.329,3.1894,3.1855,3.1797,3.1582,3.1894,3.2246,3.2461,3.2676,3.2656,3.2226,3.2519,3.2773,3.2773,3.2988,3.3027,3.2812,3.2617,3.2305,3.1875,3.1855,3.1758,3.1562,3.1328,3.1211,3.1211,3.0781,3.0234,2.9626,0.0,0.0,3.1136,0.0,3.3746,3.3495,3.3495,3.3796,3.4349,0.0,0.0,3.5956,3.6279,3.6405,3.6405,3.6405,3.6405,3.6405,3.6405,3.6078,3.5529,3.5253,3.4776,3.4324,3.4324,3.3947,3.3495,3.3495,3.3294,3.3111,3.3111,3.3111,3.3111,3.3111,3.3111,3.3111,3.3111,3.3111,3.3111,3.3111,3.3111,3.2896,3.2283,3.2196,0.0,0.0,0.0,0.0,0.0,0.0,3.3111,3.3111,3.3111,3.3194,0.0,0.0,0.0,0.0,0.0,0.0,0.0,0.0,3.8054,0.0,0.0,0.0,0.0,0.0,0.0,3.9373,3.9373,3.9373,3.9373,3.9373,3.9373,3.9373,3.9373,3.9373,3.9439,3.9798,4.0487,4.1482,4.2141,4.2761,4.329,4.329,4.329,4.329,3.2324,3.2305,3.2266,3.2187,3.2519,3.2793,3.2793,3.3144,3.3184,3.2519,3.2441,3.2441,3.2441,3.3027,3.3281,3.2949,3.293,3.2754,3.2324,3.2305,3.2266,3.2168,3.1836,3.1621,3.1523,3.1191,3.0586,0.0,0.0,0.0,0.0,0.0,0.0,0.0,0.0,0.0,0.0,0.0,3.5558,3.5708,3.6182,3.6405,3.6405,3.6405,3.6405,3.6405,3.6405,3.6405,3.6355,3.5855,3.5307,3.4856,3.4856,3.4525,3.4073,3.4073,3.3696,3.3244,3.3244,3.3212,3.3111,3.3111,3.3111,3.3111,3.3111,3.3111,3.3111,3.3111,3.3111,3.3111,3.3111,3.3111,0.0,0.0,0.0,0.0,0.0,0.0,3.3111,3.3111,3.3111,3.3244,3.3696,0.0,0.0,0.0,0.0,0.0,3.5307,3.6341,3.7173,0.0,0.0,3.9006,4.0187,0.0,3.9373,3.9373,3.9373,3.9373,3.9373,3.9373,3.9373,3.9373,3.9373,3.9373,3.9433,4.0277,4.0905,4.1474,4.2291,4.288,4.329,4.329,4.329,4.329,3.2812,3.2734,3.2617,3.2226,3.2519,3.2793,3.2793,3.3144,3.3398,3.332,3.3301,3.3301,3.3301,3.3379,3.3398,3.3359,3.3359,3.3184,3.2773,3.2734,3.2559,3.2248,3.219,3.1914,3.1523,3.1484,3.1016,0.0,0.0,3.3072,3.2163,3.4339,0.0,0.0,0.0,0.0,0.0,3.5458,3.583,3.6329,3.638,3.6405,3.6405,3.6405,3.6405,3.6405,3.6405,3.6405,3.6405,3.6355,3.5931,3.5433,3.5433,3.5056,3.465,3.465,3.4248,3.3822,3.3822,3.3445,3.3111,3.3111,3.3111,3.3111,3.3111,3.3111,3.3111,3.3111,3.3111,3.3111,3.3111,3.3111,3.3111,0.0,0.0,0.0,0.0,0.0,3.3111,3.3111,3.3111,0.0,3.3144,3.3646,0.0,0.0,3.5655,0.0,3.4851,3.5344,3.5911,3.6353,0.0,3.7973,3.9493,3.9403,3.9373,3.9373,3.9373,3.9373,3.9373,3.9373,3.9373,3.9373,3.9373,3.9373,3.9529,4.0756,4.1324,4.1504,4.2761,4.323,4.329,4.329,4.329,4.329,0.0,0.0,0.0,0.0,0.0,0.0,0.0,3.332,3.3418,3.3418,3.3418,3.3418,3.3418,3.3418,3.3418,3.3418,3.3418,3.334,3.3184,3.3164,3.3105,3.293,3.2676,3.2461,3.2285,3.1777,3.1211,0.0,0.0,3.3295,3.2705,3.4606,0.0,0.0,0.0,3.583,3.6081,3.6734,3.7161,3.7312,3.6985,3.6908,3.6883,3.6531,3.6405,3.6405,3.6405,3.6405,3.6405,3.6405,3.6254,3.6031,3.6031,3.5655,3.5182,3.5182,3.4781,3.4324,3.3997,3.3746,3.3495,3.3169,3.3111,3.3111,3.3111,3.3111,3.3111,3.3111,3.3111,3.3111,3.3111,3.3111,3.3111,3.3111,0.0,0.0,0.0,0.0,0.0,3.3571,0.0,3.3571,3.3571,0.0,0.0,0.0,0.0,0.0,3.4731,3.4881,0.0,3.616,0.0,3.7469,3.9373,3.9373,3.9373,3.9373,3.9373,3.9373,3.9373,3.9373,3.9373,3.9373,3.9373,3.9373,3.9469,3.9978,4.0666,4.1444,4.1953,4.2641,4.329,4.329,4.329,4.329,3.3418,0.0,3.3066,0.0,3.3184,3.3086,3.3379,3.3418,3.3418,3.3418,3.3418,3.3418,3.3418,3.3418,3.3418,3.3418,3.3418,3.3418,3.3418,3.3418,3.3418,3.3418,3.3144,0.0,3.2793,3.2207,3.1621,3.1074,3.2656,3.3404,3.3444,3.5332,0.0,0.0,3.6508,3.6883,3.6933,3.7688,3.8015,3.7965,3.7588,3.7437,3.7387,3.6985,3.6883,3.6883,3.6707,3.6656,3.6631,3.6455,3.6405,3.6405,3.6405,3.6107,3.578,3.578,3.5357,3.4831,3.45,3.4274,3.3997,3.3445,3.3319,3.3269,3.3162,3.3111,3.3111,3.3111,3.3111,3.3111,3.3111,3.3111,3.3111,3.3111,0.0,0.0,0.0,3.3897,0.0,3.3897,3.3746,3.3646,3.3646,3.3796,0.0,0.0,0.0,0.0,0.0,0.0,0.0,0.0,0.0,0.0,3.9373,3.9373,3.9373,3.9373,3.9373,3.9373,3.9373,3.9373,3.9373,3.9373,3.9373,3.9373,3.9439,3.9828,4.0546,4.1452,4.1803,4.2521,4.329,4.329,4.329,4.329,3.3418,3.3418,3.3418,3.3418,3.3418,3.3418,3.3418,3.3418,3.3418,3.3418,3.3418,3.3418,3.3418,3.3418,3.3418,3.3418,3.3418,3.3418,3.3418,3.3418,3.3418,0.0,0.0,3.3223,3.2812,3.2793,3.2363,3.1504,0.0,0.0,3.445,0.0,3.7965,3.7965,3.799,3.799,3.799,3.799,3.8015,3.8015,3.799,3.799,3.799,3.799,3.799,3.7914,3.7362,3.7186,3.7086,3.6581,3.6405,3.6405,3.6405,3.6405,3.6405,3.6405,3.5956,3.5483,3.5483,3.5082,3.4575,3.4022,3.3897,3.3746,3.3194,3.3111,3.3111,3.3111,3.3111,3.3111,3.3111,3.3111,3.3111,3.3111,0.0,0.0,0.0,3.3897,0.0,3.3897,3.342,3.3136,3.3136,3.3571,0.0,0.0,0.0,0.0,0.0,0.0,0.0,3.616,3.6212,0.0,3.9373,3.9373,3.9373,3.9373,3.9373,3.9373,3.9373,3.9373,3.9373,3.9373,3.9373,3.9373,3.9529,4.0816,4.1422,4.1504,4.2821,4.329,4.329,4.329,4.329,4.329,3.3418,3.3418,3.3418,3.3418,3.3418,3.3418,3.3418,3.3418,3.3418,3.3418,3.3418,3.3418,3.3418,3.3418,3.3418,0.0,3.3418,3.3418,0.0,3.3418,3.3418,3.3418,3.3418,3.3359,3.3223,3.2949,3.3051,3.3487,0.0,0.0,0.0,3.7668,3.8015,3.8015,3.8417,3.8592,3.8617,3.8994,3.9145,3.912,3.8743,3.8592,3.8542,3.8165,3.8015,3.799,3.7814,3.7739,3.7663,3.7111,3.6983,3.6908,3.6531,3.6405,3.6405,3.6405,3.6279,3.6006,3.5608,3.5382,3.5006,3.4123,3.3897,3.3746,3.3194,3.3111,3.3111,3.3111,3.3111,3.3111,3.3111,3.3111,3.3194,3.3571,3.3796,0.0,3.4881,0.0,3.4876,3.45,3.4299,3.3897,3.3144,3.3244,0.0,0.0,0.0,0.0,0.0,0.0,0.0,0.0,3.6212,0.0,3.9373,3.9373,3.9373,3.9373,3.9373,3.9373,3.9373,3.9373,3.9373,3.9373,3.9373,3.9679,4.0127,4.0546,4.1235,4.2141,4.256,4.294,4.329,4.329,4.329,4.329,3.3418,3.3418,3.3418,3.3418,3.3418,3.3418,3.3418,3.3418,3.3418,3.3418,3.3418,3.3418,3.3418,3.3418,0.0,3.3418,3.3418,3.3418,3.3418,3.3418,3.3418,3.3418,3.3418,3.3418,3.3418,3.3164,0.0,3.4715,3.5803,3.6831,3.7835,3.8366,3.8642,3.8642,3.9019,3.917,3.9195,3.9546,3.9697,3.9672,3.932,3.917,3.9145,3.8768,3.8642,3.8617,3.8417,3.8341,3.8241,3.7688,3.7487,3.7437,3.7086,3.6835,3.6681,3.6455,3.6405,3.6329,3.5956,3.5855,3.5629,3.4751,3.4349,3.3997,3.3244,3.3111,3.3111,3.3111,3.3111,3.3111,3.3111,3.3244,3.3495,3.3847,3.4248,3.4705,3.5408,0.0,3.5056,0.0,0.0,0.0,0.0,3.3111,3.3111,0.0,0.0,0.0,0.0,0.0,0.0,3.6132,3.6604,0.0,3.9373,3.9373,3.9373,3.9373,3.9679,3.9918,4.0157,4.0157,4.0157,4.0157,4.0157,4.0397,4.0786,4.1025,4.1662,4.241,4.2641,4.297,4.329,4.329,4.329,4.329,3.3418,3.3418,3.3418,0.0,3.3418,0.0,3.3418,3.3418,3.3418,3.3418,3.3418,3.3418,3.3418,3.3418,3.3418,3.3418,0.0,0.0,0.0,3.3418,3.3418,3.3418,3.3418,3.3418,3.3418,3.3418,3.4057,3.5375,3.7481,3.8263,3.7737,3.9176,3.9772,3.9697,3.9747,3.9722,3.9697,3.9697,3.9697,3.9697,3.9697,3.9697,3.9697,3.9697,3.9697,3.9622,3.912,3.8969,3.8843,3.8266,3.8065,3.8065,3.8015,3.7663,3.7136,3.6631,3.643,3.6405,3.6405,3.6405,3.6279,3.5633,3.5082,3.4449,3.337,3.3187,3.3119,3.3136,3.3111,3.3136,3.3162,3.3545,3.3922,3.3997,3.4831,3.5508,3.5558,3.5082,3.4731,0.0,0.0,0.0,3.3111,3.3111,3.3111,0.0,0.0,0.0,0.0,0.0,3.5719,3.6172,3.7175,3.8219,3.9373,3.9433,3.9499,3.9559,4.0187,4.0786,4.1422,4.1422,4.1422,4.1422,4.1422,4.1452,4.1542,4.2141,4.241,4.253,4.309,4.329,4.329,4.329,4.329,4.329,0.0,0.0,3.3418,3.3418,3.3418,3.3418,3.3418,3.3418,3.3418,3.3418,3.3418,3.3418,3.3418,3.3418,3.3418,3.3418,3.3418,3.3418,3.3418,3.3418,3.3418,3.3418,3.3418,3.3418,3.3418,3.3418,3.4512,3.6898,3.9356,4.0294,3.9826,4.0592,4.0501,3.9722,4.0124,4.0099,3.9697,3.9697,3.9697,3.9697,3.9697,3.9697,3.9697,3.9697,3.9697,3.9672,3.9546,3.9496,3.9421,3.8843,3.8668,3.8592,3.814,3.7914,3.7713,3.7161,3.6732,3.6405,3.6405,3.6405,3.6279,3.5633,3.5082,3.455,3.3847,3.3696,3.3596,3.3169,3.3111,3.3219,3.3621,3.3796,3.4173,3.4981,3.5332,3.5633,3.6107,3.5705,3.5157,0.0,3.4123,3.3545,3.3162,3.3111,3.3111,0.0,0.0,0.0,0.0,3.4989,3.6071,3.6212,3.6448,3.7482,3.9373,3.9918,4.0427,4.0905,4.1085,4.1235,4.1422,4.1422,4.1422,4.1422,4.1422,4.1692,4.2171,4.2321,4.2641,4.312,4.323,4.329,4.329,4.329,4.329,4.329,3.3418,3.3418,3.3418,3.3418,3.3418,3.3418,3.3418,3.3418,3.3418,3.3418,3.3418,3.3418,3.3418,3.3418,3.3418,3.3418,3.3418,3.3418,3.3418,3.3418,3.3418,3.3418,3.3418,3.3418,3.3418,3.3418,3.4697,3.7367,4.0297,4.143,4.0849,4.115,4.0974,4.045,4.0752,4.0576,4.0074,4.0074,3.9923,3.9697,3.9697,3.9697,3.9697,3.9697,3.9697,3.9697,3.9697,3.9697,3.9647,3.9346,3.9245,3.9195,3.8868,3.8592,3.8341,3.804,3.7436,3.6782,3.6782,3.6606,3.6279,3.5633,3.5282,3.4906,3.4399,3.4274,3.4198,3.3897,3.3822,3.3922,3.4223,3.4474,3.4806,3.5408,3.5508,3.5608,3.5956,3.5303,0.0,3.4374,3.3847,3.3395,3.3119,3.3111,3.3111,3.3111,3.3556,0.0,3.3827,3.5629,3.6666,3.6666,3.76,3.881,4.0307,4.0666,4.1175,4.1871,4.1871,4.1983,4.2282,4.2282,4.2282,4.2282,4.2282,4.2491,4.2791,4.2791,4.3,4.329,4.329,4.329,4.329,4.329,4.329,4.329,3.3418,3.3418,3.3418,3.3418,3.3418,3.3418,3.3418,3.3418,3.3418,3.3418,3.3418,3.3418,3.3418,3.3418,3.3418,3.3418,3.3418,3.3418,3.3418,3.3418,3.3418,3.3418,3.3418,3.3418,3.3418,3.3902,3.5332,3.7888,4.0877,4.2007,4.1455,4.1501,4.1451,4.1275,4.1376,4.1153,4.0626,4.0551,4.0249,3.9798,3.9722,3.9697,3.9697,3.9697,3.9697,3.9697,3.9697,3.9697,3.9697,3.9697,3.9697,3.9697,3.9697,3.9371,3.9045,3.9045,3.8266,3.7412,3.7236,3.6832,3.6304,3.578,3.5633,3.5483,3.4931,3.4806,3.4781,3.4751,3.468,3.4705,3.4826,3.5182,3.5533,3.5608,3.5633,3.5583,3.5508,0.0,3.3997,3.3897,3.342,3.3111,3.3111,3.3111,3.3111,3.3111,3.4079,3.4744,3.4824,3.6511,3.7517,3.7752,3.9421,4.0696,4.1534,4.1572,4.1901,4.256,4.256,4.2791,4.329,4.329,4.329,4.329,4.329,4.329,4.329,4.329,4.329,4.329,4.329,4.329,4.329,4.329,4.329,4.329,3.3418,3.3418,3.3418,3.3418,3.3418,3.3418,3.3418,3.3418,3.3418,3.3418,3.3418,3.3418,3.3418,3.3418,3.3418,3.3418,3.3418,3.3418,3.3418,3.3418,3.3418,3.3418,3.3418,3.3418,3.3418,3.6072,3.8297,4.0127,4.197,4.2615,4.2087,4.2509,4.2233,4.13,4.1831,4.1731,4.1125,4.0701,4.0475,4.035,3.9873,3.9697,3.9697,3.9697,3.9697,3.9697,3.9697,3.9697,3.9697,3.9697,3.9697,3.9697,3.9697,3.9647,3.9572,3.9572,3.912,3.8441,3.7437,3.6832,3.638,3.6304,3.6279,3.6081,3.5483,3.5382,3.5232,3.4781,3.468,3.4831,3.5282,3.5433,3.5658,3.6157,3.6279,3.6081,3.5558,0.0,3.4424,3.3947,3.342,3.3111,3.3111,3.3111,3.3111,3.3111,3.4079,3.4929,3.5447,3.7418,3.9057,4.0199,4.0018,4.0666,4.2231,4.2261,4.2521,4.314,4.314,4.32,4.329,4.329,4.329,4.329,4.329,4.329,4.329,4.329,4.329,4.329,4.329,4.329,4.329,4.329,4.329,4.329,3.3418,3.3418,3.3418,3.3418,3.3418,3.3418,3.3418,3.3418,3.3418,3.3418,3.3418,3.3418,3.3418,3.4195,3.4674,3.4674,3.4674,3.4674,3.4674,3.3902,3.3776,3.4674,3.4674,3.5088,3.5949,3.8283,3.9896,4.0592,4.2206,4.2836,4.2665,4.2861,4.271,4.2233,4.2484,4.2283,4.1756,4.1505,4.1229,4.0874,4.0676,4.0576,4.0576,4.0576,4.0576,4.0551,4.0249,4.0149,4.0099,3.9798,3.9697,3.9697,3.9697,3.9697,3.9697,3.9697,3.9295,3.8668,3.7487,3.6985,3.6782,3.648,3.6405,3.6355,3.6031,3.5981,3.5906,3.5655,3.5604,3.568,3.5931,3.5981,3.6081,3.6355,3.6107,0.0,0.0,3.4625,3.4073,3.352,3.3244,3.3111,3.3111,3.3641,3.3953,3.3953,3.5467,3.6635,3.7285,3.912,4.0645,4.1627,4.1676,4.2051,4.288,4.288,4.303,4.329,4.329,4.329,4.329,4.329,4.329,4.329,4.329,4.329,4.329,4.329,4.329,4.329,4.329,4.329,4.329,4.329,4.329,4.329,3.3418,3.3418,3.3418,3.3418,3.3418,3.3418,3.3418,3.3418,3.3418,3.3418,3.3418,3.3544,3.3902,3.5088,3.5928,3.6356,3.6356,3.6539,3.6881,3.5396,3.4922,3.5745,3.6173,3.6941,3.8164,3.9756,4.0765,4.1191,4.2375,4.2986,4.2986,4.2986,4.2986,4.2986,4.2986,4.2791,4.2389,4.2263,4.1907,4.153,4.1351,4.1275,4.1275,4.1275,4.1275,4.1225,4.0799,4.0701,4.0651,4.0224,4.0074,4.0049,3.9923,3.9898,3.9848,3.9747,3.9396,3.8894,3.7839,3.7487,3.7236,3.6732,3.6606,3.6556,3.643,3.6405,3.6405,3.6405,3.6405,3.6405,3.6405,3.6405,3.6405,3.6405,0.0,0.0,0.0,3.4449,3.3897,3.3345,3.3187,3.3197,3.3428,3.422,3.4868,3.5248,3.6973,3.839,3.9207,4.0761,4.1961,4.262,4.306,4.329,4.329,4.329,4.329,4.329,4.329,4.329,4.329,4.329,4.329,4.329,4.329,4.329,4.329,4.329,4.329,4.329,4.329,4.329,4.329,4.329,4.329,4.329,3.3418,3.3418,3.3418,3.3418,3.3418,3.3418,3.3418,3.3418,3.3418,3.3418,3.3418,3.3965,3.5437,3.5745,3.6417,3.7925,3.8045,3.8639,4.0163,3.8757,3.7265,3.5867,3.7265,3.8104,3.8223,3.9756,4.1305,4.2793,4.2905,4.2986,4.2986,4.2986,4.2986,4.2986,4.2986,4.2961,4.2886,4.2414,4.2187,4.2112,4.1555,4.1275,4.1275,4.1275,4.1275,4.1275,4.125,4.1225,4.1225,4.1175,4.1175,4.1075,4.0626,4.045,4.035,3.9848,3.9672,3.9496,3.8919,3.8366,3.7814,3.7262,3.7136,3.6985,3.6531,3.6405,3.6405,3.6405,3.6405,3.6405,3.6405,3.6405,3.6405,3.6405,0.0,0.0,3.5508,3.4956,3.4449,3.3897,3.3395,3.3471,3.4511,3.4677,3.5315,3.6919,3.8093,3.9265,4.0585,4.1715,4.2581,4.32,4.326,4.329,4.329,4.329,4.329,4.329,4.329,4.329,4.329,4.329,4.329,4.329,4.329,4.329,4.329,4.329,4.329,4.329,4.329,4.329,4.329,4.329,4.329,4.329,3.3769,3.3613,3.3496,3.3769,3.3594,3.3418,3.3418,3.3418,3.3418,3.3418,3.3418,3.4027,3.5622,3.6721,3.7903,3.9522,3.9698,3.9931,4.0534,3.9111,3.8402,3.8735,3.9347,4.0187,4.1133,4.1785,4.2375,4.2986,4.2986,4.2986,4.2986,4.2986,4.2986,4.2986,4.2986,4.2986,4.2961,4.276,4.2715,4.2715,4.2434,4.2359,4.2359,4.2359,4.2359,4.2308,4.1982,4.1856,4.1781,4.1401,4.1275,4.125,4.105,4.0802,4.04,3.9848,3.9697,3.9647,3.9446,3.8969,3.8417,3.7839,3.7437,3.7136,3.691,3.6656,3.6405,3.6405,3.6405,3.6405,3.6405,3.6405,3.6405,3.6405,0.0,3.6182,3.5583,3.5307,3.4981,3.4474,3.4879,3.5374,3.5775,3.7044,3.8131,3.8757,3.9799,4.082,4.1745,4.2535,4.306,4.329,4.329,4.329,4.329,4.329,4.329,4.329,4.329,4.329,4.329,4.329,4.329,4.329,4.329,4.329,4.329,4.329,4.329,4.329,4.329,4.329,4.329,4.329,4.329,4.329,3.4219,3.3926,3.3711,3.4023,3.3711,3.3418,3.3418,3.3418,3.3418,3.3418,3.3418,3.4195,3.6356,3.7566,3.9053,4.1191,4.1362,4.1362,4.1362,4.0303,3.9756,3.9814,4.0822,4.1615,4.2263,4.2737,4.2986,4.2986,4.2986,4.2986,4.2986,4.2986,4.2986,4.2986,4.2986,4.2986,4.2986,4.2986,4.2986,4.2986,4.2986,4.2986,4.2986,4.2986,4.2986,4.2936,4.2615,4.2464,4.2414,4.1982,4.1856,4.1831,4.1656,4.1103,4.045,4.0074,3.9823,3.9697,3.9697,3.9421,3.8994,3.8417,3.799,3.7613,3.7262,3.6933,3.6606,3.643,3.6405,3.6405,3.6405,3.6405,3.6405,3.6405,3.6405,3.6279,3.5855,3.5608,3.5495,3.5545,3.6087,3.6754,3.7476,3.8924,4.0039,4.0587,4.1308,4.2021,4.2641,4.309,4.329,4.329,4.329,4.329,4.329,4.329,4.329,4.329,4.329,4.329,4.329,4.329,4.329,4.329,4.329,4.329,4.329,4.329,4.329,4.329,4.329,4.329,4.329,4.329,4.329,4.329,3.4707,3.4375,3.4082,3.4082,3.3711,3.3418,3.3418,3.3418,3.3418,3.3418,3.3418,3.4632,3.7865,3.8223,3.9522,4.2737,4.2986,4.2986,4.2986,4.2986,4.1615,3.8402,4.1305,4.2263,4.065,4.2206,4.2986,4.2986,4.2986,4.2986,4.2986,4.2986,4.2986,4.2986,4.2986,4.2986,4.2986,4.2986,4.2986,4.2986,4.2986,4.2986,4.2986,4.2986,4.2986,4.2986,4.2986,4.2986,4.2986,4.2986,4.2986,4.2942,4.2389,4.1404,4.0526,4.0526,4.0124,3.9697,3.9697,3.9697,3.9572,3.907,3.8919,3.8617,3.7462,3.7186,3.7036,3.6531,3.6405,3.6405,3.6405,3.6405,3.6405,3.6405,3.6405,3.6405,3.6405,3.5881,3.5989,3.7174,3.6866,3.7392,3.9596,3.9823,4.0519,4.2273,4.241,4.2641,4.326,4.329,4.329,4.329,4.329,4.329,4.329,4.329,4.329,4.329,4.329,4.329,4.329,4.329,4.329,4.329,4.329,4.329,4.329,4.329,4.329,4.329,4.329,4.329,4.329,4.329,4.329,4.329,3.5117,3.4824,3.4512,3.4512,3.416,3.3769,3.3476,3.3418,3.3418,3.3418,3.3418,3.4632,3.7865,3.8223,3.9522,4.2737,4.2986,4.2986,4.2986,4.2986,4.2569,4.1615,4.2488,4.2793,4.2319,4.2737,4.2986,4.2986,4.2986,4.2986,4.2986,4.2986,4.2986,4.2986,4.2986,4.2986,4.2986,4.2986,4.2986,4.2986,4.2986,4.2986,4.2986,4.2986,4.2986,4.2986,4.2986,4.2986,4.2986,4.2986,4.2986,4.2942,4.2389,4.1986,4.158,4.1204,4.0701,4.0275,4.0275,3.9998,3.9647,3.9496,3.917,3.8844,3.8492,3.8065,3.7613,3.7061,3.6935,3.6883,3.648,3.6405,3.6405,3.6405,3.6405,3.6662,3.7494,3.743,3.778,3.8956,3.9701,4.0349,4.0999,4.1799,4.2476,4.2991,4.303,4.312,4.329,4.329,4.329,4.329,4.329,4.329,4.329,4.329,4.329,4.329,4.329,4.329,4.329,4.329,4.329,4.329,4.329,4.329,4.329,4.329,4.329,4.329,4.329,4.329,4.329,4.329,4.329,4.329,3.5586,3.5137,3.4707,3.4707,3.4199,3.373,3.3457,3.3418,3.3418,3.3418,3.3965,3.5335,3.7925,3.8757,4.0187,4.2793,4.2986,4.2986,4.2986,4.2986,4.2986,4.2986,4.2986,4.2986,4.2986,4.2986,4.2986,4.2986,4.2986,4.2986,4.2986,4.2986,4.2986,4.2986,4.2986,4.2986,4.2986,4.2986,4.2986,4.2986,4.2986,4.2986,4.2986,4.2986,4.2986,4.2986,4.2986,4.2986,4.2986,4.2986,4.2986,4.2911,4.264,4.2389,4.2137,4.1756,4.1279,4.0802,4.0576,4.0275,3.9973,3.9747,3.9446,3.9145,3.8969,3.8592,3.8191,3.7613,3.7513,3.7412,3.7086,3.6883,3.6732,3.6732,3.6556,3.6615,3.7335,3.7815,3.8559,3.9782,4.0916,4.1753,4.2234,4.29,4.329,4.329,4.329,4.329,4.329,4.329,4.329,4.329,4.329,4.329,4.329,4.3559,4.3559,4.329,4.329,4.329,4.329,4.329,4.329,4.329,4.329,4.329,4.329,4.329,4.329,4.329,4.329,4.329,4.329,4.329,4.329,4.329,3.6016,3.5332,3.4746,3.4707,3.4023,3.3476,3.3437,3.3418,3.3418,3.3418,3.4798,3.6396,3.8045,3.9639,4.1248,4.2849,4.2986,4.2986,4.2986,4.2986,4.2986,4.2986,4.2986,4.2986,4.2986,4.2986,4.2986,4.2986,4.2986,4.2986,4.2986,4.2986,4.2986,4.2986,4.2986,4.2986,4.2986,4.2986,4.2986,4.2986,4.2986,4.2986,4.2986,4.2986,4.2986,4.2986,4.2986,4.2986,4.2986,4.2986,4.2986,4.2986,4.2986,4.269,4.2288,4.2288,4.1831,4.125,4.0802,4.0601,4.04,3.9898,3.9722,3.9572,3.9069,3.8994,3.8768,3.8191,3.809,3.8065,3.8015,3.7588,3.7262,3.7262,3.6978,3.672,3.6861,3.7828,3.8953,4.0142,4.1155,4.2152,4.321,4.329,4.329,4.329,4.329,4.329,4.329,4.3349,4.3379,4.3379,4.3439,4.3469,4.3469,4.4067,4.4077,4.3379,4.3439,4.3469,4.3469,4.3469,4.3469,4.3469,4.3469,4.3469,4.3469,4.3409,4.3379,4.3379,4.3319,4.329,4.329,4.329,4.329,4.329,3.6016,3.5605,3.5137,3.4766,3.4277,3.3809,3.3476,3.3418,3.3418,3.3418,3.4798,3.6396,3.8045,3.9639,4.1248,4.2849,4.2986,4.2986,4.2986,4.2986,4.2986,4.2986,4.2986,4.2986,4.2986,4.2986,4.2986,4.2986,4.2986,4.2986,4.2986,4.2986,4.2986,4.2986,4.2986,4.2986,4.2986,4.2986,4.2986,4.2986,4.2986,4.2986,4.2986,4.2986,4.2986,4.2986,4.2986,4.2986,4.2986,4.2986,4.2986,4.2986,4.2986,4.2886,4.2866,4.2866,4.2464,4.2011,4.1886,4.1178,4.0501,4.0375,4.0023,3.9672,3.9546,3.9521,3.9346,3.8793,3.8668,3.8542,3.809,3.7914,3.7839,3.7839,3.8585,3.948,4.0429,4.119,4.2052,4.3231,4.3075,4.3021,4.329,4.329,4.329,4.329,4.329,4.329,4.329,4.3798,4.4067,4.4067,4.4586,4.4855,4.4855,4.5005,4.4766,4.4107,4.4616,4.4855,4.4855,4.4855,4.4855,4.4855,4.4855,4.4855,4.4825,4.4317,4.4067,4.4047,4.3499,4.329,4.329,4.329,4.329,4.329,3.6016,3.5684,3.5254,3.4785,3.4355,3.3926,3.3496,3.3418,3.3418,3.3418,3.5458,3.7243,3.8104,4.0303,4.2069,4.2905,4.2986,4.2986,4.2986,4.2986,4.2986,4.2986,4.2986,4.2986,4.2986,4.2986,4.2986,4.2986,4.2986,4.2986,4.2986,4.2986,4.2986,4.2986,4.2986,4.2986,4.2986,4.2986,4.2986,4.2986,4.2986,4.2986,4.2986,4.2986,4.2986,4.2986,4.2986,4.2986,4.2986,4.2986,4.2986,4.2986,4.2986,4.2986,4.2986,4.2986,4.2816,4.2539,4.2288,4.1785,4.1178,4.0651,4.03,4.0023,3.9747,3.9697,3.9622,3.932,3.927,3.917,3.8868,3.8592,3.8417,3.8417,3.9243,4.0106,4.0761,4.2121,4.3327,4.3906,4.3842,4.3648,4.3319,4.3589,4.3768,4.3768,4.4077,4.4257,4.4257,4.4586,4.4796,4.4796,4.5125,4.5304,4.5304,4.5633,4.5603,4.5274,4.5274,4.5304,4.5304,4.5304,4.5304,4.5304,4.5304,4.5304,4.5244,4.4586,4.4496,4.4706,4.4047,4.3947,4.4227,4.3888,4.3559,4.329,3.6016,3.5684,3.5254,3.4785,3.4355,3.3926,3.3496,3.3418,3.3481,3.3776,3.6356,3.8283,3.858,4.1248,4.2986,4.2986,4.2986,4.2986,4.2986,4.2986,4.2986,4.2986,4.2986,4.2986,4.2986,4.2986,4.2986,4.2986,4.2986,4.2986,4.2986,4.2986,4.2986,4.2986,4.2986,4.2986,4.2986,4.2986,4.2986,4.2986,4.2986,4.2986,4.2986,4.2986,4.2986,4.2986,4.2986,4.2986,4.2986,4.2986,4.2986,4.2986,4.2986,4.2986,4.2986,4.2986,4.2986,4.2886,4.2464,4.2288,4.1986,4.1028,4.0727,4.0551,4.0074,3.9823,3.9697,3.9697,3.9697,3.9697,3.9697,3.932,3.912,3.9348,3.9998,4.0588,4.0824,4.2716,4.4037,4.4037,4.4317,4.4257,4.3678,4.4127,4.4496,4.4496,4.4975,4.5304,4.5304,4.5394,4.5454,4.5454,4.5574,4.5633,4.5633,4.6202,4.6459,4.6429,4.5903,4.5633,4.5633,4.5633,4.5633,4.5633,4.5633,4.5633,4.5574,4.4915,4.4975,4.5394,4.4736,4.4825,4.5214,4.4676,4.4077,4.3469,3.6016,3.5684,3.5254,3.4785,3.4355,3.3926,3.3496,3.3418,3.3902,3.5273,3.7084,3.8757,4.0129,4.1899,4.2986,4.2986,4.2986,4.2986,4.2986,4.2986,4.2986,4.2986,4.2986,4.2986,4.2986,4.2986,4.2986,4.2986,4.2986,4.2986,4.2986,4.2986,4.2986,4.2986,4.2986,4.2986,4.2986,4.2986,4.2986,4.2986,4.2986,4.2986,4.2986,4.2986,4.2986,4.2986,4.2986,4.2986,4.2986,4.2986,4.2986,4.2986,4.2986,4.2986,4.2986,4.2986,4.2986,4.2961,4.2886,4.2564,4.2162,4.2037,4.158,4.115,4.1075,4.0375,3.9697,3.9697,3.9697,3.9697,3.9697,3.9647,3.9956,4.1065,4.221,4.3396,4.4464,4.5361,4.5917,4.5917,4.549,4.5125,4.5035,4.5095,4.5155,4.5155,4.5244,4.5304,4.5304,4.5873,4.613,4.613,4.6741,4.704,4.704,4.713,4.716,4.716,4.707,4.704,4.704,4.704,4.704,4.704,4.704,4.704,4.698,4.6322,4.607,4.6112,4.5424,4.5214,4.5274,4.5185,4.4736,4.4167,3.6016,3.5879,3.5605,3.5156,3.4941,3.4648,3.4199,3.4936,3.5848,3.652,3.8908,4.0644,4.1009,4.2209,4.3112,4.3413,4.3162,4.2986,4.2986,4.2986,4.2986,4.2986,4.2986,4.2986,4.2986,4.2986,4.2986,4.2986,4.2986,4.2986,4.2986,4.2986,4.2986,4.2986,4.2986,4.2986,4.2986,4.2986,4.2986,4.2986,4.2986,4.2986,4.2986,4.2986,4.2986,4.2986,4.2986,4.2986,4.2986,4.2986,4.2986,4.2986,4.2986,4.2986,4.2986,4.2986,4.2986,4.2986,4.2986,4.2866,4.259,4.2288,4.1982,4.1706,4.1351,4.0899,4.0526,4.0224,3.9898,3.9697,3.9697,3.9697,3.9878,4.0465,4.223,4.3693,4.4256,4.577,4.6741,4.6339,4.6052,4.5723,4.5334,4.5633,4.5873,4.5873,4.6202,4.6411,4.6411,4.6711,4.686,4.686,4.716,4.7309,4.7309,4.7309,4.7309,4.7309,4.7309,4.7309,4.7309,4.7309,4.7309,4.7309,4.7309,4.7309,4.7249,4.6591,4.6488,4.68,4.6142,4.5873,4.5873,4.5873,4.5454,4.4855]}]]